ftp/pub/palmer/observations_modified/2019/August/AR190826_BASE.txt

Download

Sample DateTime	Unit Id	WS Avg 2min	WD Avg 2min	WGS 10min	WGD 10min	Air Temp	Rel Humidity	Dew Point	Pyranometer	Quantum	Air Pressure	Snow Level	Rainfall	PW Current	Visibility	CBase 1	CBase 2	CBase 3	Vert Vis
2019/08/26  00:00:00  BASE  7.4382   351  9.3492   350  1.1   100   1.1   0     0     989.5    NA       0.0000   9999     360   0     0    
2019/08/26  00:01:00  BASE  7.22064  350  9.31392  340  1.0   100   1.0   0     0     989.5    NA       0.0000   9999     390   0     0    
2019/08/26  00:02:00  BASE  7.48524  352  9.31392  340  1.0   100   1.0   0     0     989.4    NA       0.0000   9999     390   0     0    
2019/08/26  00:03:00  BASE  7.80276  351  9.31392  340  1.0   100   1.0   0     0     989.5    NA       0.0000   9999     1480  0     0    
2019/08/26  00:04:00  BASE  7.68516  349  9.31392  340  1.0   100   1.0   0     0     989.5    NA       0.0000   9999     1510  0     0    
2019/08/26  00:05:00  BASE  8.28492  353  9.64908  352  1.0   100   1.0   0     0     989.4    NA       0.0000   9999     1610  0     0    
2019/08/26  00:06:00  BASE  8.53188  354  9.64908  352  1.0   100   1.0   0     0     989.5    NA       0.0000   9999     1540  0     0    
2019/08/26  00:07:00  BASE  8.20848  348  9.64908  352  1.0   100   1.0   0     0     989.5    NA       0.0000   9999     430   0     0    
2019/08/26  00:08:00  BASE  8.232    342  9.64908  352  1.0   100   1.0   0     0     989.5    NA       0.0000   9999     1540  0     0    
2019/08/26  00:09:00  BASE  8.03208  348  9.64908  352  1.0   100   1.0   0     0     989.5    NA       0.0000   9999     1480  0     0    
2019/08/26  00:10:00  BASE  7.83216  352  9.64908  352  1.0   100   1.0   0     0     989.5    NA       0.0000   9999     1480  0     0    
2019/08/26  00:11:00  BASE  7.64988  350  9.64908  352  1.0   100   1.0   0     0     989.5    NA       0.0000   9999     1440  0     0    
2019/08/26  00:12:00  BASE  7.68516  350  9.64908  352  1.0   100   1.0   0     0     989.5    NA       0.0000   9999     430   0     0    
2019/08/26  00:13:00  BASE  7.47936  350  9.64908  352  1.0   100   1.0   0     0     989.5    NA       0.0000   9999     390   0     0    
2019/08/26  00:14:00  BASE  7.56168  350  9.64908  352  1.0   100   1.0   0     0     989.5    NA       0.0000   9999     1510  0     0    
2019/08/26  00:15:00  BASE  7.69104  353  9.19632  340  1.0   100   1.0   0     0     989.5    NA       0.0000   9999     850   0     0    
2019/08/26  00:16:00  BASE  7.69692  354  9.19632  340  1.0   100   1.0   0     0     989.5    NA       0.0000   9999     1510  0     0    
2019/08/26  00:17:00  BASE  8.2614   352  9.4374   352  1.0   100   1.0   0     0     989.5    NA       0.0000   9999     1410  0     0    
2019/08/26  00:18:00  BASE  8.5848   350  9.4374   348  1.0   100   1.0   0     0     989.6    NA       0.0000   9999     1410  0     0    
2019/08/26  00:19:00  BASE  8.72004  351  9.64908  1    1.0   100   1.0   0     0     989.6    NA       0.0000   9999     620   0     0    
2019/08/26  00:20:00  BASE  8.56128  354  9.64908  1    1.0   100   1.0   0     0     989.6    NA       0.0000   9999     390   0     0    
2019/08/26  00:21:00  BASE  8.30844  352  9.64908  1    1.0   100   1.0   0     0     989.6    NA       0.0000   9999     390   0     0    
2019/08/26  00:22:00  BASE  8.69652  349  9.98424  341  1.0   100   1.0   0     0     989.6    NA       0.0000   9999     390   0     0    
2019/08/26  00:23:00  BASE  8.82     350  9.98424  341  1.0   100   1.0   0     0     989.6    NA       0.0000   9999     390   0     0    
2019/08/26  00:24:00  BASE  8.63772  350  10.3135  351  1.0   100   1.0   0     0     989.6    NA       0.0000   9999     360   0     0    
2019/08/26  00:25:00  BASE  8.97876  351  10.3135  351  1.0   100   1.0   0     0     989.6    NA       0.0000   9999     390   0     0    
2019/08/26  00:26:00  BASE  9.00816  348  10.3135  351  1.0   100   1.0   0     0     989.7    NA       0.0000   9999     850   0     0    
2019/08/26  00:27:00  BASE  8.04972  345  10.3135  351  1.0   100   1.0   0     0     989.8    NA       0.0000   9999     690   0     0    
2019/08/26  00:28:00  BASE  7.54992  347  10.3135  351  1.0   100   1.0   0     0     989.8    NA       0.0000   9999     660   0     0    
2019/08/26  00:29:00  BASE  7.84392  345  10.3135  351  0.9   100   0.9   0     0     989.8    NA       0.0000   9999     560   1570  0    
2019/08/26  00:30:00  BASE  7.83804  345  10.3135  351  0.9   100   0.9   0     0     989.8    NA       0.0000   9999     430   0     0    
2019/08/26  00:31:00  BASE  7.62048  347  10.3135  351  0.9   100   0.9   0     0     989.9    NA       0.0000   9999     390   0     0    
2019/08/26  00:32:00  BASE  7.81452  347  10.3135  351  0.9   100   0.9   0     0     989.9    NA       0.0000   9999     360   0     0    
2019/08/26  00:33:00  BASE  8.04384  348  10.3135  351  0.9   100   0.9   0     0     989.9    NA       0.0000   9999     360   0     0    
2019/08/26  00:34:00  BASE  8.10264  345  10.1959  350  0.8   100   0.8   0     0     989.9    NA       0.0000   9999     690   0     0    
2019/08/26  00:35:00  BASE  8.09088  345  9.64908  350  0.8   100   0.8   0     0     989.9    NA       0.0000   9999     980   0     0    
2019/08/26  00:36:00  BASE  7.43232  347  8.92584  340  0.8   100   0.8   0     0     990.0    NA       0.0000   9999     690   0     0    
2019/08/26  00:37:00  BASE  7.00896  349  8.92584  340  0.8   100   0.8   0     0     990.1    NA       0.0000   9999     1480  0     0    
2019/08/26  00:38:00  BASE  7.2912   347  8.92584  340  0.8   100   0.8   0     0     990.1    NA       0.0000   9999     1440  0     0    
2019/08/26  00:39:00  BASE  7.17948  345  8.92584  340  0.7   100   0.7   0     0     990.1    NA       0.0000   9999     390   0     0    
2019/08/26  00:40:00  BASE  7.46172  344  8.92584  340  0.7   100   0.7   0     0     990.1    NA       0.0000   9999     390   0     0    
2019/08/26  00:41:00  BASE  7.86156  346  8.92584  340  0.7   100   0.7   0     0     990.1    NA       0.0000   9999     1540  0     0    
2019/08/26  00:42:00  BASE  8.07912  346  9.61968  345  0.7   100   0.7   0     0     990.0    NA       0.0000   9999     1480  0     0    
2019/08/26  00:43:00  BASE  8.83764  342  9.89016  344  0.7   100   0.7   0     0     990.1    NA       0.0000   9999     360   0     0    
2019/08/26  00:44:00  BASE  8.9082   340  9.89016  344  0.7   100   0.7   0     0     990.1    NA       0.0000   9999     360   0     0    
2019/08/26  00:45:00  BASE  8.44956  341  9.89016  344  0.7   100   0.7   0     0     990.1    NA       0.0000   9999     360   0     0    
2019/08/26  00:46:00  BASE  8.57892  342  9.89016  344  0.6   100   0.6   0     0     990.1    NA       0.0000   9999     360   0     0    
2019/08/26  00:47:00  BASE  8.97876  343  9.89016  344  0.6   100   0.6   0     0     990.1    NA       0.0000   9999     360   0     0    
2019/08/26  00:48:00  BASE  9.13164  345  10.1018  350  0.6   100   0.6   0     0     990.1    NA       0.0000   9999     0     0     0    
2019/08/26  00:49:00  BASE  8.87292  347  10.1018  350  0.6   100   0.6   0     0     990.1    NA       0.0000   9999     330   0     0    
2019/08/26  00:50:00  BASE  8.71416  347  10.1018  350  0.6   100   0.5   0     0     990.1    NA       0.0000   9999     360   0     0    
2019/08/26  00:51:00  BASE  8.42604  347  10.1018  350  0.5   100   0.5   0     0     990.1    NA       0.0000   9999     660   0     0    
2019/08/26  00:52:00  BASE  8.29668  350  10.1018  350  0.5   100   0.5   0     0     990.1    NA       0.0000   9999     0     0     0    
2019/08/26  00:53:00  BASE  8.73768  354  10.1018  350  0.5   100   0.5   0     0     990.1    NA       0.0000   9999     430   0     0    
2019/08/26  00:54:00  BASE  8.74944  353  10.1018  350  0.5   100   0.5   0     0     990.2    NA       0.0000   9999     660   0     0    
2019/08/26  00:55:00  BASE  8.62596  348  10.1018  350  0.5   100   0.5   0     0     990.2    NA       0.0000   9999     0     0     0    
2019/08/26  00:56:00  BASE  9.1434   346  10.1018  350  0.5   100   0.5   0     0     990.2    NA       0.0000   9999     460   0     0    
2019/08/26  00:57:00  BASE  8.96112  348  10.1018  350  0.5   100   0.5   0     0     990.2    NA       0.0000   9999     460   0     0    
2019/08/26  00:58:00  BASE  8.14968  345  9.98424  352  0.5   100   0.5   0     0     990.2    NA       0.0000   9999     590   0     0    
2019/08/26  00:59:00  BASE  7.79688  343  9.98424  352  0.5   100   0.5   0     0     990.3    NA       0.0000   9999     1120  0     0    
2019/08/26  01:00:00  BASE  7.80864  344  9.98424  352  0.5   100   0.5   0     0     990.3    NA       0.0000   9999     1050  0     0    
2019/08/26  01:01:00  BASE  8.29668  342  9.98424  352  0.4   100   0.4   0     0     990.2    NA       0.0000   9999     1020  0     0    
2019/08/26  01:02:00  BASE  8.69652  342  9.98424  352  0.4   100   0.4   0     0     990.3    NA       0.0000   9999     560   0     0    
2019/08/26  01:03:00  BASE  8.62596  343  9.95484  349  0.4   100   0.4   0     0     990.3    NA       0.0000   9999     460   0     0    
2019/08/26  01:04:00  BASE  8.1732   344  9.95484  349  0.4   100   0.4   0     0     990.3    NA       0.0000   9999     620   0     0    
2019/08/26  01:05:00  BASE  7.92036  343  9.95484  349  0.4   100   0.4   0     0     990.3    NA       0.0000   9999     920   0     0    
2019/08/26  01:06:00  BASE  8.33196  342  9.70788  343  0.4   100   0.4   0     0     990.3    NA       0.0000   9999     490   0     0    
2019/08/26  01:07:00  BASE  8.75532  342  9.74316  338  0.3   100   0.3   0     0     990.3    NA       0.0000   9999     390   0     0    
2019/08/26  01:08:00  BASE  9.07872  341  10.437   339  0.3   100   0.3   0     0     990.3    NA       0.0000   9999     390   0     0    
2019/08/26  01:09:00  BASE  9.54912  344  10.437   349  0.3   100   0.3   0     0     990.3    NA       0.0000   9999     360   0     0    
2019/08/26  01:10:00  BASE  9.31392  345  10.437   349  0.3   100   0.3   0     0     990.3    NA       0.0000   9999     360   0     0    
2019/08/26  01:11:00  BASE  8.77296  343  10.437   349  0.3   100   0.3   0     0     990.4    NA       0.0000   9999     360   0     0    
2019/08/26  01:12:00  BASE  8.60832  344  10.437   349  0.3   100   0.3   0     0     990.4    NA       0.0000   9999     360   0     0    
2019/08/26  01:13:00  BASE  8.53776  347  10.437   349  0.3   100   0.3   0     0     990.4    NA       0.0000   9999     300   0     0    
2019/08/26  01:14:00  BASE  8.526    346  10.437   349  0.2   100   0.2   0     0     990.4    NA       0.0000   9999     300   0     0    
2019/08/26  01:15:00  BASE  8.37312  343  10.437   349  0.2   100   0.2   0     0     990.4    NA       0.0000   9999     300   0     0    
2019/08/26  01:16:00  BASE  8.47308  344  10.437   349  0.2   100   0.2   0     0     990.4    NA       0.0000   9999     300   0     0    
2019/08/26  01:17:00  BASE  8.41428  346  10.437   349  0.2   100   0.2   0     0     990.4    NA       0.0000   9999     260   0     0    
2019/08/26  01:18:00  BASE  8.4378   347  10.437   349  0.2   100   0.2   0     0     990.4    NA       0.0000   9999     260   0     0    
2019/08/26  01:19:00  BASE  8.39076  348  10.1959  345  0.2   100   0.2   0     0     990.5    NA       0.0000   9999     260   0     0    
2019/08/26  01:20:00  BASE  7.95564  345  9.64908  347  0.2   100   0.2   0     0     990.5    NA       0.0000   9999     300   0     0    
2019/08/26  01:21:00  BASE  7.8498   343  9.64908  347  0.1   100   0.1   0     0     990.5    NA       0.0000   9999     300   0     0    
2019/08/26  01:22:00  BASE  7.92036  344  9.64908  347  0.1   100   0.1   0     0     990.5    NA       0.0000   9999     300   0     0    
2019/08/26  01:23:00  BASE  7.89096  343  9.64908  347  0.1   100   0.1   0     0     990.5    NA       0.0000   9999     330   0     0    
2019/08/26  01:24:00  BASE  7.35     344  9.64908  347  0.1   100   0.1   0     0     990.5    NA       0.0000   9999     330   0     0    
2019/08/26  01:25:00  BASE  7.06776  345  9.64908  347  0.1   100   0.1   0     0     990.5    NA       0.0000   9999     330   0     0    
2019/08/26  01:26:00  BASE  6.82668  347  9.64908  347  0.1   100   0.1   0     0     990.6    NA       0.0000   9999     330   0     0    
2019/08/26  01:27:00  BASE  6.75612  348  9.64908  347  0.1   100   0.1   0     0     990.5    NA       0.0000   9999     300   0     0    
2019/08/26  01:28:00  BASE  7.35     349  8.80236  338  0.1   100   0.1   0     0     990.6    NA       0.0000   9999     300   0     0    
2019/08/26  01:29:00  BASE  7.46172  350  8.80236  338  0.1   100   0.1   0     0     990.6    NA       0.0000   9999     330   0     0    
2019/08/26  01:30:00  BASE  6.86784  348  8.80236  338  0.1   100   0.1   0     0     990.7    NA       0.0000   9999     330   0     0    
2019/08/26  01:31:00  BASE  6.52092  345  8.50248  347  0.1   100   0.1   0     0     990.7    NA       0.0000   9999     330   0     0    
2019/08/26  01:32:00  BASE  6.69144  346  8.379    351  0.1   100   0.1   0     0     990.7    NA       0.0000   9999     300   0     0    
2019/08/26  01:33:00  BASE  6.65028  347  8.379    351  0.1   100   0.1   0     0     990.7    NA       0.0000   9999     300   0     0    
2019/08/26  01:34:00  BASE  6.91488  348  8.379    351  0.1   100   0.1   0     0     990.7    NA       0.0000   9999     300   0     0    
2019/08/26  01:35:00  BASE  7.13244  349  8.379    351  0.1   100   0.1   0     0     990.7    NA       0.0000   9999     300   0     0    
2019/08/26  01:36:00  BASE  7.056    347  8.379    351  0.1   100   0.1   0     0     990.7    NA       0.0000   9999     300   0     0    
2019/08/26  01:37:00  BASE  7.44408  347  8.379    351  0.1   100   0.1   0     0     990.7    NA       0.0000   9999     300   0     0    
2019/08/26  01:38:00  BASE  7.2324   351  8.2908   346  0.1   100   0.1   0     0     990.8    NA       0.0000   9999     300   0     0    
2019/08/26  01:39:00  BASE  7.03248  350  8.2908   346  0.1   100   0.1   0     0     990.8    NA       0.0000   9999     300   0     0    
2019/08/26  01:40:00  BASE  7.03248  346  8.2908   346  0.1   100   0.1   0     0     990.8    NA       0.0000   9999     300   0     0    
2019/08/26  01:41:00  BASE  6.6738   347  8.2908   346  0.1   100   0.1   0     0     990.8    NA       0.0000   9999     300   0     0    
2019/08/26  01:42:00  BASE  6.62676  347  8.2908   346  0.0   100   0.0   0     0     990.8    NA       0.0000   9999     300   0     0    
2019/08/26  01:43:00  BASE  6.62676  347  8.2908   346  0.0   100   0.0   0     0     990.8    NA       0.0000   9999     260   0     0    
2019/08/26  01:44:00  BASE  6.48564  347  8.2908   346  0.0   100   0.0   0     0     990.9    NA       0.0000   9999     300   0     0    
2019/08/26  01:45:00  BASE  6.60912  347  8.2908   346  -0.0  100   -0.0  0     0     990.9    NA       0.0000   9999     330   0     0    
2019/08/26  01:46:00  BASE  6.94428  348  8.2908   346  -0.0  100   -0.0  0     0     990.9    NA       0.0000   9999     330   0     0    
2019/08/26  01:47:00  BASE  6.74436  346  8.13792  341  0.0   100   0.0   0     0     990.9    NA       0.0000   9999     330   0     0    
2019/08/26  01:48:00  BASE  6.22104  344  8.13792  341  0.0   100   0.0   0     0     990.9    NA       0.0000   9999     330   0     0    
2019/08/26  01:49:00  BASE  6.17988  346  8.04384  347  -0.0  100   -0.0  0     0     990.8    NA       0.0000   9999     360   0     0    
2019/08/26  01:50:00  BASE  6.27984  349  8.04384  347  -0.0  100   -0.0  0     0     990.8    NA       0.0000   9999     360   0     0    
2019/08/26  01:51:00  BASE  6.17988  349  8.04384  347  -0.0  100   -0.0  0     0     990.8    NA       0.0000   9999     360   0     0    
2019/08/26  01:52:00  BASE  5.86236  347  8.04384  347  -0.0  100   -0.0  0     0     990.9    NA       0.0000   9999     390   0     0    
2019/08/26  01:53:00  BASE  5.65068  346  8.04384  347  -0.0  100   -0.0  0     0     990.9    NA       0.0000   9999     390   0     0    
2019/08/26  01:54:00  BASE  5.96232  345  8.04384  347  -0.0  100   -0.0  0     0     990.8    NA       0.0000   9999     390   0     0    
2019/08/26  01:55:00  BASE  6.36216  346  7.56168  343  -0.0  100   -0.0  0     0     990.9    NA       0.0000   9999     390   0     0    
2019/08/26  01:56:00  BASE  6.174    346  7.2618   350  -0.0  100   -0.0  0     0     990.9    NA       0.0000   9999     430   0     0    
2019/08/26  01:57:00  BASE  6.0858   345  7.2618   350  -0.0  100   -0.0  0     0     990.9    NA       0.0000   9999     430   0     0    
2019/08/26  01:58:00  BASE  6.39744  344  7.2618   350  -0.0  100   -0.0  0     0     990.9    NA       0.0000   9999     430   0     0    
2019/08/26  01:59:00  BASE  6.67968  347  7.47348  344  0.0   100   0.0   0     0     990.9    NA       0.0000   9999     390   0     0    
2019/08/26  02:00:00  BASE  6.57384  348  7.47348  344  0.0   100   0.0   0     0     990.9    NA       0.0000   9999     390   0     0    
2019/08/26  02:01:00  BASE  6.46212  348  7.47348  344  0.0   100   0.0   0     0     990.9    NA       0.0000   9999     390   0     0    
2019/08/26  02:02:00  BASE  6.57384  346  7.47348  344  0.0   100   0.0   0     0     991.0    NA       0.0000   9999     390   0     0    
2019/08/26  02:03:00  BASE  6.54444  346  7.59108  344  0.0   100   0.0   0     0     991.0    NA       0.0000   9999     430   0     0    
2019/08/26  02:04:00  BASE  6.56796  349  7.59108  344  0.0   100   0.0   0     0     991.0    NA       0.0000   9999     720   0     0    
2019/08/26  02:05:00  BASE  6.50328  346  7.59108  344  0.0   100   0.0   0     0     991.0    NA       0.0000   9999     750   0     0    
2019/08/26  02:06:00  BASE  6.39744  342  7.59108  344  0.0   100   0.0   0     0     991.0    NA       0.0000   9999     620   0     0    
2019/08/26  02:07:00  BASE  6.32688  343  7.59108  344  0.1   100   0.1   0     0     991.0    NA       0.0000   9999     660   0     0    
2019/08/26  02:08:00  BASE  6.06228  344  7.59108  344  0.1   100   0.1   0     0     991.1    NA       0.0000   9999     590   0     0    
2019/08/26  02:09:00  BASE  5.83884  340  7.59108  344  0.1   100   0.1   0     0     991.1    NA       0.0000   9999     660   0     0    
2019/08/26  02:10:00  BASE  5.52132  339  7.59108  344  0.0   100   0.0   0     0     991.2    NA       0.0000   9999     660   0     0    
2019/08/26  02:11:00  BASE  5.75064  341  7.59108  344  0.0   100   0.0   0     0     991.1    NA       0.0000   9999     750   0     0    
2019/08/26  02:12:00  BASE  6.762    345  8.01444  340  0.0   100   0.0   0     0     991.1    NA       0.0000   9999     790   0     0    
2019/08/26  02:13:00  BASE  7.02072  345  8.3202   342  0.1   100   0.1   0     0     991.1    NA       0.0000   9999     750   0     0    
2019/08/26  02:14:00  BASE  6.468    345  8.3202   342  0.1   100   0.1   0     0     991.2    NA       0.0000   9999     790   0     0    
2019/08/26  02:15:00  BASE  6.5562   349  8.3202   342  0.1   100   0.1   0     0     991.2    NA       0.0000   9999     790   0     0    
2019/08/26  02:16:00  BASE  6.69144  349  8.3202   342  0.1   100   0.1   0     0     991.2    NA       0.0000   9999     790   0     0    
2019/08/26  02:17:00  BASE  6.2622   346  8.3202   342  0.1   100   0.1   0     0     991.3    NA       0.0000   9999     850   0     0    
2019/08/26  02:18:00  BASE  5.83296  342  8.3202   342  0.1   100   0.1   0     0     991.4    NA       0.0000   9999     820   0     0    
2019/08/26  02:19:00  BASE  5.6742   338  8.3202   342  0.1   100   0.1   0     0     991.4    NA       0.0000   9999     890   0     0    
2019/08/26  02:20:00  BASE  5.9976   334  8.3202   342  0.1   100   0.1   0     0     991.4    NA       0.0000   9999     850   0     0    
2019/08/26  02:21:00  BASE  6.22692  333  8.3202   342  0.1   100   0.1   0     0     991.4    NA       0.0000   9999     790   0     0    
2019/08/26  02:22:00  BASE  6.56796  333  8.3202   342  0.1   100   0.1   0     0     991.4    NA       0.0000   9999     790   0     0    
2019/08/26  02:23:00  BASE  6.909    333  7.86744  336  0.1   100   0.1   0     0     991.4    NA       0.0000   9999     690   0     0    
2019/08/26  02:24:00  BASE  7.15596  335  7.86744  336  0.1   100   0.1   0     0     991.4    NA       0.0000   9999     790   0     0    
2019/08/26  02:25:00  BASE  6.9678   334  7.86744  336  0.1   100   0.1   0     0     991.4    NA       0.0000   9999     750   0     0    
2019/08/26  02:26:00  BASE  6.72672  331  7.86744  336  0.1   100   0.1   0     0     991.5    NA       0.0000   9999     720   0     0    
2019/08/26  02:27:00  BASE  7.00896  332  8.25552  339  0.1   100   0.1   0     0     991.5    NA       0.0000   9999     590   0     0    
2019/08/26  02:28:00  BASE  7.7028   335  8.4672   344  0.1   100   0.1   0     0     991.5    NA       0.0000   9999     390   0     0    
2019/08/26  02:29:00  BASE  7.96152  338  8.4672   344  0.1   100   0.1   0     0     991.5    NA       0.0000   9999     360   0     0    
2019/08/26  02:30:00  BASE  7.63224  337  8.4672   344  0.1   100   0.1   0     0     991.5    NA       0.0000   9999     360   0     0    
2019/08/26  02:31:00  BASE  7.51464  338  8.4672   344  0.1   100   0.1   0     0     991.5    NA       0.0000   9999     360   0     0    
2019/08/26  02:32:00  BASE  7.2324   341  8.4672   344  0.1   100   0.1   0     0     991.5    NA       0.0000   9999     360   0     0    
2019/08/26  02:33:00  BASE  6.86784  343  8.4672   344  0.1   100   0.1   0     0     991.6    NA       0.0000   9999     360   0     0    
2019/08/26  02:34:00  BASE  7.24416  345  8.4672   344  0.0   100   0.0   0     0     991.5    NA       0.0000   9999     330   0     0    
2019/08/26  02:35:00  BASE  7.1736   348  8.4672   344  0.0   100   0.0   0     0     991.6    NA       0.0000   9999     330   0     0    
2019/08/26  02:36:00  BASE  6.7914   350  8.4672   344  0.0   100   0.0   0     0     991.6    NA       0.0000   9999     360   0     0    
2019/08/26  02:37:00  BASE  6.9972   350  8.4672   344  0.0   100   0.0   0     0     991.6    NA       0.0000   9999     330   0     0    
2019/08/26  02:38:00  BASE  6.78552  348  8.25552  337  0.0   100   0.0   0     0     991.6    NA       0.0000   9999     330   0     0    
2019/08/26  02:39:00  BASE  6.55032  346  8.19672  347  0.0   100   0.0   0     0     991.6    NA       0.0000   9999     330   0     0    
2019/08/26  02:40:00  BASE  6.44448  344  8.19672  347  0.0   100   0.0   0     0     991.6    NA       0.0000   9999     360   0     0    
2019/08/26  02:41:00  BASE  6.12108  346  8.19672  347  0.0   100   0.0   0     0     991.6    NA       0.0000   9999     330   0     0    
2019/08/26  02:42:00  BASE  5.9682   345  8.19672  347  0.0   100   -0.0  0     0     991.7    NA       0.0000   9999     330   0     0    
2019/08/26  02:43:00  BASE  5.95644  345  8.19672  347  -0.0  100   -0.0  0     0     991.7    NA       0.0000   9999     330   0     0    
2019/08/26  02:44:00  BASE  5.6742   346  7.53228  351  -0.0  100   -0.0  0     0     991.7    NA       0.0000   9999     330   0     0    
2019/08/26  02:45:00  BASE  5.56836  346  7.47348  348  -0.0  100   -0.0  0     0     991.7    NA       0.0000   9999     300   1210  0    
2019/08/26  02:46:00  BASE  5.69772  348  7.47348  348  -0.1  100   -0.1  0     0     991.7    NA       0.0000   9999     360   0     0    
2019/08/26  02:47:00  BASE  5.92704  347  7.3206   344  -0.1  100   -0.1  0     0     991.7    NA       0.0000   9999     330   0     0    
2019/08/26  02:48:00  BASE  6.02112  344  7.3206   344  -0.1  100   -0.1  0     0     991.7    NA       0.0000   9999     360   0     0    
2019/08/26  02:49:00  BASE  5.42724  342  7.05012  343  -0.1  100   -0.1  0     0     991.7    NA       0.0000   9999     360   1250  0    
2019/08/26  02:50:00  BASE  5.22144  342  6.74436  344  -0.1  100   -0.1  0     0     991.7    NA       0.0000   9999     360   0     0    
2019/08/26  02:51:00  BASE  5.74476  343  6.59148  336  -0.1  100   -0.1  0     0     991.7    NA       0.0000   9999     390   1280  0    
2019/08/26  02:52:00  BASE  5.81532  346  6.53268  347  -0.1  100   -0.1  0     0     991.7    NA       0.0000   9999     390   0     0    
2019/08/26  02:53:00  BASE  5.62716  345  6.53268  347  -0.1  100   -0.1  0     0     991.8    NA       0.0000   9999     390   0     0    
2019/08/26  02:54:00  BASE  5.37432  344  6.53268  347  -0.1  100   -0.1  0     0     991.8    NA       0.0000   9999     390   0     0    
2019/08/26  02:55:00  BASE  4.97448  344  6.53268  347  -0.1  100   -0.1  0     0     991.8    NA       0.0000   9999     360   0     0    
2019/08/26  02:56:00  BASE  4.71576  343  6.53268  347  -0.1  100   -0.1  0     0     991.8    NA       0.0000   9999     360   0     0    
2019/08/26  02:57:00  BASE  4.66872  343  6.53268  347  -0.1  100   -0.1  0     0     991.8    NA       0.0000   9999     330   0     0    
2019/08/26  02:58:00  BASE  4.89804  344  6.53268  347  -0.1  100   -0.1  0     0     991.9    NA       0.0000   9999     360   0     0    
2019/08/26  02:59:00  BASE  4.66872  345  6.53268  347  -0.1  100   -0.1  0     0     991.9    NA       0.0000   9999     390   0     0    
2019/08/26  03:00:00  BASE  4.3512   344  6.53268  347  -0.1  100   -0.1  0     0     992.0    NA       0.0000   9999     330   0     0    
2019/08/26  03:01:00  BASE  4.31004  341  6.02112  344  -0.1  100   -0.1  0     0     992.0    NA       0.0000   9999     360   0     0    
2019/08/26  03:02:00  BASE  4.40412  342  6.02112  344  -0.1  100   -0.1  0     0     992.0    NA       0.0000   9999     300   0     0    
2019/08/26  03:03:00  BASE  4.56288  343  5.99172  351  -0.1  100   -0.1  0     0     992.0    NA       0.0000   9999     300   0     0    
2019/08/26  03:04:00  BASE  4.49232  343  5.59776  338  -0.1  100   -0.1  0     0     992.0    NA       0.0000   9999     330   0     0    
2019/08/26  03:05:00  BASE  4.59816  343  5.59776  338  -0.1  100   -0.1  0     0     992.0    NA       0.0000   9999     330   0     0    
2019/08/26  03:06:00  BASE  4.79808  343  5.59776  338  -0.1  100   -0.1  0     0     992.0    NA       0.0000   9999     360   0     0    
2019/08/26  03:07:00  BASE  4.96272  345  5.78004  339  -0.1  100   -0.1  0     0     992.0    NA       0.0000   9999     390   0     0    
2019/08/26  03:08:00  BASE  5.00976  342  5.78004  339  -0.1  100   -0.1  0     0     992.0    NA       0.0000   9999     430   0     0    
2019/08/26  03:09:00  BASE  4.8804   339  5.78004  339  -0.1  100   -0.1  0     0     992.0    NA       0.0000   9999     430   0     0    
2019/08/26  03:10:00  BASE  4.80396  340  5.78004  339  -0.1  100   -0.1  0     0     992.0    NA       0.0000   9999     490   0     0    
2019/08/26  03:11:00  BASE  5.13324  344  6.13872  345  -0.2  100   -0.2  0     0     992.0    NA       0.0000   9999     460   0     0    
2019/08/26  03:12:00  BASE  5.63304  344  6.13872  338  -0.2  100   -0.2  0     0     992.0    NA       0.0000   9999     390   0     0    
2019/08/26  03:13:00  BASE  5.69184  343  6.13872  338  -0.2  100   -0.2  0     0     992.0    NA       0.0000   9999     360   0     0    
2019/08/26  03:14:00  BASE  5.45076  344  6.13872  338  -0.2  100   -0.2  0     0     992.0    NA       0.0000   9999     1480  0     0    
2019/08/26  03:15:00  BASE  5.6448   345  6.41508  347  -0.2  100   -0.2  0     0     992.0    NA       0.0000   9999     980   0     0    
2019/08/26  03:16:00  BASE  5.76828  346  6.41508  347  -0.2  100   -0.2  0     0     992.0    NA       0.0000   9999     1120  0     0    
2019/08/26  03:17:00  BASE  5.3802   343  6.41508  347  -0.2  100   -0.2  0     0     992.0    NA       0.0000   9999     1380  0     0    
2019/08/26  03:18:00  BASE  5.03916  341  6.41508  347  -0.2  100   -0.2  0     0     992.1    NA       0.0000   9999     1310  0     0    
2019/08/26  03:19:00  BASE  4.99212  342  6.41508  347  -0.2  100   -0.2  0     0     992.1    NA       0.0000   9999     1050  0     0    
2019/08/26  03:20:00  BASE  4.96272  341  6.41508  347  -0.2  100   -0.2  0     0     992.1    NA       0.0000   9999     1180  0     0    
2019/08/26  03:21:00  BASE  4.79808  344  6.41508  347  -0.2  100   -0.2  0     0     992.1    NA       0.0000   9999     1380  0     0    
2019/08/26  03:22:00  BASE  4.83924  344  6.41508  347  -0.2  100   -0.2  0     0     992.1    NA       0.0000   9999     1210  0     0    
2019/08/26  03:23:00  BASE  4.74516  342  6.41508  347  -0.2  100   -0.2  0     0     992.2    NA       0.0000   9999     1180  0     0    
2019/08/26  03:24:00  BASE  4.5864   343  6.41508  347  -0.2  100   -0.2  0     0     992.2    NA       0.0000   9999     1210  0     0    
2019/08/26  03:25:00  BASE  4.63344  343  5.83884  345  -0.2  100   -0.2  0     0     992.2    NA       0.0000   9999     1210  0     0    
2019/08/26  03:26:00  BASE  4.5864   343  5.80944  341  -0.2  100   -0.2  0     0     992.2    NA       0.0000   9999     1150  0     0    
2019/08/26  03:27:00  BASE  4.37472  344  5.80944  341  -0.2  100   -0.2  0     0     992.2    NA       0.0000   9999     1080  0     0    
2019/08/26  03:28:00  BASE  4.263    343  5.80944  341  -0.2  100   -0.2  0     0     992.2    NA       0.0000   9999     1080  0     0    
2019/08/26  03:29:00  BASE  4.36884  341  5.41548  345  -0.2  100   -0.2  0     0     992.3    NA       0.0000   9999     1050  2400  0    
2019/08/26  03:30:00  BASE  4.53936  340  5.41548  345  -0.2  100   -0.2  0     0     992.3    NA       0.0000   9999     1050  2400  0    
2019/08/26  03:31:00  BASE  4.6452   339  5.41548  345  -0.2  100   -0.2  0     0     992.3    NA       0.0000   9999     920   1350  0    
2019/08/26  03:32:00  BASE  4.53348  339  5.2626   340  -0.2  100   -0.2  0     0     992.3    NA       0.0000   9999     980   0     0    
2019/08/26  03:33:00  BASE  4.39236  339  5.2626   340  -0.2  100   -0.2  0     0     992.4    NA       0.0000   9999     1180  2360  0    
2019/08/26  03:34:00  BASE  4.33944  339  5.2626   340  -0.2  100   -0.2  0     0     992.4    NA       0.0000   9999     1050  0     0    
2019/08/26  03:35:00  BASE  4.32768  340  5.08032  337  -0.2  100   -0.2  0     0     992.4    NA       0.0000   9999     1020  0     0    
2019/08/26  03:36:00  BASE  4.35708  336  5.08032  337  -0.2  100   -0.2  0     0     992.4    NA       0.0000   9999     950   0     0    
2019/08/26  03:37:00  BASE  4.11012  335  5.08032  337  -0.2  100   -0.2  0     0     992.4    NA       0.0000   9999     980   0     0    
2019/08/26  03:38:00  BASE  3.89256  336  5.08032  337  -0.2  100   -0.2  0     0     992.4    NA       0.0000   9999     1050  0     0    
2019/08/26  03:39:00  BASE  4.06308  339  5.08032  337  -0.2  100   -0.2  0     0     992.4    NA       0.0000   9999     920   0     0    
2019/08/26  03:40:00  BASE  4.1748   338  5.02152  335  -0.2  100   -0.2  0     0     992.5    NA       0.0000   9999     850   0     0    
2019/08/26  03:41:00  BASE  4.33944  336  5.02152  337  -0.2  100   -0.2  0     0     992.5    NA       0.0000   9999     890   0     0    
2019/08/26  03:42:00  BASE  4.40412  336  5.02152  337  -0.2  100   -0.2  0     0     992.5    NA       0.0000   9999     850   0     0    
2019/08/26  03:43:00  BASE  4.19244  337  5.02152  337  -0.2  100   -0.2  0     0     992.6    NA       0.0000   9999     790   0     0    
2019/08/26  03:44:00  BASE  4.46292  336  5.292    330  -0.2  100   -0.2  0     0     992.6    NA       0.0000   9999     660   0     0    
2019/08/26  03:45:00  BASE  4.9686   333  5.89764  337  -0.2  100   -0.2  0     0     992.6    NA       0.0000   9999     490   0     0    
2019/08/26  03:46:00  BASE  5.26848  335  5.89764  337  -0.2  100   -0.2  0     0     992.6    NA       0.0000   9999     300   0     0    
2019/08/26  03:47:00  BASE  5.41548  336  6.05052  338  -0.2  100   -0.2  0     0     992.6    NA       0.0000   8000     0     0     0    
2019/08/26  03:48:00  BASE  5.42724  334  6.05052  338  -0.2  100   -0.2  0     0     992.6    NA       0.0000   UP       7000  0     0    
2019/08/26  03:49:00  BASE  5.43312  335  6.44448  337  -0.2  100   -0.2  0     0     992.6    NA       0.0000   UP       BR    8000  0    
2019/08/26  03:50:00  BASE  5.62128  336  6.44448  337  -0.2  100   -0.2  0     0     992.6    NA       0.0000   UP       BR    8000  0    
2019/08/26  03:51:00  BASE  5.77416  337  6.44448  337  -0.2  100   -0.2  0     0     992.7    NA       0.0000   UP       BR    7000  0    
2019/08/26  03:52:00  BASE  5.75064  336  6.44448  337  -0.2  100   -0.2  0     0     992.7    NA       0.0000   -SN      BR    7000  0    
2019/08/26  03:53:00  BASE  5.7036   336  6.44448  337  -0.2  100   -0.2  0     0     992.7    NA       0.0000   -SN      BR    9999  0    
2019/08/26  03:54:00  BASE  5.32728  339  6.44448  337  -0.2  100   -0.2  0     0     992.7    NA       0.0000   -SN      BR    9999  0    
2019/08/26  03:55:00  BASE  5.10384  340  6.44448  337  -0.3  100   -0.3  0     0     992.8    NA       0.0000   -SN      BR    9999  0    
2019/08/26  03:56:00  BASE  5.2626   341  6.44448  337  -0.3  100   -0.3  0     0     992.7    NA       0.0000   -SN      BR    9999  300  
2019/08/26  03:57:00  BASE  5.41548  344  6.44448  337  -0.3  100   -0.3  0     0     992.7    NA       0.0000   -SN      BR    9999  720  
2019/08/26  03:58:00  BASE  5.50368  343  6.44448  337  -0.3  100   -0.3  0     0     992.8    NA       0.0000   -SN      9999  790   0    
2019/08/26  03:59:00  BASE  5.42724  341  6.07992  339  -0.3  100   -0.3  0     0     992.8    NA       0.0000   -SN      9999  790   0    
2019/08/26  04:00:00  BASE  5.25672  342  6.07992  339  -0.3  100   -0.3  0     0     992.8    NA       0.0000   -SN      9999  850   1510 
2019/08/26  04:01:00  BASE  5.2332   341  6.02112  345  -0.3  100   -0.3  0     0     992.8    NA       0.0000   -SN      9999  790   1380 
2019/08/26  04:02:00  BASE  5.07444  338  6.02112  345  -0.3  100   -0.3  0     0     992.8    NA       0.0000   -SN      9999  790   0    
2019/08/26  04:03:00  BASE  4.86276  338  6.02112  345  -0.3  100   -0.3  0     0     992.9    NA       0.0000   -SN      9999  790   1410 
2019/08/26  04:04:00  BASE  4.75692  340  6.02112  345  -0.4  100   -0.4  0     0     992.8    NA       0.0000   9999     1350  2300  0    
2019/08/26  04:05:00  BASE  4.65696  340  6.02112  345  -0.4  100   -0.4  0     0     992.9    NA       0.0000   9999     850   1570  0    
2019/08/26  04:06:00  BASE  4.53348  341  6.02112  345  -0.4  100   -0.4  0     0     992.9    NA       0.0000   9999     820   0     0    
2019/08/26  04:07:00  BASE  4.48644  343  5.86824  341  -0.4  100   -0.4  0     0     992.9    NA       0.0000   9999     820   0     0    
2019/08/26  04:08:00  BASE  4.78044  341  5.74476  344  -0.4  100   -0.4  0     0     992.9    NA       0.0000   9999     750   0     0    
2019/08/26  04:09:00  BASE  4.83336  340  5.65656  340  -0.4  100   -0.4  0     0     992.9    NA       0.0000   9999     790   2230  0    
2019/08/26  04:10:00  BASE  4.39236  340  5.65656  340  -0.4  100   -0.4  0     0     992.9    NA       0.0000   9999     790   0     0    
2019/08/26  04:11:00  BASE  4.13364  340  5.35668  336  -0.4  100   -0.4  0     0     992.9    NA       0.0000   9999     790   0     0    
2019/08/26  04:12:00  BASE  4.24536  340  5.35668  336  -0.4  100   -0.4  0     0     992.9    NA       0.0000   9999     750   0     0    
2019/08/26  04:13:00  BASE  4.15716  342  5.3214   347  -0.4  100   -0.4  0     0     992.9    NA       0.0000   9999     790   0     0    
2019/08/26  04:14:00  BASE  4.0572   341  5.2332   340  -0.4  100   -0.4  0     0     992.9    NA       0.0000   9999     790   0     0    
2019/08/26  04:15:00  BASE  4.23948  337  5.2332   340  -0.4  100   -0.4  0     0     992.9    NA       0.0000   9999     750   2130  0    
2019/08/26  04:16:00  BASE  4.23948  338  5.2332   340  -0.4  100   -0.4  0     0     992.9    NA       0.0000   9999     1150  1970  0    
2019/08/26  04:17:00  BASE  4.21008  340  5.2332   340  -0.4  100   -0.4  0     0     992.9    NA       0.0000   9999     890   2760  0    
2019/08/26  04:18:00  BASE  4.33356  341  5.02152  339  -0.4  100   -0.4  0     0     992.9    NA       0.0000   9999     750   0     0    
2019/08/26  04:19:00  BASE  4.39236  341  4.93332  333  -0.4  100   -0.4  0     0     992.9    NA       0.0000   9999     720   0     0    
2019/08/26  04:20:00  BASE  4.39236  341  4.93332  333  -0.4  100   -0.4  0     0     992.9    NA       0.0000   9999     750   0     0    
2019/08/26  04:21:00  BASE  4.65108  341  5.56836  339  -0.4  100   -0.4  0     0     992.9    NA       0.0000   9999     790   0     0    
2019/08/26  04:22:00  BASE  4.76868  339  5.56836  339  -0.4  100   -0.4  0     0     993.0    NA       0.0000   9999     750   2890  0    
2019/08/26  04:23:00  BASE  4.84512  338  5.56836  339  -0.4  100   -0.4  0     0     993.0    NA       0.0000   9999     750   2560  0    
2019/08/26  04:24:00  BASE  4.85688  336  5.56836  339  -0.4  100   -0.4  0     0     993.1    NA       0.0000   9999     750   0     0    
2019/08/26  04:25:00  BASE  5.00976  333  6.10932  324  -0.4  100   -0.4  0     0     993.1    NA       0.0000   9999     720   0     0    
2019/08/26  04:26:00  BASE  5.46252  331  6.10932  324  -0.4  100   -0.4  0     0     993.1    NA       0.0000   9999     750   0     0    
2019/08/26  04:27:00  BASE  5.3508   331  6.10932  324  -0.4  100   -0.4  0     0     993.2    NA       0.0000   9999     790   0     0    
2019/08/26  04:28:00  BASE  5.16852  333  6.10932  324  -0.5  100   -0.5  0     0     993.2    NA       0.0000   9999     850   0     0    
2019/08/26  04:29:00  BASE  4.9098   335  6.10932  324  -0.5  100   -0.5  0     0     993.2    NA       0.0000   9999     920   2560  0    
2019/08/26  04:30:00  BASE  4.65696  338  6.10932  324  -0.5  100   -0.5  0     0     993.2    NA       0.0000   9999     2490  0     0    
2019/08/26  04:31:00  BASE  5.16264  337  6.41508  331  -0.5  100   -0.5  0     0     993.2    NA       0.0000   9999     2660  0     0    
2019/08/26  04:32:00  BASE  5.75652  334  6.41508  331  -0.5  100   -0.5  0     0     993.2    NA       0.0000   9999     2130  2790  0    
2019/08/26  04:33:00  BASE  5.8506   334  6.41508  331  -0.5  100   -0.5  0     0     993.2    NA       0.0000   9999     2100  0     0    
2019/08/26  04:34:00  BASE  5.68008  334  6.41508  331  -0.5  100   -0.5  0     0     993.3    NA       0.0000   9999     2200  0     0    
2019/08/26  04:35:00  BASE  5.40372  333  6.41508  331  -0.5  100   -0.5  0     0     993.3    NA       0.0000   9999     2260  0     0    
2019/08/26  04:36:00  BASE  5.40372  333  6.41508  331  -0.5  100   -0.5  0     0     993.3    NA       0.0000   9999     1020  2230  0    
2019/08/26  04:37:00  BASE  5.3214   335  6.41508  331  -0.5  100   -0.5  0     0     993.4    NA       0.0000   9999     890   2400  0    
2019/08/26  04:38:00  BASE  4.92744  335  6.41508  331  -0.5  100   -0.5  0     0     993.4    NA       0.0000   9999     490   2490  0    
2019/08/26  04:39:00  BASE  4.78044  334  6.41508  331  -0.5  100   -0.5  0     0     993.4    NA       0.0000   9999     560   2490  0    
2019/08/26  04:40:00  BASE  4.74516  337  6.41508  331  -0.5  100   -0.5  0     0     993.4    NA       0.0000   9999     750   2360  0    
2019/08/26  04:41:00  BASE  4.7628   338  6.3504   333  -0.5  100   -0.5  0     0     993.5    NA       0.0000   9999     790   2360  0    
2019/08/26  04:42:00  BASE  4.77456  336  6.3504   333  -0.5  100   -0.5  0     0     993.5    NA       0.0000   9999     790   0     0    
2019/08/26  04:43:00  BASE  4.42176  336  5.95644  332  -0.5  100   -0.5  0     0     993.5    NA       0.0000   9999     820   0     0    
2019/08/26  04:44:00  BASE  4.46292  336  5.86824  330  -0.5  100   -0.5  0     0     993.5    NA       0.0000   9999     850   0     0    
2019/08/26  04:45:00  BASE  4.65696  336  5.86824  330  -0.5  100   -0.5  0     0     993.5    NA       0.0000   9999     820   0     0    
2019/08/26  04:46:00  BASE  4.59228  337  5.68596  332  -0.5  100   -0.5  0     0     993.5    NA       0.0000   9999     850   0     0    
2019/08/26  04:47:00  BASE  4.90392  336  5.74476  339  -0.5  100   -0.5  0     0     993.5    NA       0.0000   9999     820   0     0    
2019/08/26  04:48:00  BASE  5.1156   336  5.74476  339  -0.5  100   -0.5  0     0     993.5    NA       0.0000   9999     820   0     0    
2019/08/26  04:49:00  BASE  5.2038   338  5.74476  341  -0.5  100   -0.5  0     0     993.5    NA       0.0000   9999     890   2460  0    
2019/08/26  04:50:00  BASE  5.36844  339  5.74476  341  -0.5  100   -0.5  0     0     993.5    NA       0.0000   9999     920   2590  0    
2019/08/26  04:51:00  BASE  5.21556  338  5.74476  341  -0.5  100   -0.5  0     0     993.5    NA       0.0000   9999     820   2850  0    
2019/08/26  04:52:00  BASE  5.12148  336  5.74476  341  -0.5  100   -0.5  0     0     993.5    NA       0.0000   9999     850   2620  0    
2019/08/26  04:53:00  BASE  4.88628  335  5.74476  341  -0.5  100   -0.5  0     0     993.5    NA       0.0000   9999     790   2430  0    
2019/08/26  04:54:00  BASE  4.76868  336  5.74476  341  -0.5  100   -0.5  0     0     993.5    NA       0.0000   9999     790   2300  0    
2019/08/26  04:55:00  BASE  5.12148  332  5.74476  341  -0.5  100   -0.5  0     0     993.5    NA       0.0000   9999     2490  0     0    
2019/08/26  04:56:00  BASE  5.15088  326  5.74476  341  -0.6  100   -0.6  0     0     993.6    NA       0.0000   9999     2460  0     0    
2019/08/26  04:57:00  BASE  4.83924  325  5.74476  341  -0.6  100   -0.6  0     0     993.6    NA       0.0000   9999     2460  0     0    
2019/08/26  04:59:00  BASE  4.86276  325  5.78004  323  -0.6  100   -0.6  0     0     993.6    NA       0.0000   9999     2100  0     0    
2019/08/26  05:00:00  BASE  5.24496  323  5.95644  321  -0.6  100   -0.6  0     0     993.5    NA       0.0000   9999     2170  0     0    
2019/08/26  05:01:00  BASE  5.44488  322  6.13872  324  -0.6  100   -0.6  0     0     993.5    NA       0.0000   9999     2330  0     0    
2019/08/26  05:02:01  BASE  5.38608  322  6.13872  324  -0.6  100   -0.6  0     0     993.5    NA       0.0000   9999     2360  0     0    
2019/08/26  05:03:00  BASE  5.28612  322  6.13872  324  -0.6  100   -0.6  0     0     993.5    NA       0.0000   9999     2300  0     0    
2019/08/26  05:04:00  BASE  5.19204  323  6.13872  324  -0.5  100   -0.5  0     0     993.5    NA       0.0000   9999     2360  0     0    
2019/08/26  05:05:00  BASE  5.04504  323  6.13872  324  -0.5  100   -0.5  0     0     993.5    NA       0.0000   9999     2400  0     0    
2019/08/26  05:06:00  BASE  4.82748  323  6.13872  324  -0.5  100   -0.5  0     0     993.5    NA       0.0000   9999     2330  0     0    
2019/08/26  05:07:00  BASE  4.7334   325  6.13872  324  -0.5  100   -0.5  0     0     993.6    NA       0.0000   9999     2400  0     0    
2019/08/26  05:08:00  BASE  4.66872  329  6.13872  324  -0.5  100   -0.5  0     0     993.6    NA       0.0000   9999     2430  0     0    
2019/08/26  05:09:00  BASE  4.41     330  6.13872  324  -0.5  100   -0.5  0     0     993.6    NA       0.0000   9999     2400  0     0    
2019/08/26  05:10:00  BASE  4.25124  333  6.13872  324  -0.5  100   -0.5  0     0     993.6    NA       0.0000   9999     2400  0     0    
2019/08/26  05:11:00  BASE  4.19832  339  6.02112  325  -0.5  100   -0.5  0     0     993.6    NA       0.0000   9999     2360  0     0    
2019/08/26  05:12:00  BASE  4.2336   341  5.59776  324  -0.5  100   -0.5  0     0     993.7    NA       0.0000   9999     2400  0     0    
2019/08/26  05:13:00  BASE  4.19832  341  5.47428  321  -0.5  100   -0.5  0     0     993.7    NA       0.0000   9999     2400  0     0    
2019/08/26  05:14:00  BASE  4.06896  342  5.1744   326  -0.6  100   -0.6  0     0     993.7    NA       0.0000   9999     2360  0     0    
2019/08/26  05:15:00  BASE  4.16304  344  5.08032  324  -0.6  100   -0.6  0     0     993.7    NA       0.0000   9999     2430  0     0    
2019/08/26  05:16:00  BASE  4.2336   344  5.08032  324  -0.6  100   -0.6  0     0     993.7    NA       0.0000   9999     2430  0     0    
2019/08/26  05:17:00  BASE  4.19244  345  4.75104  331  -0.6  100   -0.6  0     0     993.7    NA       0.0000   9999     2330  0     0    
2019/08/26  05:18:00  BASE  4.06308  344  4.72164  340  -0.6  100   -0.6  0     0     993.7    NA       0.0000   9999     1180  2330  0    
2019/08/26  05:19:00  BASE  3.97488  345  4.72164  340  -0.6  100   -0.6  0     0     993.7    NA       0.0000   9999     2360  0     0    
2019/08/26  05:20:00  BASE  4.0572   346  4.72164  340  -0.6  100   -0.6  0     0     993.7    NA       0.0000   9999     2360  0     0    
2019/08/26  05:21:00  BASE  4.00428  347  4.72164  340  -0.6  100   -0.6  0     0     993.7    NA       0.0000   9999     2360  0     0    
2019/08/26  05:22:00  BASE  3.63972  346  4.72164  340  -0.6  100   -0.6  0     0     993.7    NA       0.0000   9999     2130  0     0    
2019/08/26  05:23:00  BASE  3.25752  344  4.72164  340  -0.6  100   -0.6  0     0     993.8    NA       0.0000   9999     2130  0     0    
2019/08/26  05:24:00  BASE  3.03408  345  4.72164  340  -0.6  100   -0.6  0     0     993.9    NA       0.0000   9999     2330  0     0    
2019/08/26  05:25:00  BASE  2.91648  345  4.53936  343  -0.6  100   -0.6  0     0     993.9    NA       0.0000   9999     2360  0     0    
2019/08/26  05:26:00  BASE  3.087    343  4.53936  343  -0.6  100   -0.6  0     0     993.9    NA       0.0000   9999     2400  0     0    
2019/08/26  05:27:00  BASE  3.49272  342  4.38648  348  -0.6  100   -0.6  0     0     993.9    NA       0.0000   9999     2330  0     0    
2019/08/26  05:28:00  BASE  3.51624  342  4.38648  348  -0.6  100   -0.6  0     0     993.8    NA       0.0000   9999     2430  0     0    
2019/08/26  05:29:00  BASE  3.38688  341  4.29828  347  -0.6  100   -0.6  0     0     993.7    NA       0.0000   9999     2560  0     0    
2019/08/26  05:30:00  BASE  3.42804  341  4.2042   347  -0.6  100   -0.6  0     0     993.7    NA       0.0000   9999     2490  0     0    
2019/08/26  05:31:00  BASE  3.42216  341  4.08072  344  -0.5  100   -0.5  0     0     993.7    NA       0.0000   9999     2660  0     0    
2019/08/26  05:32:00  BASE  3.51036  339  4.08072  344  -0.5  100   -0.5  0     0     993.7    NA       0.0000   9999     850   2790  0    
2019/08/26  05:33:00  BASE  3.63972  337  4.08072  336  -0.6  100   -0.6  0     0     993.7    NA       0.0000   9999     790   2850  0    
2019/08/26  05:34:00  BASE  3.9102   335  4.68636  344  -0.6  100   -0.6  0     0     993.7    NA       0.0000   9999     820   2850  0    
2019/08/26  05:35:00  BASE  3.88668  336  4.68636  344  -0.5  100   -0.5  0     0     993.8    NA       0.0000   9999     850   1480  0    
2019/08/26  05:36:00  BASE  3.72204  334  4.68636  344  -0.5  100   -0.5  0     0     993.8    NA       0.0000   9999     1350  0     0    
2019/08/26  05:37:00  BASE  3.675    334  4.68636  344  -0.5  100   -0.5  0     0     993.9    NA       0.0000   9999     1380  2720  0    
2019/08/26  05:38:00  BASE  3.74556  334  4.68636  344  -0.5  100   -0.5  0     0     993.9    NA       0.0000   9999     2620  0     0    
2019/08/26  05:39:00  BASE  4.07484  332  4.68636  344  -0.6  100   -0.6  0     0     993.9    NA       0.0000   9999     2590  0     0    
2019/08/26  05:40:00  BASE  4.22184  333  4.68636  344  -0.6  100   -0.6  0     0     993.9    NA       0.0000   9999     820   1800  0    
2019/08/26  05:41:00  BASE  4.11012  333  4.68636  344  -0.6  100   -0.6  0     0     993.9    NA       0.0000   9999     1800  2760  0    
2019/08/26  05:42:00  BASE  3.969    330  4.68636  344  -0.6  100   -0.6  0     0     993.9    NA       0.0000   9999     2660  0     0    
2019/08/26  05:43:00  BASE  4.01604  328  4.68636  344  -0.6  100   -0.6  0     0     993.9    NA       0.0000   9999     2720  0     0    
2019/08/26  05:44:00  BASE  4.01016  328  4.53936  338  -0.6  100   -0.6  0     0     993.9    NA       0.0000   9999     720   1670  0    
2019/08/26  05:45:00  BASE  3.89256  329  4.53936  338  -0.6  100   -0.6  0     0     993.9    NA       0.0000   9999     720   1670  0    
2019/08/26  05:46:00  BASE  3.89844  329  4.53936  338  -0.6  100   -0.6  0     0     993.9    NA       0.0000   9999     750   1640  0    
2019/08/26  05:47:00  BASE  3.9984   329  4.53936  338  -0.6  100   -0.6  0     0     993.9    NA       0.0000   9999     720   2890  0    
2019/08/26  05:48:00  BASE  4.09836  331  4.53936  338  -0.6  100   -0.6  0     0     993.9    NA       0.0000   9999     750   1800  0    
2019/08/26  05:49:00  BASE  4.07484  333  4.47468  337  -0.6  100   -0.6  0     0     993.9    NA       0.0000   9999     720   1440  0    
2019/08/26  05:50:00  BASE  3.95724  332  4.44528  332  -0.6  100   -0.6  0     0     993.9    NA       0.0000   9999     1480  0     0    
2019/08/26  05:51:00  BASE  3.7632   333  4.41588  330  -0.6  100   -0.6  0     0     994.0    NA       0.0000   9999     720   1800  0    
2019/08/26  05:52:00  BASE  3.528    333  4.41588  330  -0.6  100   -0.6  0     0     994.0    NA       0.0000   9999     1840  0     0    
2019/08/26  05:53:00  BASE  3.4104   334  4.35708  329  -0.6  100   -0.6  0     0     994.0    NA       0.0000   9999     790   1480  0    
2019/08/26  05:54:00  BASE  3.2928   336  4.35708  329  -0.6  100   -0.6  0     0     994.0    NA       0.0000   9999     850   0     0    
2019/08/26  05:55:00  BASE  3.21636  335  4.35708  329  -0.6  100   -0.6  0     0     994.0    NA       0.0000   9999     1080  0     0    
2019/08/26  05:56:00  BASE  3.12228  336  4.35708  329  -0.6  100   -0.6  0     0     994.1    NA       0.0000   9999     850   0     0    
2019/08/26  05:57:00  BASE  3.08112  337  4.35708  329  -0.6  100   -0.6  0     0     994.1    NA       0.0000   9999     820   0     0    
2019/08/26  05:58:01  BASE  3.12228  338  4.1748   333  -0.7  100   -0.7  0     0     994.1    NA       0.0000   9999     820   0     0    
2019/08/26  05:59:00  BASE  3.12228  339  4.116    332  -0.7  100   -0.7  0     0     994.1    NA       0.0000   9999     560   0     0    
2019/08/26  06:00:00  BASE  3.15168  339  3.78084  333  -0.7  100   -0.7  0     0     994.1    NA       0.0000   9999     300   0     0    
2019/08/26  06:01:00  BASE  3.16344  337  3.72204  328  -0.7  100   -0.7  0     0     994.1    NA       0.0000   8000     300   0     0    
2019/08/26  06:02:00  BASE  3.13992  333  3.56916  332  -0.7  100   -0.7  0     0     994.1    NA       0.0000   UP       BR    5000  0    
2019/08/26  06:03:00  BASE  3.01056  326  3.53976  330  -0.7  100   -0.7  0     0     994.1    NA       0.0000   UP       BR    4700  0    
2019/08/26  06:04:00  BASE  3.07524  321  3.65736  320  -0.7  100   -0.7  0     0     994.1    NA       0.0000   UP       BR    5000  360  
2019/08/26  06:05:00  BASE  3.33396  322  3.75144  317  -0.7  100   -0.7  0     0     994.1    NA       0.0000   UP       BR    5000  0    
2019/08/26  06:06:01  BASE  3.32808  321  3.75144  317  -0.7  100   -0.7  0     0     994.1    NA       0.0000   UP       BR    3300  0    
2019/08/26  06:07:00  BASE  3.18696  322  3.75144  317  -0.7  100   -0.7  0     0     994.1    NA       0.0000   UP       BR    2800  0    
2019/08/26  06:08:00  BASE  3.25752  327  3.93372  332  -0.7  100   -0.7  0     0     994.1    NA       0.0000   UP       BR    3600  0    
2019/08/26  06:09:00  BASE  3.42216  329  3.93372  332  -0.7  100   -0.7  0     0     994.2    NA       0.0000   UP       BR    5000  200  
2019/08/26  06:10:01  BASE  3.6456   330  4.02192  336  -0.7  100   -0.7  0     0     994.2    NA       0.0000   UP       BR    6000  0    
2019/08/26  06:11:00  BASE  3.65148  334  4.02192  336  -0.7  100   -0.7  0     0     994.2    NA       0.0000   UP       BR    6000  0    
2019/08/26  06:12:00  BASE  3.73968  336  4.47468  340  -0.7  100   -0.7  0     0     994.2    NA       0.0000   UP       BR    7000  230  
2019/08/26  06:13:00  BASE  4.05132  336  4.47468  340  -0.7  100   -0.7  0     0     994.2    NA       0.0000   UP       BR    7000  0    
2019/08/26  06:14:01  BASE  4.06896  337  4.47468  340  -0.7  100   -0.7  0     0     994.2    NA       0.0000   UP       BR    7000  0    
2019/08/26  06:15:00  BASE  3.91608  340  4.47468  340  -0.7  100   -0.7  0     0     994.2    NA       0.0000   UP       BR    7000  0    
2019/08/26  06:16:00  BASE  3.7632   343  4.47468  340  -0.7  100   -0.7  0     0     994.2    NA       0.0000   UP       BR    7000  0    
2019/08/26  06:17:00  BASE  3.69264  345  4.47468  340  -0.7  100   -0.7  0     0     994.2    NA       0.0000   UP       BR    8000  260  
2019/08/26  06:18:00  BASE  3.65148  345  4.47468  340  -0.7  100   -0.7  0     0     994.2    NA       0.0000   UP       BR    8000  330  
2019/08/26  06:19:00  BASE  3.47508  347  4.47468  340  -0.7  100   -0.7  0     0     994.2    NA       0.0000   UP       BR    8000  360  
2019/08/26  06:20:00  BASE  3.234    350  4.47468  340  -0.7  100   -0.7  0     0     994.2    NA       0.0000   UP       BR    9000  360  
2019/08/26  06:21:00  BASE  3.32808  349  4.47468  340  -0.7  100   -0.7  0     0     994.2    NA       0.0000   UP       BR    9999  360  
2019/08/26  06:22:00  BASE  3.42216  345  4.41588  334  -0.7  100   -0.7  0     0     994.2    NA       0.0000   UP       BR    9999  360  
2019/08/26  06:23:00  BASE  3.48684  341  4.263    340  -0.7  100   -0.7  0     0     994.2    NA       0.0000   UP       BR    9999  360  
2019/08/26  06:24:00  BASE  3.78084  339  4.29828  339  -0.7  100   -0.7  0     0     994.2    NA       0.0000   UP       BR    9999  2230 
2019/08/26  06:25:00  BASE  3.83964  340  4.29828  339  -0.7  100   -0.7  0     0     994.2    NA       0.0000   BR       9999  720   2100 
2019/08/26  06:26:00  BASE  3.62208  342  4.29828  339  -0.7  100   -0.7  0     0     994.2    NA       0.0000   9999     790   2330  0    
2019/08/26  06:27:00  BASE  3.35748  339  4.29828  339  -0.7  100   -0.7  0     0     994.2    NA       0.0000   9999     390   2300  0    
2019/08/26  06:28:00  BASE  3.25752  339  4.29828  339  -0.7  100   -0.7  0     0     994.2    NA       0.0000   9999     390   2330  0    
2019/08/26  06:29:00  BASE  3.3222   342  4.29828  339  -0.7  100   -0.7  0     0     994.3    NA       0.0000   9999     430   2260  0    
2019/08/26  06:30:00  BASE  3.38688  340  4.29828  339  -0.8  100   -0.8  0     0     994.3    NA       0.0000   9999     590   2460  0    
2019/08/26  06:31:00  BASE  3.49272  341  4.29828  339  -0.8  100   -0.8  0     0     994.4    NA       0.0000   9999     720   2360  0    
2019/08/26  06:32:00  BASE  3.54564  341  4.29828  339  -0.8  100   -0.8  0     0     994.4    NA       0.0000   9999     750   2430  0    
2019/08/26  06:33:00  BASE  3.4692   339  4.29828  339  -0.8  100   -0.8  0     0     994.4    NA       0.0000   9999     790   2460  0    
2019/08/26  06:34:00  BASE  3.39864  340  4.116    343  -0.8  100   -0.8  0     0     994.4    NA       0.0000   9999     790   2620  0    
2019/08/26  06:35:00  BASE  3.39276  342  3.86904  348  -0.8  100   -0.8  0     0     994.4    NA       0.0000   9999     820   2590  0    
2019/08/26  06:36:01  BASE  3.4692   343  3.81024  341  -0.8  100   -0.8  0     0     994.4    NA       0.0000   9999     820   0     0    
2019/08/26  06:37:01  BASE  3.52212  344  3.81024  341  -0.8  100   -0.8  0     0     994.4    NA       0.0000   9999     750   0     0    
2019/08/26  06:38:01  BASE  3.48096  342  3.81024  339  -0.8  100   -0.8  0     0     994.5    NA       0.0000   9999     790   0     0    
2019/08/26  06:39:01  BASE  3.51624  342  3.81024  339  -0.7  100   -0.7  0     0     994.5    NA       0.0000   9999     820   0     0    
2019/08/26  06:40:01  BASE  3.46332  342  3.81024  339  -0.7  100   -0.7  0     0     994.5    NA       0.0000   9999     850   0     0    
2019/08/26  06:41:01  BASE  3.381    342  3.81024  339  -0.7  100   -0.7  0     0     994.5    NA       0.0000   9999     820   0     0    
2019/08/26  06:42:01  BASE  3.24576  341  3.81024  339  -0.7  100   -0.7  0     0     994.5    NA       0.0000   9999     850   0     0    
2019/08/26  06:43:01  BASE  3.07524  343  3.81024  339  -0.7  100   -0.7  0     0     994.5    NA       0.0000   9999     850   0     0    
2019/08/26  06:44:01  BASE  3.06936  343  3.81024  339  -0.7  100   -0.7  0     0     994.5    NA       0.0000   9999     890   2620  0    
2019/08/26  06:45:01  BASE  3.07524  340  3.81024  339  -0.8  100   -0.8  0     0     994.5    NA       0.0000   9999     890   0     0    
2019/08/26  06:46:01  BASE  2.99292  339  3.81024  339  -0.8  100   -0.8  0     0     994.5    NA       0.0000   9999     920   0     0    
2019/08/26  06:47:01  BASE  2.84004  339  3.81024  339  -0.8  100   -0.8  0     0     994.5    NA       0.0000   9999     920   0     0    
2019/08/26  06:48:01  BASE  2.68716  339  3.75144  338  -0.8  100   -0.8  0     0     994.5    NA       0.0000   9999     920   0     0    
2019/08/26  06:49:01  BASE  2.56368  339  3.62796  336  -0.8  100   -0.8  0     0     994.5    NA       0.0000   9999     980   0     0    
2019/08/26  06:50:01  BASE  2.46372  340  3.56916  340  -0.8  100   -0.8  0     0     994.5    NA       0.0000   9999     980   2530  0    
2019/08/26  06:51:01  BASE  2.48136  341  3.26928  337  -0.8  100   -0.8  0     0     994.5    NA       0.0000   9999     1150  2690  0    
2019/08/26  06:52:01  BASE  2.65188  341  3.26928  337  -0.8  100   -0.8  0     0     994.5    NA       0.0000   9999     1080  2490  0    
2019/08/26  06:53:01  BASE  2.85768  344  3.26928  337  -0.8  100   -0.8  0     0     994.5    NA       0.0000   9999     2560  0     0    
2019/08/26  06:54:01  BASE  2.97528  345  3.234    345  -0.8  100   -0.8  0     0     994.5    NA       0.0000   9999     2490  0     0    
2019/08/26  06:55:01  BASE  2.95764  345  3.234    345  -0.8  100   -0.8  0     0     994.5    NA       0.0000   9999     2490  0     0    
2019/08/26  06:56:01  BASE  2.89296  344  3.234    345  -0.8  100   -0.8  0     0     994.5    NA       0.0000   9999     2590  0     0    
2019/08/26  06:57:01  BASE  2.7636   344  3.234    345  -0.8  100   -0.8  0     0     994.5    NA       0.0000   9999     2400  0     0    
2019/08/26  06:58:01  BASE  2.60484  346  3.234    345  -0.8  100   -0.8  0     0     994.5    NA       0.0000   9999     2400  0     0    
2019/08/26  06:59:01  BASE  2.4402   347  3.234    345  -0.8  100   -0.8  0     0     994.5    NA       0.0000   9999     2300  0     0    
2019/08/26  07:00:01  BASE  2.22264  346  3.234    345  -0.8  100   -0.8  0     0     994.5    NA       0.0000   9999     2300  0     0    
2019/08/26  07:01:01  BASE  2.06976  345  3.234    345  -0.8  100   -0.8  0     0     994.5    NA       0.0000   9999     2230  0     0    
2019/08/26  07:02:01  BASE  2.02272  346  3.234    345  -0.8  100   -0.8  0     0     994.5    NA       0.0000   9999     2660  0     0    
2019/08/26  07:03:01  BASE  2.11092  347  3.234    345  -0.8  100   -0.8  0     0     994.5    NA       0.0000   9999     2720  0     0    
2019/08/26  07:04:01  BASE  2.18736  350  3.1164   339  -0.8  100   -0.8  0     0     994.5    NA       0.0000   9999     2720  0     0    
2019/08/26  07:05:01  BASE  2.15796  350  3.1164   339  -0.8  100   -0.8  0     0     994.5    NA       0.0000   9999     2660  0     0    
2019/08/26  07:06:01  BASE  2.19912  350  2.81064  349  -0.8  100   -0.8  0     0     994.5    NA       0.0000   9999     2660  0     0    
2019/08/26  07:07:01  BASE  2.33436  351  2.81064  349  -0.8  100   -0.8  0     0     994.5    NA       0.0000   9999     2690  0     0    
2019/08/26  07:08:01  BASE  2.56368  351  2.96352  354  -0.8  100   -0.8  0     0     994.5    NA       0.0000   9999     2690  0     0    
2019/08/26  07:09:01  BASE  2.68716  349  2.96352  354  -0.8  100   -0.8  0     0     994.5    NA       0.0000   9999     2760  0     0    
2019/08/26  07:10:01  BASE  2.6166   348  2.96352  354  -0.8  100   -0.8  0     0     994.5    NA       0.0000   9999     2760  0     0    
2019/08/26  07:11:01  BASE  2.58132  348  2.96352  354  -0.7  100   -0.7  0     0     994.5    NA       0.0000   9999     2760  0     0    
2019/08/26  07:12:01  BASE  2.5578   346  2.96352  354  -0.7  100   -0.7  0     0     994.5    NA       0.0000   9999     1540  0     0    
2019/08/26  07:13:01  BASE  2.5578   346  2.96352  354  -0.7  100   -0.7  0     0     994.5    NA       0.0000   9999     1510  2820  0    
2019/08/26  07:14:01  BASE  2.59896  345  2.96352  354  -0.7  100   -0.7  0     0     994.5    NA       0.0000   9999     1510  2720  0    
2019/08/26  07:15:01  BASE  2.69892  342  3.02232  340  -0.8  100   -0.8  0     0     994.6    NA       0.0000   9999     1480  2760  0    
2019/08/26  07:16:01  BASE  2.81652  340  3.02232  340  -0.8  100   -0.8  0     0     994.6    NA       0.0000   9999     2690  0     0    
2019/08/26  07:17:01  BASE  2.78712  339  3.02232  340  -0.8  100   -0.8  0     0     994.6    NA       0.0000   9999     2590  0     0    
2019/08/26  07:18:01  BASE  2.81064  340  3.1752   344  -0.8  100   -0.8  0     0     994.6    NA       0.0000   9999     2530  0     0    
2019/08/26  07:19:01  BASE  2.95176  341  3.1752   344  -0.8  100   -0.8  0     0     994.6    NA       0.0000   9999     2590  0     0    
2019/08/26  07:20:01  BASE  2.91648  341  3.1752   344  -0.7  100   -0.7  0     0     994.6    NA       0.0000   9999     2560  0     0    
2019/08/26  07:21:01  BASE  2.82828  339  3.1752   344  -0.7  100   -0.7  0     0     994.6    NA       0.0000   9999     2660  0     0    
2019/08/26  07:22:01  BASE  2.74596  339  3.1752   344  -0.7  100   -0.7  0     0     994.6    NA       0.0000   9999     2660  0     0    
2019/08/26  07:23:01  BASE  2.63424  340  3.1752   344  -0.7  100   -0.7  0     0     994.6    NA       0.0000   9999     2690  0     0    
2019/08/26  07:24:01  BASE  2.5284   342  3.1752   344  -0.7  100   -0.7  0     0     994.6    NA       0.0000   9999     2720  0     0    
2019/08/26  07:25:01  BASE  2.352    343  3.1752   344  -0.7  100   -0.7  0     0     994.6    NA       0.0000   9999     2690  0     0    
2019/08/26  07:26:01  BASE  2.24616  342  3.1752   344  -0.7  100   -0.7  0     0     994.6    NA       0.0000   9999     2690  0     0    
2019/08/26  07:27:01  BASE  2.18148  343  3.1752   344  -0.7  100   -0.7  0     0     994.6    NA       0.0000   9999     2720  0     0    
2019/08/26  07:28:01  BASE  2.04624  344  3.1458   340  -0.7  100   -0.7  0     0     994.6    NA       0.0000   9999     2720  0     0    
2019/08/26  07:29:01  BASE  2.01096  345  3.1458   340  -0.7  100   -0.7  0     0     994.6    NA       0.0000   9999     2720  0     0    
2019/08/26  07:30:01  BASE  2.14032  347  3.1458   340  -0.7  100   -0.7  0     0     994.6    NA       0.0000   9999     2620  0     0    
2019/08/26  07:31:01  BASE  2.19324  348  2.75184  338  -0.7  100   -0.7  0     0     994.6    NA       0.0000   9999     2590  0     0    
2019/08/26  07:32:01  BASE  2.13444  349  2.69304  340  -0.7  100   -0.7  0     0     994.6    NA       0.0000   9999     2620  0     0    
2019/08/26  07:33:01  BASE  2.058    351  2.54016  344  -0.6  100   -0.6  0     0     994.6    NA       0.0000   9999     2620  0     0    
2019/08/26  07:34:01  BASE  2.02272  350  2.42256  349  -0.6  100   -0.6  0     0     994.6    NA       0.0000   9999     2620  0     0    
2019/08/26  07:35:01  BASE  2.06976  351  2.42256  349  -0.6  100   -0.6  0     0     994.6    NA       0.0000   9999     2620  0     0    
2019/08/26  07:36:01  BASE  2.1168   358  2.42256  349  -0.6  100   -0.6  0     0     994.6    NA       0.0000   9999     2620  0     0    
2019/08/26  07:37:01  BASE  1.95216  358  2.42256  349  -0.6  100   -0.6  0     0     994.6    NA       0.0000   9999     2590  0     0    
2019/08/26  07:38:01  BASE  1.87572  355  2.42256  349  -0.6  100   -0.6  0     0     994.6    NA       0.0000   9999     2560  0     0    
2019/08/26  07:39:01  BASE  2.04036  354  2.42256  349  -0.6  100   -0.6  0     0     994.6    NA       0.0000   9999     2490  0     0    
2019/08/26  07:40:01  BASE  2.04036  351  2.42256  349  -0.6  100   -0.6  0     0     994.6    NA       0.0000   9999     2460  0     0    
2019/08/26  07:41:01  BASE  1.95216  357  2.29908  355  -0.6  100   -0.6  0     0     994.6    NA       0.0000   9999     2590  0     0    
2019/08/26  07:42:01  BASE  1.89924  4    2.29908  355  -0.6  100   -0.6  0     0     994.7    NA       0.0000   9999     1380  2490  0    
2019/08/26  07:43:01  BASE  1.75224  3    2.29908  355  -0.6  100   -0.6  0     0     994.7    NA       0.0000   9999     2560  0     0    
2019/08/26  07:44:01  BASE  1.69932  0    2.29908  355  -0.6  100   -0.6  0     0     994.7    NA       0.0000   9999     2560  0     0    
2019/08/26  07:45:01  BASE  1.76988  358  2.24028  348  -0.6  100   -0.6  0     0     994.7    NA       0.0000   9999     2530  0     0    
2019/08/26  07:46:01  BASE  1.66992  359  2.21088  350  -0.6  100   -0.6  0     0     994.7    NA       0.0000   9999     2400  0     0    
2019/08/26  07:47:01  BASE  1.5876   1    2.21088  350  -0.6  100   -0.6  0     0     994.7    NA       0.0000   9999     2360  0     0    
2019/08/26  07:48:01  BASE  1.59936  358  2.21088  350  -0.5  100   -0.5  0     0     994.7    NA       0.0000   9999     2300  0     0    
2019/08/26  07:49:01  BASE  1.45824  357  2.1462   352  -0.5  100   -0.5  0     0     994.7    NA       0.0000   9999     2300  0     0    
2019/08/26  07:50:01  BASE  1.27596  355  1.9992   360  -0.5  100   -0.5  0     0     994.7    NA       0.0000   9999     2300  0     0    
2019/08/26  07:51:01  BASE  1.22892  353  1.96392  1    -0.5  100   -0.5  0     0     994.7    NA       0.0000   9999     2300  0     0    
2019/08/26  07:52:01  BASE  1.22304  353  1.87572  1    -0.5  100   -0.5  0     0     994.7    NA       0.0000   9999     2360  0     0    
2019/08/26  07:53:01  BASE  1.18188  356  1.87572  1    -0.5  100   -0.5  0     0     994.7    NA       0.0000   9999     2360  0     0    
2019/08/26  07:54:01  BASE  1.35828  356  2.0286   350  -0.6  100   -0.6  0     0     994.7    NA       0.0000   9999     2300  0     0    
2019/08/26  07:55:01  BASE  1.61112  355  2.0286   350  -0.6  100   -0.6  0     0     994.7    NA       0.0000   9999     2300  0     0    
2019/08/26  07:56:01  BASE  1.6758   357  2.0286   350  -0.6  100   -0.6  0     0     994.7    NA       0.0000   9999     2460  0     0    
2019/08/26  07:57:01  BASE  1.7346   358  2.0286   350  -0.6  100   -0.6  0     0     994.7    NA       0.0000   9999     2430  0     0    
2019/08/26  07:58:01  BASE  1.617    355  2.0286   350  -0.6  100   -0.6  0     0     994.7    NA       0.0000   9999     2460  0     0    
2019/08/26  07:59:01  BASE  1.5582   355  2.0286   350  -0.6  100   -0.6  0     0     994.7    NA       0.0000   9999     2490  0     0    
2019/08/26  08:00:01  BASE  1.92276  358  2.56956  360  -0.7  100   -0.7  0     0     994.7    NA       0.0000   9999     2530  0     0    
2019/08/26  08:01:01  BASE  2.27556  358  2.63424  351  -0.7  100   -0.7  0     0     994.7    NA       0.0000   9999     2490  0     0    
2019/08/26  08:02:01  BASE  2.499    356  2.93412  3    -0.6  100   -0.6  0     0     994.7    NA       0.0000   9999     2400  0     0    
2019/08/26  08:03:01  BASE  2.59308  1    2.93412  3    -0.6  100   -0.6  0     0     994.7    NA       0.0000   9999     2360  0     0    
2019/08/26  08:04:01  BASE  2.45784  6    2.93412  3    -0.6  100   -0.6  0     0     994.7    NA       0.0000   9999     2360  0     0    
2019/08/26  08:05:01  BASE  2.22852  8    2.93412  3    -0.6  100   -0.6  0     0     994.7    NA       0.0000   9999     2360  0     0    
2019/08/26  08:06:01  BASE  2.09328  11   2.93412  3    -0.6  100   -0.6  0     0     994.7    NA       0.0000   9999     2430  0     0    
2019/08/26  08:07:01  BASE  2.10504  12   2.93412  3    -0.6  100   -0.6  0     0     994.7    NA       0.0000   9999     2460  0     0    
2019/08/26  08:08:01  BASE  2.09328  10   2.93412  3    -0.6  100   -0.6  0     0     994.7    NA       0.0000   9999     2430  0     0    
2019/08/26  08:09:01  BASE  1.8522   11   2.93412  3    -0.6  100   -0.6  0     0     994.7    NA       0.0000   9999     2460  0     0    
2019/08/26  08:10:01  BASE  1.81692  16   2.93412  3    -0.6  100   -0.6  0     0     994.7    NA       0.0000   9999     2460  0     0    
2019/08/26  08:11:01  BASE  2.0286   21   2.93412  3    -0.7  100   -0.7  0     0     994.7    NA       0.0000   9999     2460  0     0    
2019/08/26  08:12:01  BASE  2.05212  20   2.87532  15   -0.7  100   -0.7  0     0     994.7    NA       0.0000   9999     2490  0     0    
2019/08/26  08:13:01  BASE  1.95804  16   2.63424  3    -0.7  100   -0.7  0     0     994.7    NA       0.0000   9999     2460  0     0    
2019/08/26  08:14:01  BASE  1.84044  10   2.42256  3    -0.6  100   -0.6  0     0     994.7    NA       0.0000   9999     2460  0     0    
2019/08/26  08:15:00  BASE  1.71108  9    2.29908  18   -0.6  100   -0.6  0     0     994.7    NA       0.0000   9999     2400  0     0    
2019/08/26  08:16:01  BASE  1.43472  12   2.26968  15   -0.5  100   -0.5  0     0     994.7    NA       0.0000   9999     2360  0     0    
2019/08/26  08:17:00  BASE  1.21128  16   2.26968  15   -0.5  100   -0.5  0     0     994.7    NA       0.0000   9999     2490  0     0    
2019/08/26  08:18:01  BASE  0.78204  16   2.26968  15   -0.5  100   -0.5  0     0     994.7    NA       0.0000   9999     2490  0     0    
2019/08/26  08:19:01  BASE  0.54684  13   2.26968  15   -0.5  100   -0.5  0     0     994.7    NA       0.0000   9999     2490  0     0    
2019/08/26  08:20:01  BASE  0.68208  18   2.26968  15   -0.5  100   -0.5  0     0     994.7    NA       0.0000   9999     2360  0     0    
2019/08/26  08:21:01  BASE  0.51744  28   2.26968  15   -0.5  100   -0.5  0     0     994.7    NA       0.0000   9999     2400  0     0    
2019/08/26  08:22:01  BASE  0.45276  30   2.0286   3    -0.5  100   -0.5  0     0     994.7    NA       0.0000   9999     2430  0     0    
2019/08/26  08:23:00  BASE  0.81144  18   1.96392  4    -0.5  100   -0.5  0     0     994.7    NA       0.0000   9999     2460  0     0    
2019/08/26  08:24:01  BASE  1.37592  4    2.1168   5    -0.5  100   -0.5  0     0     994.7    NA       0.0000   9999     2360  0     0    
2019/08/26  08:25:00  BASE  1.59936  357  2.1168   5    -0.5  100   -0.5  0     0     994.7    NA       0.0000   9999     2330  0     0    
2019/08/26  08:26:00  BASE  1.323    349  2.1168   5    -0.5  100   -0.5  0     0     994.7    NA       0.0000   9999     2360  0     0    
2019/08/26  08:27:00  BASE  1.01136  340  2.1168   5    -0.4  100   -0.4  0     0     994.7    NA       0.0000   9999     2430  0     0    
2019/08/26  08:28:01  BASE  0.89964  325  2.1168   5    -0.4  100   -0.4  0     0     994.7    NA       0.0000   9999     2490  0     0    
2019/08/26  08:29:01  BASE  1.05252  304  2.1168   5    -0.4  100   -0.4  0     0     994.7    NA       0.0000   9999     2460  0     0    
2019/08/26  08:30:01  BASE  1.24068  300  2.1168   5    -0.5  100   -0.5  0     0     994.7    NA       0.0000   9999     2460  0     0    
2019/08/26  08:31:01  BASE  1.33476  309  2.1168   5    -0.5  100   -0.5  0     0     994.7    NA       0.0000   9999     2490  0     0    
2019/08/26  08:32:01  BASE  1.4994   312  2.1168   5    -0.6  100   -0.6  0     0     994.7    NA       0.0000   9999     2430  0     0    
2019/08/26  08:33:01  BASE  1.48176  306  2.1168   5    -0.6  100   -0.6  0     0     994.7    NA       0.0000   9999     2530  0     0    
2019/08/26  08:34:01  BASE  1.37592  302  1.81692  306  -0.7  100   -0.7  0     0     994.7    NA       0.0000   9999     2460  0     0    
2019/08/26  08:35:01  BASE  1.35828  305  1.81692  306  -0.7  100   -0.7  0     0     994.7    NA       0.0000   9999     2460  0     0    
2019/08/26  08:36:01  BASE  1.30536  309  1.81692  306  -0.7  100   -0.7  0     0     994.7    NA       0.0000   9999     2430  0     0    
2019/08/26  08:37:01  BASE  1.44648  317  1.84632  326  -0.7  100   -0.7  0     0     994.7    NA       0.0000   9999     2430  0     0    
2019/08/26  08:38:01  BASE  1.66992  331  2.0286   340  -0.7  100   -0.7  0     0     994.7    NA       0.0000   9999     2400  0     0    
2019/08/26  08:39:01  BASE  1.84632  340  2.0874   342  -0.7  100   -0.7  0     0     994.7    NA       0.0000   9999     2400  0     0    
2019/08/26  08:40:01  BASE  2.00508  344  2.24028  350  -0.7  100   -0.7  0     0     994.7    NA       0.0000   9999     2330  0     0    
2019/08/26  08:41:01  BASE  2.25792  344  2.72244  345  -0.7  100   -0.7  0     0     994.7    NA       0.0000   9999     2300  0     0    
2019/08/26  08:42:01  BASE  2.7048   343  3.2046   343  -0.7  100   -0.7  0     0     994.8    NA       0.0000   9999     2400  0     0    
2019/08/26  08:43:01  BASE  3.07524  343  3.234    344  -0.7  100   -0.7  0     0     994.8    NA       0.0000   9999     2430  0     0    
2019/08/26  08:44:01  BASE  3.09288  345  3.234    344  -0.7  100   -0.7  0     0     994.8    NA       0.0000   9999     2400  0     0    
2019/08/26  08:45:01  BASE  2.99292  345  3.234    344  -0.7  100   -0.7  0     0     994.8    NA       0.0000   9999     2400  0     0    
2019/08/26  08:46:01  BASE  2.78124  342  3.234    344  -0.7  100   -0.7  0     0     994.8    NA       0.0000   9999     2330  0     0    
2019/08/26  08:47:01  BASE  2.18148  334  3.234    344  -0.8  100   -0.8  0     0     994.8    NA       0.0000   9999     2400  0     0    
2019/08/26  08:48:01  BASE  1.81104  331  3.234    344  -0.8  100   -0.8  0     0     994.9    NA       0.0000   9999     2430  0     0    
2019/08/26  08:49:01  BASE  1.89336  338  3.234    344  -0.8  100   -0.8  0     0     994.8    NA       0.0000   9999     2430  0     0    
2019/08/26  08:50:00  BASE  2.09328  344  3.234    344  -0.9  100   -0.9  0     0     994.9    NA       0.0000   9999     2360  0     0    
2019/08/26  08:51:01  BASE  2.18148  348  3.234    344  -0.9  100   -0.9  0     0     994.9    NA       0.0000   9999     2360  0     0    
2019/08/26  08:52:01  BASE  2.04624  349  3.234    344  -0.9  100   -0.9  0     0     994.9    NA       0.0000   9999     2400  0     0    
2019/08/26  08:53:00  BASE  1.92864  347  3.1164   346  -0.9  100   -0.9  0     0     994.9    NA       0.0000   9999     2430  0     0    
2019/08/26  08:54:01  BASE  1.80516  344  3.087    343  -0.9  100   -0.9  0     0     994.9    NA       0.0000   9999     2360  0     0    
2019/08/26  08:55:00  BASE  1.62288  342  2.96352  345  -0.9  100   -0.9  0     0     994.9    NA       0.0000   9999     2300  0     0    
2019/08/26  08:56:01  BASE  1.50528  343  2.51076  346  -0.9  100   -0.9  0     0     994.9    NA       0.0000   9999     2360  0     0    
2019/08/26  08:57:00  BASE  1.34064  340  2.51076  346  -0.9  100   -0.9  0     0     994.9    NA       0.0000   9999     2430  0     0    
2019/08/26  08:58:01  BASE  0.93492  340  2.51076  346  -0.9  100   -0.9  0     0     994.9    NA       0.0000   9999     2430  0     0    
2019/08/26  08:59:00  BASE  0.34104  345  2.51076  346  -0.9  100   -0.9  0     0     994.9    NA       0.0000   9999     2430  0     0    
2019/08/26  09:00:00  BASE  0.39396  317  2.24028  353  -0.8  100   -0.8  0     0     994.9    NA       0.0000   9999     2360  0     0    
2019/08/26  09:01:00  BASE  0.9114   306  2.1756   353  -0.8  100   -0.8  0     0     994.9    NA       0.0000   9999     2360  0     0    
2019/08/26  09:02:00  BASE  1.02312  310  2.1462   343  -0.7  100   -0.7  0     0     994.9    NA       0.0000   9999     2360  0     0    
2019/08/26  09:03:00  BASE  1.05252  290  1.9992   337  -0.7  100   -0.7  0     0     994.8    NA       0.0000   9999     2360  0     0    
2019/08/26  09:04:01  BASE  1.12308  285  1.63464  340  -0.6  100   -0.6  0     0     994.8    NA       0.0000   9999     2400  0     0    
2019/08/26  09:05:00  BASE  1.06428  298  1.60524  291  -0.6  100   -0.6  0     0     994.9    NA       0.0000   9999     2460  0     0    
2019/08/26  09:06:01  BASE  1.01136  289  1.60524  291  -0.5  100   -0.5  0     0     994.9    NA       0.0000   9999     2490  0     0    
2019/08/26  09:07:00  BASE  0.98196  275  1.60524  291  -0.5  100   -0.5  0     0     994.9    NA       0.0000   9999     2490  0     0    
2019/08/26  09:08:01  BASE  0.98196  294  1.60524  291  -0.5  100   -0.5  0     0     994.9    NA       0.0000   9999     2460  0     0    
2019/08/26  09:09:00  BASE  1.176    318  1.60524  291  -0.6  100   -0.6  0     0     994.9    NA       0.0000   9999     2400  0     0    
2019/08/26  09:10:00  BASE  1.03488  328  1.60524  291  -0.6  100   -0.6  0     0     994.9    NA       0.0000   9999     2430  0     0    
2019/08/26  09:11:00  BASE  0.91728  326  1.60524  291  -0.6  100   -0.6  0     0     994.9    NA       0.0000   9999     2300  0     0    
2019/08/26  09:12:01  BASE  1.01136  312  1.60524  291  -0.7  100   -0.7  0     0     994.9    NA       0.0000   9999     2230  0     0    
2019/08/26  09:13:00  BASE  0.95256  306  1.60524  291  -0.7  100   -0.7  0     0     995.0    NA       0.0000   9999     2330  0     0    
2019/08/26  09:14:01  BASE  1.0584   316  1.42296  327  -0.7  100   -0.7  0     0     995.1    NA       0.0000   9999     2460  0     0    
2019/08/26  09:15:00  BASE  1.11132  322  1.42296  327  -0.7  100   -0.7  0     0     995.1    NA       0.0000   9999     2430  0     0    
2019/08/26  09:16:00  BASE  1.13484  324  1.51116  335  -0.8  100   -0.8  0     0     995.1    NA       0.0000   9999     2330  0     0    
2019/08/26  09:17:00  BASE  1.38768  332  1.66404  331  -0.8  100   -0.8  0     0     995.2    NA       0.0000   9999     2330  0     0    
2019/08/26  09:18:01  BASE  1.65816  341  1.96392  345  -0.8  100   -0.8  0     0     995.2    NA       0.0000   9999     2360  0     0    
2019/08/26  09:19:01  BASE  1.98156  347  2.32848  348  -0.8  100   -0.8  0     0     995.2    NA       0.0000   9999     2400  0     0    
2019/08/26  09:20:00  BASE  2.2344   347  2.42256  350  -0.8  100   -0.8  0     0     995.2    NA       0.0000   9999     2360  0     0    
2019/08/26  09:21:00  BASE  2.21676  346  2.42256  350  -0.8  100   -0.8  0     0     995.2    NA       0.0000   9999     2330  0     0    
2019/08/26  09:22:01  BASE  1.9992   345  2.42256  350  -0.7  100   -0.7  0     0     995.1    NA       0.0000   9999     2400  0     0    
2019/08/26  09:23:00  BASE  1.69344  346  2.42256  350  -0.7  100   -0.7  0     0     995.1    NA       0.0000   9999     2330  0     0    
2019/08/26  09:24:01  BASE  1.65228  346  2.42256  350  -0.7  100   -0.7  0     0     995.1    NA       0.0000   9999     2300  0     0    
2019/08/26  09:25:00  BASE  1.56408  340  2.42256  350  -0.8  100   -0.8  0     0     995.1    NA       0.0000   9999     2360  0     0    
2019/08/26  09:26:00  BASE  1.1466   323  2.42256  350  -0.8  100   -0.8  0     0     995.1    NA       0.0000   9999     2360  0     0    
2019/08/26  09:27:00  BASE  0.7056   309  2.42256  350  -0.8  100   -0.8  0     0     995.2    NA       0.0000   9999     2360  0     0    
2019/08/26  09:28:01  BASE  0.74676  305  2.42256  350  -0.9  100   -0.9  0     0     995.2    NA       0.0000   9999     2360  0     0    
2019/08/26  09:29:00  BASE  1.3524   307  2.42256  350  -0.9  100   -0.9  0     0     995.2    NA       0.0000   9999     2330  0     0    
2019/08/26  09:30:00  BASE  1.8228   319  2.24028  319  -0.9  100   -0.9  0     0     995.3    NA       0.0000   9999     2400  0     0    
2019/08/26  09:31:00  BASE  1.87572  332  2.24028  319  -0.9  100   -0.9  0     0     995.3    NA       0.0000   9999     2330  0     0    
2019/08/26  09:32:00  BASE  1.97568  341  2.35788  353  -0.9  100   -0.9  0     0     995.3    NA       0.0000   9999     2330  0     0    
2019/08/26  09:33:00  BASE  2.07564  346  2.35788  353  -0.8  100   -0.8  0     0     995.3    NA       0.0000   9999     2360  0     0    
2019/08/26  09:34:00  BASE  2.06976  347  2.35788  353  -0.8  100   -0.8  0     0     995.3    NA       0.0000   9999     2300  0     0    
2019/08/26  09:35:00  BASE  2.14032  348  2.42256  347  -0.7  100   -0.7  0     0     995.3    NA       0.0000   9999     2260  0     0    
2019/08/26  09:36:00  BASE  2.10504  342  2.42256  347  -0.7  100   -0.7  0     0     995.3    NA       0.0000   9999     2260  0     0    
2019/08/26  09:37:00  BASE  1.95216  331  2.42256  347  -0.6  100   -0.6  0     0     995.3    NA       0.0000   9999     2260  0     0    
2019/08/26  09:38:00  BASE  1.77576  330  2.42256  347  -0.5  100   -0.5  0     0     995.3    NA       0.0000   9999     2260  0     0    
2019/08/26  09:39:00  BASE  1.68168  330  2.42256  347  -0.4  100   -0.4  0     0     995.3    NA       0.0000   9999     2260  0     0    
2019/08/26  09:40:00  BASE  1.50528  334  2.42256  347  -0.4  100   -0.4  0     0     995.3    NA       0.0000   9999     2260  0     0    
2019/08/26  09:41:00  BASE  1.45236  350  2.42256  347  -0.4  99    -0.5  0     0     995.3    NA       0.0000   9999     2300  0     0    
2019/08/26  09:42:01  BASE  1.47588  352  2.42256  347  -0.4  99    -0.5  0     0     995.3    NA       0.0000   9999     2330  0     0    
2019/08/26  09:43:00  BASE  1.5288   351  2.42256  347  -0.4  98    -0.6  0     0     995.4    NA       0.0000   9999     2360  0     0    
2019/08/26  09:44:01  BASE  1.72284  353  2.42256  347  -0.4  98    -0.7  0     0     995.4    NA       0.0000   9999     2070  0     0    
2019/08/26  09:45:00  BASE  1.64052  350  2.26968  327  -0.4  97    -0.8  0     0     995.4    NA       0.0000   9999     2070  0     0    
2019/08/26  09:46:00  BASE  1.60524  347  2.1462   352  -0.4  97    -0.8  0     0     995.4    NA       0.0000   9999     2100  0     0    
2019/08/26  09:47:00  BASE  1.62288  340  2.1462   352  -0.4  96    -0.9  0     0     995.4    NA       0.0000   9999     2130  0     0    
2019/08/26  09:48:00  BASE  1.71108  337  2.1756   336  -0.4  96    -0.9  0     0     995.4    NA       0.0000   9999     2230  0     0    
2019/08/26  09:49:01  BASE  1.81692  332  2.1756   336  -0.4  96    -1.0  0     0     995.4    NA       0.0000   9999     2260  0     0    
2019/08/26  09:50:00  BASE  1.71696  326  2.1756   336  -0.5  96    -1.0  0     0     995.4    NA       0.0000   9999     2200  0     0    
2019/08/26  09:51:00  BASE  1.74636  326  2.1756   336  -0.5  97    -1.0  0     0     995.4    NA       0.0000   9999     2130  0     0    
2019/08/26  09:52:01  BASE  1.65228  330  2.1756   336  -0.6  97    -1.0  0     0     995.4    NA       0.0000   9999     2170  0     0    
2019/08/26  09:53:00  BASE  1.58172  332  2.1756   336  -0.6  97    -1.0  0     0     995.4    NA       0.0000   9999     2170  0     0    
2019/08/26  09:54:01  BASE  1.62876  335  2.1756   336  -0.6  98    -0.9  0     0     995.4    NA       0.0000   9999     2170  0     0    
2019/08/26  09:55:00  BASE  1.5876   338  2.1756   336  -0.6  98    -0.9  0     0     995.4    NA       0.0000   9999     2200  0     0    
2019/08/26  09:56:00  BASE  1.45236  338  2.1756   336  -0.6  98    -0.9  0     0     995.4    NA       0.0000   9999     2200  0     0    
2019/08/26  09:57:00  BASE  1.4406   341  2.1756   336  -0.6  98    -0.9  0     0     995.3    NA       0.0000   9999     2170  0     0    
2019/08/26  09:58:00  BASE  1.46412  347  1.84632  323  -0.6  98    -0.9  0     0     995.3    NA       0.0000   9999     2230  0     0    
2019/08/26  09:59:00  BASE  1.36416  348  1.84632  323  -0.6  98    -0.9  0     0     995.4    NA       0.0000   9999     2230  0     0    
2019/08/26  10:00:00  BASE  1.37004  348  1.84632  323  -0.6  98    -0.9  0     0     995.4    NA       0.0000   9999     2260  0     0    
2019/08/26  10:01:00  BASE  1.33476  349  1.69344  335  -0.6  98    -0.9  0     0     995.3    NA       0.0000   9999     2260  0     0    
2019/08/26  10:02:00  BASE  1.27596  349  1.69344  335  -0.6  98    -0.9  0     0     995.3    NA       0.0000   9999     2260  0     0    
2019/08/26  10:03:00  BASE  1.2936   349  1.66404  336  -0.6  98    -0.9  0     0     995.3    NA       0.0000   9999     2300  0     0    
2019/08/26  10:04:00  BASE  1.30536  354  1.57584  346  -0.6  98    -0.9  0     0     995.3    NA       0.0000   9999     2300  0     0    
2019/08/26  10:05:01  BASE  1.38768  357  1.63464  326  -0.6  98    -0.9  0     0     995.3    NA       0.0000   9999     2360  0     0    
2019/08/26  10:06:00  BASE  1.42884  358  1.63464  326  -0.6  98    -0.9  0     0     995.3    NA       0.0000   9999     2300  0     0    
2019/08/26  10:07:00  BASE  1.44648  0    1.69344  3    -0.6  98    -0.9  0     0     995.3    NA       0.0000   9999     2170  0     0    
2019/08/26  10:08:00  BASE  1.55232  2    1.81692  3    -0.6  98    -0.9  0     0     995.3    NA       0.0000   9999     2130  0     0    
2019/08/26  10:09:00  BASE  1.54644  4    1.81692  3    -0.6  98    -0.9  0     0     995.3    NA       0.0000   9999     2170  0     0    
2019/08/26  10:10:00  BASE  1.45824  7    1.81692  3    -0.6  98    -0.9  0     0     995.3    NA       0.0000   9999     2100  0     0    
2019/08/26  10:11:00  BASE  1.47588  9    1.81692  3    -0.6  98    -0.9  0     0     995.4    NA       0.0000   9999     2300  0     0    
2019/08/26  10:12:00  BASE  1.53468  9    1.81692  3    -0.6  98    -0.9  0     0     995.4    NA       0.0000   9999     2300  0     0    
2019/08/26  10:13:00  BASE  1.62876  7    1.81692  3    -0.6  98    -0.9  0     0     995.4    NA       0.0000   9999     2300  0     0    
2019/08/26  10:14:00  BASE  1.71108  7    1.84632  14   -0.6  98    -0.8  0     0     995.4    NA       0.0000   9999     2300  0     0    
2019/08/26  10:15:00  BASE  1.63464  9    1.84632  14   -0.6  99    -0.8  0     0     995.4    NA       0.0000   9999     2260  0     0    
2019/08/26  10:16:00  BASE  1.59348  11   1.96392  1    -0.6  99    -0.8  0     0     995.4    NA       0.0000   9999     2300  0     0    
2019/08/26  10:17:00  BASE  1.7346   9    1.96392  3    -0.6  99    -0.8  0     0     995.4    NA       0.0000   9999     2300  0     0    
2019/08/26  10:18:00  BASE  1.74636  10   1.96392  3    -0.6  99    -0.7  0     0     995.4    NA       0.0000   9999     2300  0     0    
2019/08/26  10:19:00  BASE  1.65228  12   1.96392  3    -0.6  99    -0.7  0     0     995.4    NA       0.0000   9999     2300  0     0    
2019/08/26  10:20:00  BASE  1.72872  5    1.9992   353  -0.6  99    -0.7  0     0     995.4    NA       0.0000   9999     2330  0     0    
2019/08/26  10:21:00  BASE  1.8816   357  2.0286   360  -0.7  100   -0.7  0     0     995.4    NA       0.0000   9999     2330  0     0    
2019/08/26  10:22:00  BASE  2.15208  351  2.63424  348  -0.6  100   -0.7  0     0     995.5    NA       0.0000   9999     2260  0     0    
2019/08/26  10:23:00  BASE  2.56368  350  2.93412  349  -0.7  100   -0.7  0     0     995.5    NA       0.0000   9999     2230  0     0    
2019/08/26  10:24:01  BASE  2.78712  350  3.02232  348  -0.7  100   -0.7  0     0     995.5    NA       0.0000   9999     2200  0     0    
2019/08/26  10:25:00  BASE  2.7048   352  3.02232  348  -0.6  100   -0.6  0     0     995.5    NA       0.0000   9999     2100  0     0    
2019/08/26  10:26:00  BASE  2.69892  348  3.53976  339  -0.6  100   -0.6  0     0     995.6    NA       0.0000   9999     2130  0     0    
2019/08/26  10:27:00  BASE  2.76948  335  3.53976  339  -0.6  100   -0.6  0     0     995.7    NA       0.0000   9999     2200  0     0    
2019/08/26  10:28:00  BASE  2.25792  333  3.53976  339  -0.5  99    -0.6  0     0     995.7    NA       0.0000   9999     2170  0     0    
2019/08/26  10:29:00  BASE  1.58172  350  3.53976  339  -0.5  99    -0.6  0     0     995.7    NA       0.0000   9999     2130  0     0    
2019/08/26  10:30:00  BASE  1.37004  358  3.53976  339  -0.4  98    -0.6  0     0     995.7    NA       0.0000   9999     2070  0     0    
2019/08/26  10:31:00  BASE  1.25244  356  3.53976  339  -0.3  98    -0.6  0     0     995.7    NA       0.0000   9999     2170  0     0    
2019/08/26  10:32:00  BASE  1.0878   356  3.53976  339  -0.3  97    -0.7  0     0     995.7    NA       0.0000   9999     2230  0     0    
2019/08/26  10:33:00  BASE  1.0584   347  3.53976  339  -0.3  96    -0.8  0     0     995.7    NA       0.0000   9999     2230  0     0    
2019/08/26  10:34:00  BASE  1.14072  360  3.53976  339  -0.3  96    -0.8  0     0     995.7    NA       0.0000   9999     2230  0     0    
2019/08/26  10:35:00  BASE  1.37592  19   3.53976  339  -0.2  95    -0.9  0     0     995.7    NA       0.0000   9999     2200  0     0    
2019/08/26  10:36:00  BASE  1.71108  14   3.35748  329  -0.3  95    -1.0  0     0     995.7    NA       0.0000   9999     2260  0     0    
2019/08/26  10:37:00  BASE  1.92864  5    2.1756   350  -0.3  95    -1.0  0     0     995.7    NA       0.0000   9999     2260  0     0    
2019/08/26  10:38:00  BASE  1.95216  352  2.1756   350  -0.3  95    -1.1  0     0     995.7    NA       0.0000   9999     2260  0     0    
2019/08/26  10:39:00  BASE  1.76988  344  2.1756   350  -0.3  95    -1.1  0     0     995.7    NA       0.0000   9999     2230  0     0    
2019/08/26  10:40:00  BASE  1.53468  343  2.1756   350  -0.4  95    -1.1  0     0     995.7    NA       0.0000   9999     2260  0     0    
2019/08/26  10:41:00  BASE  1.43472  344  2.1756   350  -0.4  95    -1.1  0     0     995.7    NA       0.0000   9999     2230  0     0    
2019/08/26  10:42:00  BASE  1.44648  350  2.1756   350  -0.5  96    -1.0  0     0     995.7    NA       0.0000   9999     2230  0     0    
2019/08/26  10:43:00  BASE  1.34652  356  2.1756   350  -0.5  96    -1.0  0     0     995.7    NA       0.0000   9999     2230  0     0    
2019/08/26  10:44:00  BASE  1.1466   0    2.1756   350  -0.5  97    -1.0  0     0     995.7    NA       0.0000   9999     2230  0     0    
2019/08/26  10:45:00  BASE  0.92904  13   2.1756   350  -0.5  97    -1.0  0     0     995.7    NA       0.0000   9999     2200  0     0    
2019/08/26  10:46:00  BASE  0.79968  35   2.1756   350  -0.5  97    -0.9  0     0     995.6    NA       0.0000   9999     2170  0     0    
2019/08/26  10:47:00  BASE  0.8526   48   2.1462   349  -0.5  98    -0.9  0     0     995.6    NA       0.0000   9999     2200  0     0    
2019/08/26  10:48:00  BASE  0.84084  54   1.78752  341  -0.5  98    -0.8  0     0     995.5    NA       0.0000   9999     2200  0     0    
2019/08/26  10:49:00  BASE  0.81144  62   1.63464  340  -0.5  98    -0.8  0     0     995.5    NA       0.0000   9999     2130  0     0    
2019/08/26  10:50:00  BASE  0.50568  57   1.51116  354  -0.4  98    -0.7  0     0     995.5    NA       0.0000   9999     2130  0     0    
2019/08/26  10:51:00  BASE  0.43512  50   1.51116  354  -0.4  97    -0.7  0     0     995.5    NA       0.0000   9999     2170  0     0    
2019/08/26  10:52:01  BASE  0.72324  43   1.45236  355  -0.3  97    -0.8  0     0     995.5    NA       0.0000   9999     2130  0     0    
2019/08/26  10:53:00  BASE  0.69972  31   1.18188  2    -0.3  96    -0.9  0     0     995.5    NA       0.0000   9999     2170  0     0    
2019/08/26  10:54:01  BASE  0.735    31   1.0878   59   -0.2  95    -0.9  0     0     995.6    NA       0.0000   9999     2170  0     0    
2019/08/26  10:55:00  BASE  0.8232   34   1.0878   59   -0.2  94    -1.0  0     0     995.6    NA       0.0000   9999     2170  0     0    
2019/08/26  10:56:01  BASE  0.84672  37   1.0878   59   -0.2  94    -1.1  0     0     995.6    NA       0.0000   9999     2200  0     0    
2019/08/26  10:57:00  BASE  0.87024  39   0.9996   48   -0.1  93    -1.1  0     0     995.5    NA       0.0000   9999     2030  0     0    
2019/08/26  10:58:00  BASE  0.93492  31   1.029    21   -0.1  93    -1.2  0     0     995.5    NA       0.0000   9999     2130  0     0    
2019/08/26  10:59:00  BASE  0.95844  26   1.029    21   -0.1  92    -1.2  0     0     995.6    NA       0.0000   9999     2100  0     0    
2019/08/26  11:00:00  BASE  0.96432  28   1.1172   31   -0.1  92    -1.3  0     0     995.6    NA       0.0000   9999     2130  0     0    
2019/08/26  11:01:01  BASE  1.0878   30   1.35828  29   -0.1  92    -1.3  0     0     995.6    NA       0.0000   9999     2100  0     0    
2019/08/26  11:02:01  BASE  1.21716  30   1.35828  29   -0.1  91    -1.3  0     0     995.5    NA       0.0000   9999     2070  0     0    
2019/08/26  11:03:00  BASE  1.24656  33   1.35828  42   -0.1  91    -1.4  0     0     995.5    NA       0.0000   9999     2070  0     0    
2019/08/26  11:04:01  BASE  1.22892  41   1.35828  42   -0.1  91    -1.4  1     0     995.5    NA       0.0000   9999     2070  0     0    
2019/08/26  11:05:00  BASE  1.21716  48   1.35828  42   -0.1  91    -1.4  1     0     995.5    NA       0.0000   9999     2000  0     0    
2019/08/26  11:06:01  BASE  1.21716  52   1.35828  57   -0.1  91    -1.4  1     0     995.5    NA       0.0000   9999     2070  0     0    
2019/08/26  11:07:00  BASE  1.2642   55   1.48176  48   -0.1  91    -1.4  1     0     995.5    NA       0.0000   9999     2070  0     0    
2019/08/26  11:08:00  BASE  1.28184  55   1.48176  48   -0.1  91    -1.4  1     0     995.5    NA       0.0000   9999     2070  0     0    
2019/08/26  11:09:01  BASE  1.22892  61   1.48176  48   -0.1  91    -1.4  1     0     995.5    NA       0.0000   9999     2130  0     0    
2019/08/26  11:10:00  BASE  1.12308  80   1.48176  48   -0.0  90    -1.4  1     0     995.5    NA       0.0000   9999     2170  0     0    
2019/08/26  11:11:00  BASE  1.02312  92   1.48176  48   -0.0  90    -1.5  1     0     995.4    NA       0.0000   9999     2100  0     0    
2019/08/26  11:12:00  BASE  1.13484  88   1.48176  48   -0.0  89    -1.5  1     0     995.4    NA       0.0000   9999     2100  0     0    
2019/08/26  11:13:00  BASE  1.31124  77   1.48176  48   -0.0  89    -1.6  1     0     995.4    NA       0.0000   9999     2100  0     0    
2019/08/26  11:14:00  BASE  1.47588  69   1.75224  67   -0.0  89    -1.6  1     0     995.4    NA       0.0000   9999     2130  0     0    
2019/08/26  11:15:00  BASE  1.56408  67   1.75224  67   -0.0  89    -1.6  1     0     995.4    NA       0.0000   9999     2130  0     0    
2019/08/26  11:16:00  BASE  1.56408  68   1.75224  67   -0.0  89    -1.6  1     0     995.4    NA       0.0000   9999     2130  0     0    
2019/08/26  11:17:00  BASE  1.5876   65   1.75224  67   -0.0  89    -1.7  1     0     995.4    NA       0.0000   9999     2130  0     0    
2019/08/26  11:18:00  BASE  1.50528  59   1.75224  67   0.0   88    -1.7  1     0     995.4    NA       0.0000   9999     2130  0     0    
2019/08/26  11:19:00  BASE  1.41708  52   1.75224  67   0.0   88    -1.7  2     0     995.4    NA       0.0000   9999     2130  0     0    
2019/08/26  11:20:00  BASE  1.24656  48   1.75224  67   0.0   88    -1.7  2     0     995.5    NA       0.0000   9999     2130  0     0    
2019/08/26  11:21:01  BASE  0.96432  45   1.75224  67   0.0   88    -1.7  2     0     995.5    NA       0.0000   9999     2170  0     0    
2019/08/26  11:22:01  BASE  0.92316  38   1.75224  67   0.0   88    -1.7  2     0     995.5    NA       0.0000   9999     2130  0     0    
2019/08/26  11:23:00  BASE  0.97608  28   1.75224  67   -0.0  88    -1.8  2     0     995.5    NA       0.0000   9999     2100  0     0    
2019/08/26  11:24:00  BASE  1.14072  22   1.69344  64   -0.0  88    -1.8  2     0     995.5    NA       0.0000   9999     2100  0     0    
2019/08/26  11:25:00  BASE  1.50528  18   1.81692  10   -0.1  88    -1.8  2     0     995.5    NA       0.0000   9999     2130  0     0    
2019/08/26  11:26:00  BASE  1.62288  13   1.81692  10   -0.1  88    -1.8  2     0     995.5    NA       0.0000   9999     2170  0     0    
2019/08/26  11:27:00  BASE  1.77576  359  2.1756   337  -0.1  88    -1.8  2     0     995.5    NA       0.0000   9999     2100  0     0    
2019/08/26  11:28:00  BASE  2.18736  333  2.75184  319  -0.2  89    -1.8  2     0     995.5    NA       0.0000   9999     2070  0     0    
2019/08/26  11:29:00  BASE  2.21088  320  2.75184  319  -0.2  90    -1.7  2     0     995.5    NA       0.0000   9999     2070  0     0    
2019/08/26  11:30:00  BASE  1.8816   322  2.75184  319  -0.2  90    -1.6  3     0     995.5    NA       0.0000   9999     2030  0     0    
2019/08/26  11:31:00  BASE  1.56408  322  2.75184  319  -0.1  90    -1.5  3     0     995.5    NA       0.0000   9999     2130  0     0    
2019/08/26  11:32:00  BASE  1.51704  318  2.75184  319  0.0   90    -1.4  3     0     995.5    NA       0.0000   9999     2170  0     0    
2019/08/26  11:33:00  BASE  1.51704  312  2.75184  319  0.1   90    -1.4  3     0     995.5    NA       0.0000   9999     2070  0     0    
2019/08/26  11:34:00  BASE  1.39356  318  2.75184  319  0.1   89    -1.4  3     0     995.5    NA       0.0000   9999     2070  0     0    
2019/08/26  11:35:00  BASE  1.40532  334  2.75184  319  0.2   89    -1.5  3     0     995.5    NA       0.0000   9999     2100  0     0    
2019/08/26  11:36:00  BASE  1.29948  337  2.75184  319  0.2   88    -1.6  3     0     995.5    NA       0.0000   9999     2030  0     0    
2019/08/26  11:37:00  BASE  1.30536  2    2.75184  319  0.1   88    -1.7  3     0     995.5    NA       0.0000   9999     2000  0     0    
2019/08/26  11:38:00  BASE  1.42296  33   2.29908  307  0.1   88    -1.7  3     0     995.5    NA       0.0000   9999     2000  0     0    
2019/08/26  11:39:00  BASE  1.65816  40   2.21088  317  -0.0  88    -1.8  3     0     995.5    NA       0.0000   9999     2100  0     0    
2019/08/26  11:40:00  BASE  2.058    43   2.38728  35   -0.1  88    -1.8  3     0     995.5    NA       0.0000   9999     2100  0     0    
2019/08/26  11:41:00  BASE  1.92276  40   2.38728  35   -0.2  88    -1.9  3     0     995.5    NA       0.0000   9999     2170  0     0    
2019/08/26  11:42:00  BASE  1.62876  34   2.38728  35   -0.2  89    -1.8  3     0     995.6    NA       0.0000   9999     2170  0     0    
2019/08/26  11:43:00  BASE  1.69932  16   2.38728  35   -0.2  89    -1.8  4     0     995.7    NA       0.0000   9999     2170  0     0    
2019/08/26  11:44:00  BASE  1.68756  359  2.38728  35   -0.2  90    -1.7  4     0     995.7    NA       0.0000   9999     2100  0     0    
2019/08/26  11:45:00  BASE  1.71696  354  2.38728  35   -0.2  90    -1.7  4     0     995.8    NA       0.0000   9999     2030  0     0    
2019/08/26  11:46:00  BASE  1.9698   349  2.54016  343  -0.2  90    -1.6  4     0     995.8    NA       0.0000   9999     2100  0     0    
2019/08/26  11:47:00  BASE  2.12268  338  2.63424  327  -0.2  90    -1.6  4     0     995.8    NA       0.0000   9999     2100  0     0    
2019/08/26  11:48:00  BASE  1.83456  330  2.63424  327  -0.1  90    -1.5  4     0     995.8    NA       0.0000   9999     2100  0     0    
2019/08/26  11:49:00  BASE  1.72284  333  2.63424  327  -0.1  90    -1.5  4     0     995.8    NA       0.0000   9999     2100  0     0    
2019/08/26  11:50:00  BASE  1.87572  333  2.63424  327  -0.0  90    -1.5  4     0     995.8    NA       0.0000   9999     2100  0     0    
2019/08/26  11:51:00  BASE  1.5582   326  2.63424  327  0.1   89    -1.5  5     0     995.8    NA       0.0000   9999     2070  0     0    
2019/08/26  11:52:00  BASE  1.19952  326  2.63424  327  0.1   88    -1.6  5     0     995.8    NA       0.0000   9999     2000  0     0    
2019/08/26  11:53:00  BASE  1.15836  328  2.63424  327  0.2   88    -1.7  5     0     995.8    NA       0.0000   9999     2000  0     0    
2019/08/26  11:54:00  BASE  1.17012  326  2.63424  327  0.2   87    -1.7  5     0     995.8    NA       0.0000   9999     2030  0     0    
2019/08/26  11:55:00  BASE  1.29948  331  2.63424  327  0.2   87    -1.8  6     0     995.9    NA       0.0000   9999     2100  0     0    
2019/08/26  11:56:00  BASE  1.37592  343  2.63424  327  0.2   86    -1.8  6     0     995.9    NA       0.0000   9999     2100  0     0    
2019/08/26  11:57:00  BASE  1.323    0    2.32848  334  0.2   86    -1.9  6     0     995.9    NA       0.0000   9999     1900  0     0    
2019/08/26  11:58:00  BASE  1.40532  15   2.32848  334  0.2   86    -2.0  7     0     995.9    NA       0.0000   9999     1870  0     0    
2019/08/26  11:59:00  BASE  1.6464   19   2.24028  321  0.1   86    -2.0  7     0     995.9    NA       0.0000   9999     1970  0     0    
2019/08/26  12:00:00  BASE  2.09916  20   2.72244  21   0.1   86    -2.0  7     0     995.9    NA       0.0000   9999     2030  0     0    
2019/08/26  12:01:00  BASE  2.5578   17   2.87532  16   -0.0  86    -2.1  8     0     995.9    NA       0.0000   9999     2000  0     0    
2019/08/26  12:02:00  BASE  2.39904  10   2.87532  16   -0.1  87    -2.0  8     0     995.9    NA       0.0000   9999     2030  0     0    
2019/08/26  12:03:00  BASE  1.96392  14   2.87532  16   -0.1  88    -1.9  8     0     995.9    NA       0.0000   9999     2070  0     0    
2019/08/26  12:04:00  BASE  2.1462   20   2.87532  16   -0.2  89    -1.8  9     0     995.9    NA       0.0000   9999     2070  0     0    
2019/08/26  12:05:00  BASE  2.48136  21   2.87532  16   -0.2  89    -1.7  9     0     995.9    NA       0.0000   9999     2030  0     0    
2019/08/26  12:06:00  BASE  2.58132  19   2.87532  16   -0.2  90    -1.7  9     0     995.9    NA       0.0000   9999     2030  0     0    
2019/08/26  12:07:00  BASE  2.61072  14   2.87532  16   -0.3  91    -1.6  10    0     996.0    NA       0.0000   9999     2070  0     0    
2019/08/26  12:08:00  BASE  2.77536  11   3.1164   19   -0.3  91    -1.6  10    0     996.0    NA       0.0000   9999     2070  0     0    
2019/08/26  12:09:00  BASE  3.01056  14   3.2046   12   -0.3  92    -1.5  10    0     996.0    NA       0.0000   9999     2030  0     0    
2019/08/26  12:10:00  BASE  3.16932  16   4.1454   4    -0.4  93    -1.5  11    0     995.9    NA       0.0000   9999     2000  0     0    
2019/08/26  12:11:00  BASE  3.7926   12   4.72164  10   -0.5  93    -1.4  11    0     995.9    NA       0.0000   9999     1970  0     0    
2019/08/26  12:12:00  BASE  4.0278   10   4.72164  10   -0.5  94    -1.3  12    0     995.9    NA       0.0000   9999     1940  0     0    
2019/08/26  12:13:00  BASE  3.72792  14   4.72164  10   -0.5  95    -1.3  12    0     995.9    NA       0.0000   9999     1840  0     0    
2019/08/26  12:14:00  BASE  3.51036  21   4.72164  10   -0.5  95    -1.2  13    0     995.9    NA       0.0000   9999     1870  0     0    
2019/08/26  12:15:00  BASE  3.28692  22   4.72164  10   -0.5  96    -1.1  13    0     995.9    NA       0.0000   9999     1870  0     0    
2019/08/26  12:16:00  BASE  3.02232  23   4.72164  10   -0.5  96    -1.0  14    0     995.9    NA       0.0000   9999     1900  0     0    
2019/08/26  12:17:00  BASE  2.8224   27   4.72164  10   -0.5  96    -1.0  15    0     995.9    NA       0.0000   9999     1900  0     0    
2019/08/26  12:18:00  BASE  2.90472  28   4.72164  10   -0.5  96    -1.0  15    0     995.9    NA       0.0000   9999     1970  0     0    
2019/08/26  12:19:00  BASE  2.87532  27   4.72164  10   -0.5  96    -1.0  16    0     995.9    NA       0.0000   9999     2000  0     0    
2019/08/26  12:20:00  BASE  2.78124  28   4.72164  10   -0.4  96    -0.9  16    0     995.9    NA       0.0000   9999     2000  0     0    
2019/08/26  12:21:00  BASE  2.84592  27   4.02192  5    -0.4  96    -1.0  17    0     995.9    NA       0.0000   9999     2000  0     0    
2019/08/26  12:22:00  BASE  2.84592  28   3.93372  14   -0.5  96    -1.0  18    0     995.9    NA       0.0000   9999     2000  0     0    
2019/08/26  12:23:00  BASE  2.81652  29   3.62796  14   -0.5  96    -1.1  18    0     996.0    NA       0.0000   9999     1940  0     0    
2019/08/26  12:24:00  BASE  2.8812   30   3.62796  14   -0.5  96    -1.1  19    0     996.0    NA       0.0000   9999     1970  0     0    
2019/08/26  12:25:00  BASE  3.00468  36   3.38688  26   -0.6  96    -1.1  20    0     996.0    NA       0.0000   9999     1940  0     0    
2019/08/26  12:26:00  BASE  3.528    39   4.35708  34   -0.6  97    -1.1  21    0     995.9    NA       0.0000   9999     1970  0     0    
2019/08/26  12:27:00  BASE  3.69852  34   4.35708  34   -0.6  97    -1.0  22    0     995.9    NA       0.0000   9999     1970  0     0    
2019/08/26  12:28:00  BASE  3.16932  33   4.35708  34   -0.6  97    -1.0  23    0     995.9    NA       0.0000   9999     1940  0     0    
2019/08/26  12:29:00  BASE  2.80476  42   4.35708  34   -0.5  97    -0.9  23    0     995.9    NA       0.0000   9999     1870  0     0    
2019/08/26  12:30:00  BASE  2.74596  48   4.35708  34   -0.5  97    -0.9  24    0     995.9    NA       0.0000   9999     1900  0     0    
2019/08/26  12:31:00  BASE  2.7048   50   4.35708  34   -0.5  97    -0.9  24    0     995.9    NA       0.0000   9999     1800  0     0    
2019/08/26  12:32:00  BASE  2.83416  53   4.35708  34   -0.5  96    -1.0  25    0     995.9    NA       0.0000   9999     1840  0     0    
2019/08/26  12:33:00  BASE  2.8812   57   4.35708  34   -0.5  96    -1.1  26    0     996.0    NA       0.0000   9999     1900  0     0    
2019/08/26  12:34:00  BASE  2.84004  58   4.35708  34   -0.5  95    -1.1  26    0     996.0    NA       0.0000   9999     1840  0     0    
2019/08/26  12:35:00  BASE  2.94     54   4.35708  34   -0.5  95    -1.2  27    0     996.0    NA       0.0000   9999     1770  0     0    
2019/08/26  12:36:00  BASE  2.8518   50   3.83964  31   -0.5  95    -1.2  28    0     996.0    NA       0.0000   9999     1940  0     0    
2019/08/26  12:37:00  BASE  2.7636   46   3.29868  46   -0.5  95    -1.2  29    0     996.0    NA       0.0000   9999     1970  0     0    
2019/08/26  12:38:00  BASE  2.352    36   3.29868  46   -0.5  95    -1.2  29    0     996.0    NA       0.0000   9999     1870  0     0    
2019/08/26  12:39:00  BASE  2.01684  32   3.29868  46   -0.5  95    -1.2  30    0     996.0    NA       0.0000   9999     1870  0     0    
2019/08/26  12:40:00  BASE  2.14032  31   3.29868  46   -0.6  95    -1.3  30    0     996.0    NA       0.0000   9999     1940  0     0    
2019/08/26  12:41:00  BASE  2.6754   25   3.62796  21   -0.6  95    -1.2  30    0     996.0    NA       0.0000   9999     1900  0     0    
2019/08/26  12:42:00  BASE  3.381    24   3.75144  25   -0.6  95    -1.2  30    0     996.0    NA       0.0000   9999     1940  0     0    
2019/08/26  12:43:00  BASE  3.63972  29   3.83964  37   -0.6  96    -1.2  30    0     996.0    NA       0.0000   9999     1900  0     0    
2019/08/26  12:44:00  BASE  3.7044   36   3.93372  36   -0.6  96    -1.2  31    0     996.0    NA       0.0000   9999     1970  0     0    
2019/08/26  12:45:00  BASE  3.65148  37   3.93372  36   -0.7  97    -1.1  31    0     996.0    NA       0.0000   9999     1970  0     0    
2019/08/26  12:46:00  BASE  3.49272  36   3.93372  36   -0.7  97    -1.1  31    0     996.1    NA       0.0000   9999     1900  0     0    
2019/08/26  12:47:00  BASE  3.2928   36   3.93372  36   -0.7  97    -1.1  31    0     996.1    NA       0.0000   9999     2000  0     0    
2019/08/26  12:48:00  BASE  3.3222   35   3.93372  36   -0.7  97    -1.1  31    0     996.1    NA       0.0000   9999     2000  0     0    
2019/08/26  12:49:00  BASE  3.60444  34   3.93372  36   -0.7  97    -1.1  31    0     996.1    NA       0.0000   9999     1970  0     0    
2019/08/26  12:50:00  BASE  3.80436  34   3.96312  32   -0.7  98    -1.0  31    0     996.1    NA       0.0000   9999     1900  0     0    
2019/08/26  12:51:00  BASE  3.75732  32   3.96312  32   -0.7  98    -1.0  31    0     996.1    NA       0.0000   9999     1870  0     0    
2019/08/26  12:52:00  BASE  3.72204  29   4.02192  28   -0.7  98    -1.0  31    0     996.1    NA       0.0000   9999     1870  0     0    
2019/08/26  12:53:00  BASE  3.75732  29   4.29828  26   -0.7  98    -1.0  31    0     996.1    NA       0.0000   9999     1940  0     0    
2019/08/26  12:54:00  BASE  3.75732  30   4.29828  26   -0.7  98    -1.0  32    0     996.1    NA       0.0000   9999     1970  0     0    
2019/08/26  12:55:00  BASE  3.71028  32   4.29828  26   -0.6  98    -1.0  32    0     996.1    NA       0.0000   9999     1970  0     0    
2019/08/26  12:56:00  BASE  3.675    34   4.29828  26   -0.6  97    -1.0  33    0     996.1    NA       0.0000   9999     1970  0     0    
2019/08/26  12:57:00  BASE  3.56328  36   4.29828  26   -0.6  97    -1.0  34    0     996.1    NA       0.0000   9999     1970  0     0    
2019/08/26  12:58:00  BASE  3.46332  37   4.29828  26   -0.6  97    -1.0  36    0     996.1    NA       0.0000   9999     2000  0     0    
2019/08/26  12:59:00  BASE  3.53976  38   4.29828  26   -0.6  97    -1.1  37    0     996.1    NA       0.0000   9999     2000  0     0    
2019/08/26  13:00:00  BASE  3.59268  34   4.29828  26   -0.7  97    -1.1  38    0     996.1    NA       0.0000   9999     1970  0     0    
2019/08/26  13:01:00  BASE  3.48096  30   4.29828  26   -0.7  97    -1.1  38    0     996.1    NA       0.0000   9999     1940  0     0    
2019/08/26  13:02:00  BASE  3.33984  34   4.29828  26   -0.7  97    -1.1  39    0     996.1    NA       0.0000   9999     1970  0     0    
2019/08/26  13:03:00  BASE  3.39276  34   4.1454   25   -0.7  97    -1.1  40    0     996.1    NA       0.0000   9999     2000  0     0    
2019/08/26  13:04:00  BASE  3.48684  32   3.93372  29   -0.7  97    -1.1  41    0     996.1    NA       0.0000   9999     2000  0     0    
2019/08/26  13:05:00  BASE  3.4692   35   3.93372  29   -0.7  98    -1.0  42    0     996.1    NA       0.0000   9999     2030  0     0    
2019/08/26  13:06:00  BASE  3.31044  39   3.86904  38   -0.7  98    -1.0  42    0     996.2    NA       0.0000   9999     2000  0     0    
2019/08/26  13:07:00  BASE  3.1752   38   3.86904  38   -0.7  98    -1.0  43    0     996.3    NA       0.0000   9999     2000  0     0    
2019/08/26  13:08:00  BASE  3.2928   36   3.83964  22   -0.7  98    -1.0  44    0     996.3    NA       0.0000   9999     2000  0     0    
2019/08/26  13:09:00  BASE  3.43392  36   3.83964  22   -0.7  98    -1.0  45    0     996.3    NA       0.0000   9999     2000  0     0    
2019/08/26  13:10:00  BASE  3.45744  36   3.81024  32   -0.7  98    -1.0  46    0     996.3    NA       0.0000   9999     2000  0     0    
2019/08/26  13:11:00  BASE  3.381    37   3.81024  32   -0.7  98    -1.0  47    0     996.3    NA       0.0000   9999     2030  0     0    
2019/08/26  13:12:00  BASE  3.21636  39   3.81024  32   -0.7  98    -0.9  48    0     996.3    NA       0.0000   9999     2000  0     0    
2019/08/26  13:13:00  BASE  2.89884  43   3.81024  32   -0.6  98    -0.9  48    0     996.3    NA       0.0000   9999     2000  0     0    
2019/08/26  13:14:00  BASE  2.72832  45   3.81024  32   -0.6  98    -0.9  48    0     996.3    NA       0.0000   9999     1940  0     0    
2019/08/26  13:15:00  BASE  2.86944  47   3.81024  32   -0.6  98    -0.9  49    0     996.3    NA       0.0000   9999     1900  0     0    
2019/08/26  13:16:00  BASE  2.83416  48   3.81024  32   -0.6  98    -0.9  50    0     996.3    NA       0.0000   9999     1900  0     0    
2019/08/26  13:17:00  BASE  2.66952  49   3.81024  32   -0.6  98    -0.9  51    0     996.3    NA       0.0000   9999     2000  0     0    
2019/08/26  13:18:00  BASE  2.79888  47   3.81024  32   -0.6  98    -0.9  51    0     996.2    NA       0.0000   9999     2000  0     0    
2019/08/26  13:19:00  BASE  3.0576   43   3.69264  35   -0.6  98    -0.9  52    0     996.1    NA       0.0000   9999     1970  0     0    
2019/08/26  13:20:00  BASE  2.8812   44   3.56916  37   -0.6  97    -1.0  53    0     996.1    NA       0.0000   9999     1970  0     0    
2019/08/26  13:21:00  BASE  2.54016  51   3.53976  44   -0.6  97    -1.0  54    0     996.1    NA       0.0000   9999     1970  0     0    
2019/08/26  13:22:00  BASE  2.4696   58   3.53976  44   -0.6  97    -1.0  54    0     996.1    NA       0.0000   9999     2000  0     0    
2019/08/26  13:23:00  BASE  2.48724  58   3.53976  44   -0.5  97    -1.0  54    0     996.1    NA       0.0000   9999     2000  0     0    
2019/08/26  13:24:00  BASE  2.44608  58   3.53976  44   -0.5  96    -1.0  55    0     996.1    NA       0.0000   9999     2000  0     0    
2019/08/26  13:25:00  BASE  2.21676  58   3.53976  44   -0.6  96    -1.1  56    0     996.1    NA       0.0000   9999     2000  0     0    
2019/08/26  13:26:00  BASE  1.87572  50   3.53976  44   -0.6  96    -1.1  57    0     996.1    NA       0.0000   9999     2000  0     0    
2019/08/26  13:27:00  BASE  1.911    47   3.53976  44   -0.5  96    -1.1  58    0     996.1    NA       0.0000   9999     2000  0     0    
2019/08/26  13:28:00  BASE  2.0286   55   3.53976  44   -0.5  96    -1.0  59    0     996.1    NA       0.0000   9999     1970  0     0    
2019/08/26  13:29:00  BASE  2.04036  59   3.02232  52   -0.4  96    -1.0  60    0     996.1    NA       0.0000   9999     1900  0     0    
2019/08/26  13:30:00  BASE  1.91688  69   2.87532  54   -0.4  95    -1.0  61    0     996.1    NA       0.0000   9999     1900  0     0    
2019/08/26  13:31:00  BASE  1.95216  73   2.87532  54   -0.3  95    -1.0  63    0     996.1    NA       0.0000   9999     1940  0     0    
2019/08/26  13:32:00  BASE  1.99332  65   2.87532  54   -0.3  94    -1.1  64    0     996.1    NA       0.0000   9999     1940  0     0    
2019/08/26  13:33:00  BASE  1.764    59   2.72244  61   -0.2  94    -1.1  65    0     996.1    NA       0.0000   9999     1940  0     0    
2019/08/26  13:34:00  BASE  2.04036  61   2.93412  43   -0.2  93    -1.2  66    0     996.1    NA       0.0000   9999     1870  0     0    
2019/08/26  13:35:00  BASE  2.8224   54   3.81024  39   -0.2  92    -1.2  67    0     996.1    NA       0.0000   9999     1840  0     0    
2019/08/26  13:36:00  BASE  3.26928  44   3.81024  39   -0.2  92    -1.3  68    0     996.1    NA       0.0000   9999     1840  0     0    
2019/08/26  13:37:00  BASE  3.44568  47   4.02192  53   -0.2  91    -1.4  70    0     996.1    NA       0.0000   9999     1900  0     0    
2019/08/26  13:38:00  BASE  3.85728  53   4.1454   58   -0.3  91    -1.5  72    0     996.1    NA       0.0000   9999     1940  0     0    
2019/08/26  13:39:00  BASE  3.90432  60   4.1454   58   -0.4  92    -1.5  74    0     996.1    NA       0.0000   9999     1940  0     0    
2019/08/26  13:40:00  BASE  3.46332  68   4.1454   58   -0.5  92    -1.5  75    0     996.1    NA       0.0000   9999     1940  0     0    
2019/08/26  13:41:00  BASE  2.9988   72   4.1454   58   -0.5  93    -1.5  76    0     996.1    NA       0.0000   9999     1970  0     0    
2019/08/26  13:42:00  BASE  2.61072  77   4.1454   58   -0.6  94    -1.4  76    0     996.1    NA       0.0000   9999     1970  0     0    
2019/08/26  13:43:00  BASE  2.25792  83   4.1454   58   -0.6  95    -1.4  77    0     996.1    NA       0.0000   9999     1970  0     0    
2019/08/26  13:44:00  BASE  2.34024  80   4.1454   58   -0.7  95    -1.3  78    0     996.1    NA       0.0000   9999     1970  0     0    
2019/08/26  13:45:00  BASE  2.48136  81   4.1454   58   -0.7  96    -1.3  79    0     996.1    NA       0.0000   9999     1870  0     0    
2019/08/26  13:46:00  BASE  2.53428  79   4.1454   58   -0.8  96    -1.3  80    0     996.1    NA       0.0000   9999     1800  0     0    
2019/08/26  13:47:00  BASE  2.5872   75   4.1454   58   -0.8  97    -1.2  82    0     996.1    NA       0.0000   9999     1770  0     0    
2019/08/26  13:48:00  BASE  2.48136  79   3.93372  64   -0.8  97    -1.2  83    0     996.1    NA       0.0000   9999     1800  0     0    
2019/08/26  13:49:00  BASE  2.36376  82   3.51036  68   -0.8  98    -1.1  83    0     996.2    NA       0.0000   9999     1840  0     0    
2019/08/26  13:50:00  BASE  2.26968  81   3.1458   70   -0.8  98    -1.0  84    0     996.3    NA       0.0000   9999     1900  0     0    
2019/08/26  13:51:00  BASE  2.22852  78   3.0576   81   -0.8  99    -1.0  86    0     996.3    NA       0.0000   9999     1940  0     0    
2019/08/26  13:52:00  BASE  2.5284   77   3.1458   77   -0.8  99    -0.9  87    0     996.3    NA       0.0000   9999     1840  0     0    
2019/08/26  13:53:00  BASE  3.03996  78   3.59856  76   -0.8  99    -0.9  89    0     996.4    NA       0.0000   9999     1840  0     0    
2019/08/26  13:54:00  BASE  3.27516  76   3.59856  76   -0.8  99    -0.9  90    0     996.4    NA       0.0000   9999     1940  0     0    
2019/08/26  13:55:00  BASE  3.22224  72   3.59856  76   -0.8  99    -0.9  91    0     996.4    NA       0.0000   9999     1940  0     0    
2019/08/26  13:56:00  BASE  3.29868  73   3.69264  75   -0.8  99    -0.9  93    0     996.4    NA       0.0000   9999     1940  0     0    
2019/08/26  13:57:00  BASE  3.45156  75   3.69264  77   -0.8  99    -0.9  93    0     996.4    NA       0.0000   9999     1940  0     0    
2019/08/26  13:58:00  BASE  3.54564  76   3.75144  77   -0.7  99    -0.9  93    0     996.4    NA       0.0000   9999     1900  0     0    
2019/08/26  13:59:00  BASE  3.36924  74   3.75144  77   -0.7  99    -0.8  93    0     996.4    NA       0.0000   9999     1900  0     0    
2019/08/26  14:00:00  BASE  3.1458   70   3.75144  77   -0.7  99    -0.8  93    0     996.4    NA       0.0000   9999     1900  0     0    
2019/08/26  14:01:00  BASE  3.22812  70   3.75144  77   -0.6  99    -0.8  92    0     996.4    NA       0.0000   9999     1900  21790 0    
2019/08/26  14:02:00  BASE  3.31632  72   3.75144  77   -0.6  98    -0.8  92    0     996.4    NA       0.0000   9999     1940  0     0    
2019/08/26  14:03:00  BASE  3.39276  69   3.75144  77   -0.6  98    -0.8  91    0     996.4    NA       0.0000   9999     1940  0     0    
2019/08/26  14:04:00  BASE  3.37512  65   3.75144  77   -0.6  98    -0.9  90    0     996.4    NA       0.0000   9999     1870  0     0    
2019/08/26  14:05:00  BASE  3.29868  65   3.75144  77   -0.6  98    -0.9  89    0     996.4    NA       0.0000   9999     1870  0     0    
2019/08/26  14:06:00  BASE  3.15168  62   3.75144  77   -0.6  98    -0.9  89    0     996.4    NA       0.0000   9999     1900  0     0    
2019/08/26  14:07:00  BASE  3.234    54   3.93372  49   -0.6  98    -0.9  88    0     996.5    NA       0.0000   9999     1870  0     0    
2019/08/26  14:08:00  BASE  3.53388  47   3.93372  49   -0.6  98    -0.9  88    0     996.5    NA       0.0000   9999     1870  0     0    
2019/08/26  14:09:00  BASE  3.39276  46   3.93372  49   -0.6  98    -1.0  88    0     996.5    NA       0.0000   9999     1840  0     0    
2019/08/26  14:10:00  BASE  3.3222   47   3.93372  50   -0.6  98    -1.0  88    0     996.6    NA       0.0000   9999     1840  0     0    
2019/08/26  14:11:00  BASE  3.88668  46   5.10972  44   -0.7  98    -1.0  87    0     996.6    NA       0.0000   9999     1840  0     0    
2019/08/26  14:12:00  BASE  4.83924  44   5.56836  44   -0.7  98    -1.0  87    0     996.6    NA       0.0000   9999     1870  0     0    
2019/08/26  14:13:00  BASE  5.13912  42   5.56836  44   -0.8  98    -1.0  86    0     996.5    NA       0.0000   9999     1840  0     0    
2019/08/26  14:14:00  BASE  4.60404  47   5.56836  44   -0.8  99    -1.0  87    0     996.6    NA       0.0000   9999     1800  0     0    
2019/08/26  14:15:00  BASE  4.26888  53   5.56836  44   -0.8  99    -1.0  89    0     996.6    NA       0.0000   9999     1800  0     0    
2019/08/26  14:16:00  BASE  4.557    55   5.56836  44   -0.9  99    -1.0  91    0     996.6    NA       0.0000   9999     1800  0     0    
2019/08/26  14:17:00  BASE  4.66872  54   5.56836  44   -0.9  99    -1.0  93    0     996.6    NA       0.0000   9999     1800  0     0    
2019/08/26  14:18:00  BASE  4.65108  55   5.56836  44   -0.9  100   -1.0  96    0     996.6    NA       0.0000   9999     1840  0     0    
2019/08/26  14:19:00  BASE  4.9686   54   5.56836  44   -0.9  100   -0.9  101   0     996.6    NA       0.0000   9999     1800  0     0    
2019/08/26  14:20:00  BASE  4.9098   54   5.56836  44   -0.9  100   -0.9  107   0     996.6    NA       0.0000   9999     1800  0     0    
2019/08/26  14:21:00  BASE  4.94508  54   5.56836  44   -0.9  100   -0.9  111   0     996.6    NA       0.0000   9999     1770  0     0    
2019/08/26  14:22:00  BASE  5.15088  53   5.35668  54   -0.9  100   -0.9  115   0     996.6    NA       0.0000   9999     1870  0     0    
2019/08/26  14:23:00  BASE  5.1156   55   5.35668  54   -0.9  100   -0.9  120   0     996.6    NA       0.0000   9999     1900  0     0    
2019/08/26  14:24:00  BASE  4.98036  55   5.35668  54   -1.0  100   -1.0  123   0     996.6    NA       0.0000   9999     1900  0     0    
2019/08/26  14:25:00  BASE  4.78632  54   5.35668  54   -1.0  100   -1.0  124   0     996.7    NA       0.0000   9999     1870  0     0    
2019/08/26  14:26:00  BASE  4.56876  54   5.35668  54   -1.0  100   -1.0  125   0     996.7    NA       0.0000   9999     1840  0     0    
2019/08/26  14:27:00  BASE  4.41588  57   5.35668  54   -1.0  100   -1.0  125   0     996.7    NA       0.0000   9999     1770  0     0    
2019/08/26  14:28:00  BASE  4.28064  59   5.35668  54   -1.0  100   -1.0  125   0     996.7    NA       0.0000   9999     1840  0     0    
2019/08/26  14:29:00  BASE  4.3806   62   5.35668  54   -1.0  100   -1.0  127   0     996.7    NA       0.0000   9999     1770  23030 0    
2019/08/26  14:30:00  BASE  4.4688   64   5.35668  54   -1.1  100   -1.1  132   0     996.7    NA       0.0000   9999     1800  0     0    
2019/08/26  14:31:00  BASE  4.52172  66   5.35668  54   -1.1  100   -1.1  141   0     996.7    NA       0.0000   9999     1800  0     0    
2019/08/26  14:32:00  BASE  4.75104  66   5.3214   55   -1.1  100   -1.1  149   0     996.7    NA       0.0000   9999     1740  0     0    
2019/08/26  14:33:00  BASE  4.87452  66   5.38608  63   -1.2  100   -1.2  156   0     996.7    NA       0.0000   9999     1740  0     0    
2019/08/26  14:34:00  BASE  5.06268  64   5.56836  64   -1.2  100   -1.2  155   0     996.6    NA       0.0000   9999     1870  0     0    
2019/08/26  14:35:00  BASE  5.16264  64   5.56836  64   -1.2  100   -1.2  155   0     996.6    NA       0.0000   9999     1800  0     0    
2019/08/26  14:36:00  BASE  5.13324  65   5.59776  64   -1.2  100   -1.2  154   0     996.6    NA       0.0000   9999     1870  0     0    
2019/08/26  14:37:00  BASE  5.24496  66   5.59776  65   -1.3  100   -1.3  154   0     996.6    NA       0.0000   9999     1770  0     0    
2019/08/26  14:38:00  BASE  5.46252  65   5.80944  65   -1.3  100   -1.3  154   0     996.6    NA       0.0000   9999     1770  0     0    
2019/08/26  14:39:00  BASE  5.5272   64   5.99172  58   -1.3  100   -1.3  154   0     996.6    NA       0.0000   9999     1740  0     0    
2019/08/26  14:40:00  BASE  5.55072  65   5.99172  58   -1.4  100   -1.4  155   0     996.6    NA       0.0000   9999     1800  0     0    
2019/08/26  14:41:00  BASE  5.60952  66   6.16812  61   -1.5  100   -1.5  156   0     996.6    NA       0.0000   9999     1770  0     0    
2019/08/26  14:42:00  BASE  5.44488  64   6.16812  61   -1.6  100   -1.6  157   0     996.6    NA       0.0000   9999     0     0     0    
2019/08/26  14:43:00  BASE  5.06268  63   6.16812  61   -1.7  99    -1.8  160   0     996.7    NA       0.0000   9999     1800  0     0    
2019/08/26  14:44:00  BASE  4.7334   67   6.16812  61   -1.8  99    -1.9  162   0     996.7    NA       0.0000   9999     1840  0     0    
2019/08/26  14:45:00  BASE  4.45704  70   6.16812  61   -1.9  99    -2.0  165   0     996.7    NA       0.0000   9999     1840  0     0    
2019/08/26  14:46:00  BASE  4.21596  71   6.16812  61   -1.9  99    -2.0  167   0     996.7    NA       0.0000   9999     1840  0     0    
2019/08/26  14:47:00  BASE  4.116    71   6.16812  61   -1.8  99    -1.9  167   0     996.7    NA       0.0000   9999     1970  0     0    
2019/08/26  14:48:00  BASE  4.02192  70   6.16812  61   -1.8  99    -1.9  169   0     996.7    NA       0.0000   9999     0     0     0    
2019/08/26  14:49:00  BASE  3.63972  71   6.16812  61   -1.7  99    -1.8  169   0     996.7    NA       0.0000   9999     1940  0     0    
2019/08/26  14:50:00  BASE  3.39276  74   6.16812  61   -1.7  99    -1.8  171   0     996.7    NA       0.0000   9999     1900  0     0    
2019/08/26  14:51:00  BASE  3.7632   79   5.62716  66   -1.7  100   -1.8  173   0     996.7    NA       0.0000   9999     1870  0     0    
2019/08/26  14:52:00  BASE  3.8808   81   5.1744   62   -1.7  99    -1.8  175   0     996.7    NA       0.0000   9999     1900  0     0    
2019/08/26  14:53:00  BASE  3.7338   79   4.99212  69   -1.7  99    -1.8  177   0     996.7    NA       0.0000   9999     0     0     0    
2019/08/26  14:54:00  BASE  3.81024  79   4.53936  67   -1.7  99    -1.8  179   0     996.6    NA       0.0000   9999     0     0     0    
2019/08/26  14:55:00  BASE  3.53388  83   4.32768  83   -1.6  99    -1.8  181   0     996.6    NA       0.0000   9999     0     0     0    
2019/08/26  14:56:00  BASE  3.19284  87   4.32768  83   -1.6  98    -1.9  182   0     996.6    NA       0.0000   9999     0     0     0    
2019/08/26  14:57:00  BASE  3.22812  89   4.32768  83   -1.6  97    -2.0  185   0     996.6    NA       0.0000   9999     0     0     0    
2019/08/26  14:58:00  BASE  3.44568  93   4.32768  83   -1.7  96    -2.2  187   0     996.6    NA       0.0000   9999     0     0     0    
2019/08/26  14:59:00  BASE  3.81024  96   4.47468  104  -1.8  95    -2.4  189   0     996.6    NA       0.0000   9999     0     0     0    
2019/08/26  15:00:00  BASE  4.19832  98   4.65696  100  -1.8  95    -2.6  193   0     996.6    NA       0.0000   9999     0     0     0    
2019/08/26  15:01:00  BASE  4.65696  98   5.38608  95   -1.9  94    -2.7  196   0     996.6    NA       0.0000   9999     0     0     0    
2019/08/26  15:02:00  BASE  5.31552  95   5.83884  92   -1.9  94    -2.8  200   0     996.6    NA       0.0000   9999     0     0     0    
2019/08/26  15:03:00  BASE  5.59188  95   5.83884  92   -1.9  94    -2.8  204   0     996.6    NA       0.0000   9999     0     0     0    
2019/08/26  15:04:00  BASE  5.56248  100  5.95644  104  -1.9  93    -2.9  203   0     996.6    NA       0.0000   9999     0     0     0    
2019/08/26  15:05:00  BASE  5.54484  103  6.2622   101  -1.9  93    -2.9  201   0     996.6    NA       0.0000   9999     0     0     0    
2019/08/26  15:06:00  BASE  5.439    100  6.2622   101  -1.9  92    -3.1  203   0     996.6    NA       0.0000   9999     0     0     0    
2019/08/26  15:07:00  BASE  5.33904  95   6.2622   101  -1.9  91    -3.3  201   0     996.6    NA       0.0000   9999     0     0     0    
2019/08/26  15:08:00  BASE  5.50368  93   6.2622   101  -2.0  89    -3.5  199   0     996.6    NA       0.0000   9999     0     0     0    
2019/08/26  15:09:00  BASE  5.45076  94   6.2622   101  -1.9  88    -3.6  195   0     996.6    NA       0.0000   9999     0     0     0    
2019/08/26  15:10:00  BASE  5.1744   98   6.2622   101  -2.0  88    -3.7  198   0     996.6    NA       0.0000   9999     0     0     0    
2019/08/26  15:11:00  BASE  5.10972  101  6.2622   101  -2.0  87    -3.8  197   0     996.6    NA       0.0000   9999     0     0     0    
2019/08/26  15:12:00  BASE  4.94508  99   6.2622   101  -1.9  87    -3.8  186   0     996.6    NA       0.0000   9999     0     0     0    
2019/08/26  15:13:00  BASE  4.80984  96   6.2622   101  -1.9  87    -3.8  193   0     996.6    NA       0.0000   9999     0     0     0    
2019/08/26  15:14:00  BASE  4.53348  96   6.2622   101  -1.9  87    -3.7  198   0     996.6    NA       0.0000   9999     2460  0     0    
2019/08/26  15:15:00  BASE  4.3512   99   6.13872  96   -1.8  88    -3.6  199   0     996.6    NA       0.0000   9999     2430  0     0    
2019/08/26  15:16:00  BASE  4.5864   97   6.13872  96   -1.8  88    -3.6  196   0     996.6    NA       0.0000   9999     2400  0     0    
2019/08/26  15:17:00  BASE  4.72164  92   6.13872  96   -1.8  88    -3.5  193   0     996.6    NA       0.0000   9999     2400  0     0    
2019/08/26  15:18:00  BASE  4.74516  90   5.78004  98   -1.8  88    -3.6  192   0     996.6    NA       0.0000   9999     2460  0     0    
2019/08/26  15:19:00  BASE  4.68636  91   5.53308  101  -1.9  88    -3.6  196   0     996.6    NA       0.0000   9999     0     0     0    
2019/08/26  15:20:00  BASE  4.6452   92   5.3214   100  -1.9  88    -3.6  201   0     996.6    NA       0.0000   9999     0     0     0    
2019/08/26  15:21:00  BASE  4.59816  93   5.02152  90   -2.0  89    -3.6  201   0     996.6    NA       0.0000   9999     0     0     0    
2019/08/26  15:22:00  BASE  4.40412  92   5.02152  90   -2.0  89    -3.6  200   0     996.6    NA       0.0000   9999     0     0     0    
2019/08/26  15:23:00  BASE  4.28064  92   5.02152  90   -2.0  89    -3.6  196   0     996.6    NA       0.0000   9999     0     0     0    
2019/08/26  15:24:00  BASE  4.21008  92   5.02152  90   -2.0  89    -3.5  201   0     996.6    NA       0.0000   9999     0     0     0    
2019/08/26  15:25:00  BASE  4.12188  91   5.02152  90   -2.0  89    -3.5  206   0     996.6    NA       0.0000   9999     0     0     0    
2019/08/26  15:26:00  BASE  4.0572   92   5.02152  90   -2.0  90    -3.5  207   0     996.6    NA       0.0000   9999     0     0     0    
2019/08/26  15:27:00  BASE  3.98076  93   4.99212  92   -2.0  90    -3.4  204   0     996.7    NA       0.0000   9999     0     0     0    
2019/08/26  15:28:00  BASE  3.8514   92   4.99212  92   -2.0  90    -3.4  193   0     996.7    NA       0.0000   9999     2460  0     0    
2019/08/26  15:29:00  BASE  3.81024  91   4.99212  92   -2.0  90    -3.3  185   0     996.7    NA       0.0000   9999     2460  0     0    
2019/08/26  15:30:00  BASE  3.8808   96   4.68636  98   -2.0  90    -3.3  184   0     996.7    NA       0.0000   9999     0     0     0    
2019/08/26  15:31:00  BASE  3.77496  100  4.53936  95   -1.9  91    -3.2  182   0     996.7    NA       0.0000   9999     0     0     0    
2019/08/26  15:32:00  BASE  3.51624  99   4.53936  95   -1.8  91    -3.1  192   0     996.7    NA       0.0000   9999     0     0     0    
2019/08/26  15:33:00  BASE  3.31044  97   4.29828  97   -1.7  91    -3.0  189   0     996.7    NA       0.0000   9999     0     0     0    
2019/08/26  15:34:00  BASE  3.27516  96   4.29828  97   -1.6  91    -2.9  190   0     996.7    NA       0.0000   9999     0     0     0    
2019/08/26  15:35:00  BASE  3.44568  97   4.29828  97   -1.5  91    -2.8  180   0     996.7    NA       0.0000   9999     0     0     0    
2019/08/26  15:36:00  BASE  3.83376  100  4.263    102  -1.5  91    -2.8  178   0     996.6    NA       0.0000   9999     0     0     0    
2019/08/26  15:37:00  BASE  3.9396   96   4.263    102  -1.5  90    -2.9  176   0     996.6    NA       0.0000   9999     0     0     0    
2019/08/26  15:38:00  BASE  3.79848  91   4.263    102  -1.6  90    -3.1  175   0     996.6    NA       0.0000   9999     0     0     0    
2019/08/26  15:39:00  BASE  3.78672  92   4.263    102  -1.6  90    -3.1  176   0     996.6    NA       0.0000   9999     0     0     0    
2019/08/26  15:40:00  BASE  3.55152  90   4.263    102  -1.6  90    -3.0  174   0     996.7    NA       0.0000   9999     0     0     0    
2019/08/26  15:41:00  BASE  3.29868  89   4.263    102  -1.5  89    -3.0  171   0     996.7    NA       0.0000   9999     2430  0     0    
2019/08/26  15:42:00  BASE  3.1458   84   4.263    102  -1.4  89    -3.0  169   0     996.7    NA       0.0000   9999     0     0     0    
2019/08/26  15:43:00  BASE  3.07524  82   4.263    102  -1.3  89    -2.9  170   0     996.7    NA       0.0000   9999     0     0     0    
2019/08/26  15:44:00  BASE  3.44568  87   4.263    102  -1.3  88    -3.0  168   0     996.7    NA       0.0000   9999     0     0     0    
2019/08/26  15:45:00  BASE  3.72204  95   4.263    102  -1.3  88    -3.1  170   0     996.7    NA       0.0000   9999     0     0     0    
2019/08/26  15:46:00  BASE  3.528    97   4.2042   94   -1.3  88    -3.1  169   0     996.7    NA       0.0000   9999     0     0     0    
2019/08/26  15:47:00  BASE  3.41628  87   4.2042   94   -1.4  87    -3.2  167   0     996.7    NA       0.0000   9999     0     0     0    
2019/08/26  15:48:00  BASE  3.30456  78   4.08072  88   -1.4  87    -3.2  167   0     996.8    NA       0.0000   9999     0     0     0    
2019/08/26  15:49:00  BASE  2.94     74   4.08072  88   -1.4  88    -3.1  166   0     996.8    NA       0.0000   9999     0     0     0    
2019/08/26  15:50:00  BASE  2.69304  72   4.08072  88   -1.3  88    -3.0  165   0     996.8    NA       0.0000   9999     3840  0     0    
2019/08/26  15:51:00  BASE  2.62248  72   4.08072  88   -1.3  88    -3.0  167   0     996.8    NA       0.0000   9999     0     0     0    
2019/08/26  15:52:00  BASE  2.64012  72   4.08072  88   -1.1  88    -2.9  169   0     996.8    NA       0.0000   9999     0     0     0    
2019/08/26  15:53:00  BASE  2.62836  73   4.08072  88   -1.1  88    -2.8  174   0     996.7    NA       0.0000   9999     0     0     0    
2019/08/26  15:54:00  BASE  2.3226   76   3.86904  96   -1.2  88    -3.0  179   0     996.7    NA       0.0000   9999     0     0     0    
2019/08/26  15:55:00  BASE  2.14032  77   3.62796  104  -1.2  88    -3.0  177   0     996.7    NA       0.0000   9999     0     0     0    
2019/08/26  15:56:00  BASE  2.1756   75   3.59856  79   -1.2  88    -3.0  175   0     996.7    NA       0.0000   9999     0     0     0    
2019/08/26  15:57:00  BASE  2.04036  74   3.29868  82   -1.3  88    -3.0  171   0     996.7    NA       0.0000   9999     0     0     0    
2019/08/26  15:58:00  BASE  2.06976  73   2.96352  72   -1.3  89    -3.0  173   0     996.7    NA       0.0000   9999     0     0     0    
2019/08/26  15:59:00  BASE  2.32848  69   2.87532  66   -1.3  89    -2.9  172   0     996.7    NA       0.0000   9999     0     0     0    
2019/08/26  16:00:00  BASE  2.53428  63   2.87532  66   -1.3  90    -2.8  168   0     996.7    NA       0.0000   9999     0     0     0    
2019/08/26  16:01:00  BASE  2.69304  54   2.96352  40   -1.3  90    -2.7  171   0     996.7    NA       0.0000   9999     0     0     0    
2019/08/26  16:02:00  BASE  2.8224   46   2.96352  43   -1.3  91    -2.6  174   0     996.6    NA       0.0000   9999     0     0     0    
2019/08/26  16:03:00  BASE  2.86944  45   3.02232  49   -1.4  92    -2.5  174   0     996.6    NA       0.0000   9999     0     0     0    
2019/08/26  16:04:00  BASE  2.97528  47   3.44568  47   -1.4  92    -2.5  176   0     996.7    NA       0.0000   9999     0     0     0    
2019/08/26  16:05:00  BASE  3.04584  40   3.44568  47   -1.5  93    -2.5  175   0     996.6    NA       0.0000   9999     0     0     0    
2019/08/26  16:06:00  BASE  2.8812   37   3.44568  47   -1.6  93    -2.5  176   0     996.7    NA       0.0000   9999     0     0     0    
2019/08/26  16:07:00  BASE  3.087    39   4.05132  35   -1.7  94    -2.5  176   0     996.7    NA       0.0000   9999     0     0     0    
2019/08/26  16:08:00  BASE  3.90432  36   4.78044  32   -1.8  94    -2.5  176   0     996.7    NA       0.0000   9999     0     0     0    
2019/08/26  16:09:00  BASE  4.3218   28   4.86864  29   -1.8  95    -2.4  174   0     996.7    NA       0.0000   9999     0     0     0    
2019/08/26  16:10:00  BASE  3.95136  24   4.86864  29   -1.7  96    -2.3  175   0     996.7    NA       0.0000   9999     0     0     0    
2019/08/26  16:11:00  BASE  3.51036  27   4.86864  29   -1.7  97    -2.2  182   0     996.7    NA       0.0000   9999     0     0     0    
2019/08/26  16:12:00  BASE  3.25752  26   4.86864  29   -1.6  97    -2.0  186   0     996.7    NA       0.0000   9999     0     0     0    
2019/08/26  16:13:00  BASE  3.08112  20   4.86864  29   -1.6  98    -1.9  185   0     996.7    NA       0.0000   9999     3640  0     0    
2019/08/26  16:14:00  BASE  3.30456  15   4.86864  29   -1.6  98    -1.9  186   0     996.7    NA       0.0000   9999     3610  0     0    
2019/08/26  16:15:00  BASE  3.69264  8    4.86864  29   -1.6  98    -1.9  189   0     996.7    NA       0.0000   9999     3610  0     0    
2019/08/26  16:16:00  BASE  3.63972  6    4.86864  29   -1.7  98    -1.9  193   0     996.6    NA       0.0000   9999     0     0     0    
2019/08/26  16:17:00  BASE  3.72792  7    4.86864  29   -1.7  99    -1.8  193   0     996.6    NA       0.0000   9999     0     0     0    
2019/08/26  16:18:00  BASE  3.92196  6    4.86864  29   -1.6  99    -1.8  192   0     996.6    NA       0.0000   9999     0     0     0    
2019/08/26  16:19:00  BASE  3.8514   6    4.29828  6    -1.6  99    -1.7  192   0     996.6    NA       0.0000   9999     0     0     0    
2019/08/26  16:20:00  BASE  3.675    7    4.29828  6    -1.6  99    -1.7  190   0     996.6    NA       0.0000   9999     1870  0     0    
2019/08/26  16:21:00  BASE  3.57504  8    4.29828  6    -1.6  100   -1.7  189   0     996.6    NA       0.0000   9999     1870  0     0    
2019/08/26  16:22:00  BASE  3.9396   13   4.50996  17   -1.6  100   -1.6  190   0     996.6    NA       0.0000   9999     0     0     0    
2019/08/26  16:23:00  BASE  4.09836  18   4.50996  17   -1.6  100   -1.6  192   0     996.6    NA       0.0000   9999     23030 0     0    
2019/08/26  16:24:00  BASE  3.89844  19   4.50996  17   -1.7  100   -1.7  193   0     996.6    NA       0.0000   9999     0     0     0    
2019/08/26  16:25:00  BASE  4.16304  19   4.72164  20   -1.7  100   -1.7  196   0     996.6    NA       0.0000   9999     1840  0     0    
2019/08/26  16:26:00  BASE  4.27476  20   4.72164  20   -1.7  100   -1.7  197   0     996.6    NA       0.0000   9999     0     0     0    
2019/08/26  16:27:00  BASE  4.07484  20   4.72164  20   -1.7  100   -1.7  199   0     996.6    NA       0.0000   9999     0     0     0    
2019/08/26  16:28:00  BASE  3.9984   20   4.72164  20   -1.7  100   -1.7  199   0     996.6    NA       0.0000   9999     0     0     0    
2019/08/26  16:29:00  BASE  3.82788  22   4.72164  20   -1.7  100   -1.7  198   0     996.6    NA       0.0000   9999     0     0     0    
2019/08/26  16:30:00  BASE  3.8514   24   4.72164  20   -1.7  100   -1.7  197   0     996.6    NA       0.0000   9999     0     0     0    
2019/08/26  16:31:00  BASE  4.1454   23   4.72164  20   -1.7  100   -1.7  200   0     996.6    NA       0.0000   9999     0     0     0    
2019/08/26  16:32:00  BASE  4.35708  23   4.72164  20   -1.7  100   -1.7  200   0     996.6    NA       0.0000   9999     0     0     0    
2019/08/26  16:33:00  BASE  4.33356  24   4.78044  31   -1.7  100   -1.7  198   0     996.6    NA       0.0000   9999     0     0     0    
2019/08/26  16:34:00  BASE  4.19832  25   4.78044  31   -1.6  100   -1.6  195   0     996.5    NA       0.0000   9999     0     0     0    
2019/08/26  16:35:00  BASE  4.05132  26   4.78044  31   -1.6  100   -1.6  197   0     996.5    NA       0.0000   9999     0     0     0    
2019/08/26  16:36:00  BASE  3.86904  25   4.78044  31   -1.6  100   -1.6  197   0     996.5    NA       0.0000   9999     0     0     0    
2019/08/26  16:37:00  BASE  3.7044   24   4.78044  31   -1.6  100   -1.6  198   0     996.5    NA       0.0000   9999     0     0     0    
2019/08/26  16:38:00  BASE  3.5868   22   4.78044  31   -1.6  100   -1.6  199   0     996.5    NA       0.0000   9999     0     0     0    
2019/08/26  16:39:00  BASE  3.52212  19   4.78044  31   -1.6  100   -1.6  203   0     996.5    NA       0.0000   9999     0     0     0    
2019/08/26  16:40:00  BASE  3.39864  18   4.78044  31   -1.6  100   -1.6  194   0     996.5    NA       0.0000   9999     0     0     0    
2019/08/26  16:41:00  BASE  3.09876  18   4.78044  31   -1.6  100   -1.6  196   0     996.5    NA       0.0000   9999     0     0     0    
2019/08/26  16:42:00  BASE  2.7048   18   4.78044  31   -1.7  100   -1.7  197   0     996.5    NA       0.0000   9999     0     0     0    
2019/08/26  16:43:00  BASE  2.50488  19   4.38648  26   -1.7  100   -1.7  194   0     996.5    NA       0.0000   9999     0     0     0    
2019/08/26  16:44:00  BASE  2.65776  18   4.35708  21   -1.7  100   -1.7  192   0     996.5    NA       0.0000   9999     0     0     0    
2019/08/26  16:45:00  BASE  2.66952  20   3.96312  22   -1.8  100   -1.8  189   0     996.5    NA       0.0000   9999     0     0     0    
2019/08/26  16:46:00  BASE  2.35788  22   3.96312  22   -1.9  100   -1.9  189   0     996.6    NA       0.0000   9999     0     0     0    
2019/08/26  16:47:00  BASE  2.12268  25   3.96312  22   -2.0  100   -2.0  179   0     996.6    NA       0.0000   9999     0     0     0    
2019/08/26  16:48:00  BASE  2.25792  27   3.75144  15   -2.1  100   -2.1  167   0     996.6    NA       0.0000   9999     0     0     0    
2019/08/26  16:49:00  BASE  2.31672  25   3.56916  16   -2.1  100   -2.1  158   0     996.6    NA       0.0000   9999     0     0     0    
2019/08/26  16:50:00  BASE  2.12856  23   3.38688  12   -2.2  100   -2.2  153   0     996.6    NA       0.0000   9999     0     0     0    
2019/08/26  16:51:00  BASE  2.12856  20   3.02232  15   -2.3  100   -2.3  155   0     996.6    NA       0.0000   9999     0     0     0    
2019/08/26  16:52:00  BASE  2.47548  17   3.2046   15   -2.3  100   -2.3  158   0     996.6    NA       0.0000   9999     0     0     0    
2019/08/26  16:53:00  BASE  2.85768  15   3.2046   15   -2.3  100   -2.3  163   0     996.5    NA       0.0000   9999     0     0     0    
2019/08/26  16:54:00  BASE  2.99292  13   3.234    12   -2.3  100   -2.3  164   0     996.5    NA       0.0000   9999     0     0     0    
2019/08/26  16:55:00  BASE  2.8518   9    3.234    12   -2.3  100   -2.3  161   0     996.5    NA       0.0000   9999     0     0     0    
2019/08/26  16:56:00  BASE  2.71068  9    3.234    12   -2.3  100   -2.3  159   0     996.5    NA       0.0000   9999     0     0     0    
2019/08/26  16:57:00  BASE  2.95176  14   3.41628  18   -2.2  100   -2.2  160   0     996.5    NA       0.0000   9999     0     0     0    
2019/08/26  16:58:00  BASE  3.26928  15   3.56916  15   -2.2  100   -2.2  156   0     996.5    NA       0.0000   9999     0     0     0    
2019/08/26  16:59:00  BASE  3.45156  16   3.93372  13   -2.2  100   -2.2  152   0     996.5    NA       0.0000   9999     0     0     0    
2019/08/26  17:00:00  BASE  3.72792  16   4.1454   13   -2.2  100   -2.2  151   0     996.5    NA       0.0000   9999     0     0     0    
2019/08/26  17:01:00  BASE  3.98664  14   4.41588  14   -2.2  100   -2.2  153   0     996.5    NA       0.0000   9999     0     0     0    
2019/08/26  17:02:00  BASE  3.9984   13   4.41588  14   -2.1  100   -2.1  148   0     996.5    NA       0.0000   9999     0     0     0    
2019/08/26  17:03:00  BASE  3.83964  13   4.41588  14   -2.1  100   -2.1  146   0     996.5    NA       0.0000   9999     0     0     0    
2019/08/26  17:04:00  BASE  3.68676  13   4.41588  14   -2.1  100   -2.1  145   0     996.5    NA       0.0000   9999     0     0     0    
2019/08/26  17:05:00  BASE  3.6456   13   4.41588  14   -2.0  100   -2.0  144   0     996.5    NA       0.0000   9999     0     0     0    
2019/08/26  17:06:00  BASE  3.66912  15   4.41588  14   -2.0  100   -2.0  145   0     996.5    NA       0.0000   9999     0     0     0    
2019/08/26  17:07:00  BASE  3.69264  16   4.41588  14   -2.0  100   -2.0  150   0     996.4    NA       0.0000   9999     0     0     0    
2019/08/26  17:08:00  BASE  3.59268  15   4.41588  14   -2.0  100   -2.0  160   0     996.5    NA       0.0000   9999     0     0     0    
2019/08/26  17:09:00  BASE  3.2634   16   4.41588  14   -2.0  100   -2.0  163   0     996.5    NA       0.0000   9999     0     0     0    
2019/08/26  17:10:00  BASE  2.99292  18   4.41588  14   -1.9  100   -1.9  164   0     996.5    NA       0.0000   9999     0     0     0    
2019/08/26  17:11:00  BASE  2.88708  20   4.116    6    -1.9  100   -1.9  167   0     996.5    NA       0.0000   9999     0     0     0    
2019/08/26  17:12:00  BASE  2.54604  21   4.02192  9    -1.9  100   -1.9  170   0     996.5    NA       0.0000   9999     0     0     0    
2019/08/26  17:13:00  BASE  2.1756   24   4.02192  9    -2.0  100   -2.0  174   0     996.5    NA       0.0000   9999     0     0     0    
2019/08/26  17:14:00  BASE  1.85808  33   4.02192  9    -2.1  100   -2.1  177   0     996.5    NA       0.0000   9999     0     0     0    
2019/08/26  17:15:00  BASE  1.5582   40   4.02192  9    -2.2  100   -2.2  181   0     996.5    NA       0.0000   9999     0     0     0    
2019/08/26  17:16:00  BASE  1.7346   35   4.02192  9    -2.3  100   -2.3  185   0     996.5    NA       0.0000   9999     0     0     0    
2019/08/26  17:17:00  BASE  1.79928  24   3.75144  16   -2.3  100   -2.3  188   0     996.4    NA       0.0000   9999     0     0     0    
2019/08/26  17:18:00  BASE  1.7052   24   3.35748  18   -2.4  100   -2.4  188   0     996.4    NA       0.0000   9999     0     0     0    
2019/08/26  17:19:00  BASE  1.71696  31   3.35748  18   -2.4  100   -2.4  183   0     996.4    NA       0.0000   9999     0     0     0    
2019/08/26  17:20:00  BASE  1.84632  29   3.35748  18   -2.4  100   -2.4  181   0     996.4    NA       0.0000   9999     0     0     0    
2019/08/26  17:21:00  BASE  2.11092  33   3.087    34   -2.4  100   -2.4  178   0     996.4    NA       0.0000   9999     0     0     0    
2019/08/26  17:22:00  BASE  2.66364  37   3.53976  32   -2.3  100   -2.3  180   0     996.4    NA       0.0000   9999     0     0     0    
2019/08/26  17:23:00  BASE  3.36336  35   3.78084  38   -2.3  100   -2.3  180   0     996.4    NA       0.0000   9999     22640 0     0    
2019/08/26  17:24:00  BASE  3.62208  36   3.99252  35   -2.3  100   -2.3  182   0     996.4    NA       0.0000   9999     0     0     0    
2019/08/26  17:25:00  BASE  3.37512  38   3.99252  35   -2.2  100   -2.2  182   0     996.4    NA       0.0000   9999     0     0     0    
2019/08/26  17:26:00  BASE  2.98704  39   3.99252  35   -2.2  100   -2.2  181   0     996.4    NA       0.0000   9999     0     0     0    
2019/08/26  17:27:00  BASE  3.234    38   4.1454   36   -2.1  100   -2.1  187   0     996.3    NA       0.0000   9999     0     0     0    
2019/08/26  17:28:00  BASE  3.8808   34   4.35708  29   -2.1  100   -2.1  188   0     996.3    NA       0.0000   9999     0     0     0    
2019/08/26  17:29:00  BASE  4.1454   28   4.35708  25   -2.1  100   -2.1  190   0     996.3    NA       0.0000   9999     0     0     0    
2019/08/26  17:30:00  BASE  4.0278   22   4.35708  25   -2.1  100   -2.1  190   0     996.4    NA       0.0000   9999     0     0     0    
2019/08/26  17:31:00  BASE  4.29828  22   5.35668  26   -2.1  100   -2.1  193   0     996.4    NA       0.0000   9999     0     0     0    
2019/08/26  17:32:00  BASE  4.79808  25   5.35668  26   -2.0  100   -2.1  188   0     996.3    NA       0.0000   9999     0     0     0    
2019/08/26  17:33:00  BASE  5.12736  26   5.56836  27   -2.0  100   -2.0  186   0     996.3    NA       0.0000   9999     0     0     0    
2019/08/26  17:34:00  BASE  5.21556  29   5.56836  27   -1.9  99    -2.1  181   0     996.3    NA       0.0000   9999     0     0     0    
2019/08/26  17:35:00  BASE  4.82748  30   5.56836  27   -1.9  99    -2.1  178   0     996.3    NA       0.0000   9999     0     0     0    
2019/08/26  17:36:00  BASE  4.41588  32   5.56836  27   -1.9  98    -2.1  180   0     996.4    NA       0.0000   9999     0     0     0    
2019/08/26  17:37:00  BASE  4.19832  35   5.56836  27   -1.9  98    -2.2  183   0     996.4    NA       0.0000   9999     0     0     0    
2019/08/26  17:38:00  BASE  3.9396   34   5.56836  27   -1.9  97    -2.3  174   0     996.4    NA       0.0000   9999     0     0     0    
2019/08/26  17:39:00  BASE  3.76908  32   5.56836  27   -1.9  97    -2.4  171   0     996.4    NA       0.0000   9999     0     0     0    
2019/08/26  17:40:00  BASE  3.43392  31   5.56836  27   -1.9  96    -2.5  170   0     996.4    NA       0.0000   9999     0     0     0    
2019/08/26  17:41:00  BASE  3.13992  28   5.56836  27   -2.0  96    -2.6  166   0     996.5    NA       0.0000   9999     0     0     0    
2019/08/26  17:42:00  BASE  2.89296  28   5.56836  27   -1.9  95    -2.6  160   0     996.5    NA       0.0000   9999     0     0     0    
2019/08/26  17:43:00  BASE  2.77536  25   5.44488  33   -1.9  95    -2.6  159   0     996.5    NA       0.0000   9999     0     0     0    
2019/08/26  17:44:00  BASE  3.26928  17   5.08032  27   -1.9  95    -2.6  161   0     996.5    NA       0.0000   9999     0     0     0    
2019/08/26  17:45:00  BASE  3.53388  14   4.47468  35   -1.9  95    -2.6  160   0     996.5    NA       0.0000   9999     0     0     0    
2019/08/26  17:46:00  BASE  3.40452  18   4.41588  31   -1.8  95    -2.5  158   0     996.5    NA       0.0000   9999     0     0     0    
2019/08/26  17:47:00  BASE  3.00468  24   4.1454   32   -1.8  95    -2.5  157   0     996.5    NA       0.0000   9999     0     0     0    
2019/08/26  17:48:00  BASE  2.35788  31   4.1454   32   -1.7  95    -2.4  160   0     996.5    NA       0.0000   9999     0     0     0    
2019/08/26  17:49:00  BASE  1.98156  33   3.96312  12   -1.7  95    -2.4  163   0     996.5    NA       0.0000   9999     0     0     0    
2019/08/26  17:50:00  BASE  1.72284  38   3.96312  12   -1.6  95    -2.3  169   0     996.5    NA       0.0000   9999     2490  0     0    
2019/08/26  17:51:00  BASE  1.39356  46   3.96312  12   -1.5  95    -2.3  171   0     996.5    NA       0.0000   9999     2400  0     0    
2019/08/26  17:52:00  BASE  1.2642   40   3.96312  12   -1.4  95    -2.2  170   0     996.5    NA       0.0000   9999     2400  0     0    
2019/08/26  17:53:00  BASE  1.19952  36   3.96312  12   -1.3  94    -2.1  167   0     996.5    NA       0.0000   9999     2400  0     0    
2019/08/26  17:54:00  BASE  0.87024  78   3.81024  16   -1.2  94    -2.1  157   0     996.5    NA       0.0000   9999     2400  0     0    
2019/08/26  17:55:00  BASE  0.8232   105  3.81024  16   -1.1  93    -2.1  154   0     996.5    NA       0.0000   9999     2400  0     0    
2019/08/26  17:56:00  BASE  0.9408   80   3.0576   29   -1.0  92    -2.1  141   0     996.5    NA       0.0000   9999     2360  0     0    
2019/08/26  17:57:00  BASE  0.53508  64   2.69304  22   -1.1  92    -2.3  133   0     996.5    NA       0.0000   9999     2360  0     0    
2019/08/26  17:58:00  BASE  0.25872  59   2.69304  22   -1.0  91    -2.3  128   0     996.5    NA       0.0000   9999     2330  0     0    
2019/08/26  17:59:00  BASE  0.54096  55   1.78752  19   -1.0  91    -2.3  126   0     996.5    NA       0.0000   9999     2330  0     0    
2019/08/26  18:00:00  BASE  0.90552  38   1.78752  19   -1.1  90    -2.5  125   0     996.5    NA       0.0000   9999     2260  0     0    
2019/08/26  18:01:00  BASE  0.90552  17   1.78752  19   -1.1  90    -2.5  125   0     996.5    NA       0.0000   9999     2130  0     0    
2019/08/26  18:02:00  BASE  1.2348   15   2.1168   18   -1.1  90    -2.5  123   0     996.5    NA       0.0000   9999     2100  0     0    
2019/08/26  18:03:00  BASE  1.63464  16   2.1168   18   -1.1  90    -2.5  119   0     996.5    NA       0.0000   9999     2130  0     0    
2019/08/26  18:04:00  BASE  1.56408  21   2.1168   18   -1.1  90    -2.5  115   0     996.5    NA       0.0000   9999     2100  0     0    
2019/08/26  18:05:00  BASE  1.39356  19   2.1168   18   -1.1  90    -2.5  110   0     996.4    NA       0.0000   9999     2130  0     0    
2019/08/26  18:06:00  BASE  1.07604  7    2.1168   18   -1.1  90    -2.5  106   0     996.4    NA       0.0000   9999     2070  0     0    
2019/08/26  18:07:00  BASE  1.00548  4    2.1168   18   -1.1  90    -2.5  101   0     996.4    NA       0.0000   9999     2000  0     0    
2019/08/26  18:08:00  BASE  1.31124  7    2.1168   18   -1.1  90    -2.5  98    0     996.3    NA       0.0000   9999     2030  0     0    
2019/08/26  18:09:00  BASE  1.62876  358  2.1168   18   -1.1  90    -2.5  94    0     996.2    NA       0.0000   9999     2030  22310 0    
2019/08/26  18:10:00  BASE  1.64052  350  2.1168   18   -1.1  90    -2.5  92    0     996.3    NA       0.0000   9999     1870  0     0    
2019/08/26  18:11:00  BASE  1.66992  346  2.1168   18   -1.0  90    -2.5  89    0     996.2    NA       0.0000   9999     1840  0     0    
2019/08/26  18:12:00  BASE  1.911    335  2.35788  326  -1.0  90    -2.4  87    0     996.3    NA       0.0000   9999     1900  0     0    
2019/08/26  18:13:00  BASE  2.21088  328  2.63424  322  -1.0  90    -2.4  87    0     996.3    NA       0.0000   9999     1840  0     0    
2019/08/26  18:14:00  BASE  2.24028  322  2.63424  322  -1.0  90    -2.4  87    0     996.4    NA       0.0000   9999     1710  2130  0    
2019/08/26  18:15:00  BASE  2.0874   324  2.72244  328  -1.0  90    -2.4  86    0     996.4    NA       0.0000   9999     1480  2620  0    
2019/08/26  18:16:00  BASE  1.8816   333  2.72244  328  -1.0  90    -2.4  85    0     996.4    NA       0.0000   9999     1480  2560  0    
2019/08/26  18:17:00  BASE  1.64052  339  2.72244  328  -1.0  90    -2.4  87    0     996.4    NA       0.0000   9999     1610  0     0    
2019/08/26  18:18:00  BASE  1.89336  347  2.81064  9    -1.0  91    -2.4  90    0     996.4    NA       0.0000   9999     1570  2070  23030
2019/08/26  18:19:00  BASE  2.09916  14   2.81064  9    -1.1  91    -2.4  92    0     996.4    NA       0.0000   9999     1610  0     0    
2019/08/26  18:20:00  BASE  2.15796  28   2.81064  9    -1.2  91    -2.4  94    0     996.3    NA       0.0000   9999     1570  0     0    
2019/08/26  18:21:00  BASE  2.31672  17   2.81064  9    -1.3  92    -2.4  94    0     996.3    NA       0.0000   9999     1640  0     0    
2019/08/26  18:22:00  BASE  2.37552  9    2.81064  9    -1.2  92    -2.3  95    0     996.2    NA       0.0000   9999     1900  0     0    
2019/08/26  18:23:00  BASE  2.40492  359  3.1752   339  -1.2  93    -2.2  94    0     996.2    NA       0.0000   9999     1770  0     0    
2019/08/26  18:24:00  BASE  2.60484  345  3.62796  315  -1.2  93    -2.1  95    0     996.1    NA       0.0000   9999     2100  0     0    
2019/08/26  18:25:00  BASE  3.00468  344  3.69264  336  -1.1  93    -2.0  95    0     996.1    NA       0.0000   9999     2070  0     0    
2019/08/26  18:26:00  BASE  3.4692   344  4.1454   339  -1.0  94    -1.9  94    0     996.1    NA       0.0000   9999     1900  0     0    
2019/08/26  18:27:00  BASE  3.77496  344  4.1454   339  -1.0  94    -1.9  94    0     996.1    NA       0.0000   9999     2200  0     0    
2019/08/26  18:28:00  BASE  3.51624  346  4.1454   339  -1.0  94    -1.9  91    0     996.1    NA       0.0000   9999     2300  0     0    
2019/08/26  18:29:00  BASE  3.2634   341  4.1454   339  -1.0  94    -1.8  89    0     996.1    NA       0.0000   9999     2260  0     0    
2019/08/26  18:30:00  BASE  3.22224  337  4.1454   339  -1.0  95    -1.7  89    0     996.1    NA       0.0000   9999     2620  0     0    
2019/08/26  18:31:00  BASE  2.94     338  4.1454   339  -1.0  95    -1.6  89    0     996.1    NA       0.0000   9999     2660  0     0    
2019/08/26  18:32:00  BASE  2.83416  339  4.1454   339  -1.0  96    -1.6  90    0     996.1    NA       0.0000   9999     0     0     0    
2019/08/26  18:33:00  BASE  2.74596  338  4.1454   339  -1.0  96    -1.6  94    0     996.1    NA       0.0000   9999     0     0     0    
2019/08/26  18:34:00  BASE  2.31084  355  4.1454   339  -1.0  96    -1.5  96    0     996.1    NA       0.0000   9999     0     0     0    
2019/08/26  18:35:00  BASE  2.04036  24   4.1454   339  -1.0  96    -1.5  96    0     996.1    NA       0.0000   9999     0     0     0    
2019/08/26  18:36:00  BASE  2.69892  27   4.116    352  -1.0  97    -1.5  94    0     996.1    NA       0.0000   9999     0     0     0    
2019/08/26  18:37:00  BASE  3.59268  26   4.83924  14   -1.0  97    -1.5  96    0     996.1    NA       0.0000   9999     0     0     0    
2019/08/26  18:38:00  BASE  3.98076  30   4.83924  14   -1.0  97    -1.4  101   0     996.0    NA       0.0000   9999     0     0     0    
2019/08/26  18:39:00  BASE  4.52172  29   5.80944  35   -1.0  97    -1.4  101   0     996.0    NA       0.0000   9999     2130  0     0    
2019/08/26  18:40:00  BASE  4.60404  29   5.80944  35   -1.0  97    -1.4  100   0     996.0    NA       0.0000   9999     1540  2260  0    
2019/08/26  18:41:00  BASE  4.25712  30   5.80944  35   -0.9  97    -1.3  101   0     996.0    NA       0.0000   9999     1570  2230  0    
2019/08/26  18:42:00  BASE  4.41     31   5.80944  35   -0.9  97    -1.3  103   0     996.0    NA       0.0000   9999     0     0     0    
2019/08/26  18:43:00  BASE  4.73928  31   5.80944  35   -1.0  97    -1.4  104   0     996.0    NA       0.0000   9999     0     0     0    
2019/08/26  18:44:00  BASE  4.93332  29   6.07992  33   -1.1  97    -1.5  104   0     996.0    NA       0.0000   9999     24120 0     0    
2019/08/26  18:45:00  BASE  4.94508  29   6.07992  33   -1.1  97    -1.5  103   0     996.0    NA       0.0000   9999     0     0     0    
2019/08/26  18:46:00  BASE  4.94508  29   6.07992  33   -1.2  97    -1.5  102   0     996.0    NA       0.0000   9999     0     0     0    
2019/08/26  18:47:00  BASE  5.28024  29   6.07992  33   -1.2  98    -1.6  102   0     995.9    NA       0.0000   9999     0     0     0    
2019/08/26  18:48:00  BASE  5.52132  28   6.07992  33   -1.3  98    -1.6  102   0     995.9    NA       0.0000   9999     0     0     0    
2019/08/26  18:49:00  BASE  5.39196  25   6.2916   23   -1.2  98    -1.5  101   0     995.9    NA       0.0000   9999     0     0     0    
2019/08/26  18:50:00  BASE  4.87452  22   6.2916   23   -1.2  98    -1.4  101   0     995.9    NA       0.0000   9999     0     0     0    
2019/08/26  18:51:00  BASE  3.87492  15   6.2916   23   -1.1  98    -1.4  100   0     995.9    NA       0.0000   9999     0     0     0    
2019/08/26  18:52:00  BASE  3.56328  14   6.2916   23   -1.1  98    -1.3  100   0     995.9    NA       0.0000   9999     0     0     0    
2019/08/26  18:53:00  BASE  4.02192  20   6.2916   23   -1.0  98    -1.3  98    0     995.9    NA       0.0000   9999     0     0     0    
2019/08/26  18:54:00  BASE  3.6162   18   6.2916   23   -1.0  98    -1.2  97    0     995.9    NA       0.0000   9999     0     0     0    
2019/08/26  18:55:00  BASE  3.56328  18   6.2916   23   -1.0  98    -1.2  96    0     995.8    NA       0.0000   9999     0     0     0    
2019/08/26  18:56:00  BASE  4.5276   1    6.2916   23   -0.9  98    -1.2  95    0     995.8    NA       0.0000   9999     0     0     0    
2019/08/26  18:57:00  BASE  4.23948  336  6.2916   23   -0.8  98    -1.1  94    0     995.8    NA       0.0000   9999     0     0     0    
2019/08/26  18:58:00  BASE  3.63384  344  6.2916   23   -0.7  98    -0.9  94    0     995.8    NA       0.0000   9999     0     0     0    
2019/08/26  18:59:00  BASE  3.1458   342  5.35668  337  -0.6  98    -0.8  93    0     995.7    NA       0.0000   9999     0     0     0    
2019/08/26  19:00:00  BASE  2.09916  356  5.35668  337  -0.4  98    -0.7  92    0     995.7    NA       0.0000   9999     0     0     0    
2019/08/26  19:01:00  BASE  1.92276  32   5.35668  337  -0.3  97    -0.7  91    0     995.7    NA       0.0000   9999     0     0     0    
2019/08/26  19:02:00  BASE  2.44608  31   5.35668  337  -0.4  97    -0.8  90    0     995.6    NA       0.0000   9999     0     0     0    
2019/08/26  19:03:00  BASE  2.1756   27   5.35668  337  -0.4  96    -1.0  88    0     995.5    NA       0.0000   9999     0     0     0    
2019/08/26  19:04:00  BASE  1.56996  9    5.35668  337  -0.5  95    -1.2  87    0     995.5    NA       0.0000   9999     0     0     0    
2019/08/26  19:05:00  BASE  1.7934   347  5.35668  337  -0.6  94    -1.4  86    0     995.5    NA       0.0000   9999     0     0     0    
2019/08/26  19:06:00  BASE  1.28184  343  4.83924  351  -0.7  94    -1.5  85    0     995.5    NA       0.0000   9999     0     0     0    
2019/08/26  19:07:00  BASE  0.57624  349  4.83924  351  -0.7  94    -1.6  83    0     995.4    NA       0.0000   9999     0     0     0    
2019/08/26  19:08:00  BASE  0.77616  6    4.2042   341  -0.7  94    -1.6  82    0     995.4    NA       0.0000   9999     0     0     0    
2019/08/26  19:09:00  BASE  0.81144  19   3.32808  27   -0.7  94    -1.6  81    0     995.4    NA       0.0000   9999     0     0     0    
2019/08/26  19:10:00  BASE  0.41748  32   3.32808  27   -0.8  94    -1.6  80    0     995.4    NA       0.0000   9999     0     0     0    
2019/08/26  19:11:00  BASE  0.0294   36   3.32808  27   -0.7  94    -1.6  79    0     995.4    NA       0.0000   9999     0     0     0    
2019/08/26  19:12:00  BASE  0.42924  358  2.78124  343  -0.8  94    -1.6  78    0     995.4    NA       0.0000   9999     0     0     0    
2019/08/26  19:13:00  BASE  0.5586   323  2.78124  343  -0.8  94    -1.7  77    0     995.4    NA       0.0000   9999     0     0     0    
2019/08/26  19:14:00  BASE  0.15876  312  2.78124  343  -0.9  94    -1.7  76    0     995.4    NA       0.0000   9999     0     0     0    
2019/08/26  19:15:00  BASE  0.12936  307  1.42296  360  -0.9  94    -1.7  75    0     995.4    NA       0.0000   9999     0     0     0    
2019/08/26  19:16:00  BASE  0.21756  296  1.42296  360  -0.9  95    -1.6  74    0     995.4    NA       0.0000   9999     0     0     0    
2019/08/26  19:17:00  BASE  0.22932  346  1.42296  360  -0.9  95    -1.6  73    0     995.4    NA       0.0000   9999     0     0     0    
2019/08/26  19:18:00  BASE  0.1176   73   1.42296  360  -0.9  95    -1.6  72    0     995.4    NA       0.0000   9999     0     0     0    
2019/08/26  19:19:00  BASE  0.15876  185  1.42296  360  -0.9  95    -1.6  71    0     995.4    NA       0.0000   9999     0     0     0    
2019/08/26  19:20:00  BASE  0.71148  225  1.54056  204  -0.9  95    -1.6  70    0     995.4    NA       0.0000   9999     0     0     0    
2019/08/26  19:21:00  BASE  1.30536  213  1.57584  202  -0.9  95    -1.6  69    0     995.4    NA       0.0000   9999     0     0     0    
2019/08/26  19:22:00  BASE  1.4406   202  1.69344  189  -1.0  95    -1.7  67    0     995.4    NA       0.0000   9999     0     0     0    
2019/08/26  19:23:00  BASE  1.13484  193  1.69344  189  -1.0  95    -1.7  66    0     995.4    NA       0.0000   9999     0     0     0    
2019/08/26  19:24:00  BASE  0.94668  180  1.69344  189  -1.1  95    -1.7  65    0     995.4    NA       0.0000   9999     0     0     0    
2019/08/26  19:25:00  BASE  0.92904  169  1.69344  189  -1.2  95    -1.8  64    0     995.3    NA       0.0000   9999     0     0     0    
2019/08/26  19:26:00  BASE  0.50568  156  1.69344  189  -1.3  96    -1.9  63    0     995.3    NA       0.0000   9999     0     0     0    
2019/08/26  19:27:00  BASE  0.08232  121  1.69344  189  -1.3  96    -1.8  62    0     995.3    NA       0.0000   9999     0     0     0    
2019/08/26  19:28:00  BASE  0        135  1.69344  189  -1.2  97    -1.7  61    0     995.3    NA       0.0000   9999     0     0     0    
2019/08/26  19:29:00  BASE  0        229  1.69344  189  -1.2  97    -1.5  60    0     995.3    NA       0.0000   9999     0     0     0    
2019/08/26  19:30:00  BASE  0.38808  227  1.69344  189  -1.0  98    -1.3  59    0     995.3    NA       0.0000   9999     0     0     0    
2019/08/26  19:31:00  BASE  0.78204  224  1.69344  189  -0.9  98    -1.2  58    0     995.3    NA       0.0000   9999     0     0     0    
2019/08/26  19:32:00  BASE  0.8232   227  1.1466   175  -0.8  97    -1.2  57    0     995.3    NA       0.0000   9999     0     0     0    
2019/08/26  19:33:00  BASE  1.0584   227  1.45236  220  -0.8  97    -1.3  56    0     995.3    NA       0.0000   9999     0     0     0    
2019/08/26  19:34:00  BASE  1.37592  216  1.75224  190  -0.9  96    -1.5  56    0     995.3    NA       0.0000   9999     0     0     0    
2019/08/26  19:35:00  BASE  1.48176  195  1.75224  190  -1.1  96    -1.7  55    0     995.3    NA       0.0000   9999     0     0     0    
2019/08/26  19:36:00  BASE  1.57584  184  2.45196  164  -1.3  96    -1.9  54    0     995.2    NA       0.0000   9999     0     0     0    
2019/08/26  19:37:00  BASE  1.8228   171  2.54016  171  -1.4  96    -2.0  53    0     995.2    NA       0.0000   9999     0     0     0    
2019/08/26  19:38:00  BASE  2.14032  155  2.96352  154  -1.6  96    -2.1  53    0     995.2    NA       0.0000   9999     0     0     0    
2019/08/26  19:39:00  BASE  2.52252  149  2.96352  154  -1.8  97    -2.2  52    0     995.1    NA       0.0000   9999     0     0     0    
2019/08/26  19:40:00  BASE  2.76948  151  2.96352  154  -1.9  97    -2.3  51    0     995.1    NA       0.0000   9999     0     0     0    
2019/08/26  19:41:00  BASE  2.64012  153  2.96352  154  -2.0  98    -2.3  50    0     995.1    NA       0.0000   9999     0     0     0    
2019/08/26  19:42:00  BASE  2.36376  153  2.96352  154  -2.1  99    -2.2  50    0     995.0    NA       0.0000   9999     0     0     0    
2019/08/26  19:43:00  BASE  2.01684  152  2.96352  154  -2.0  99    -2.1  49    0     994.9    NA       0.0000   9999     0     0     0    
2019/08/26  19:44:00  BASE  1.59936  151  2.96352  154  -1.9  100   -2.0  48    0     994.9    NA       0.0000   9999     0     0     0    
2019/08/26  19:45:00  BASE  1.55232  148  2.96352  154  -1.8  100   -1.8  47    0     994.9    NA       0.0000   9999     0     0     0    
2019/08/26  19:46:00  BASE  1.71696  145  2.96352  154  -1.7  100   -1.7  46    0     994.9    NA       0.0000   9999     0     0     0    
2019/08/26  19:47:00  BASE  1.98156  136  2.96352  154  -1.6  100   -1.6  46    0     994.9    NA       0.0000   9999     0     0     0    
2019/08/26  19:48:00  BASE  2.25204  124  2.90472  154  -1.6  100   -1.6  45    0     994.9    NA       0.0000   9999     0     0     0    
2019/08/26  19:49:00  BASE  2.42844  117  2.90472  154  -1.6  100   -1.7  44    0     994.9    NA       0.0000   9999     0     0     0    
2019/08/26  19:50:00  BASE  2.65188  114  3.44568  115  -1.8  100   -1.8  43    0     994.8    NA       0.0000   9999     0     0     0    
2019/08/26  19:51:00  BASE  2.93412  109  3.44568  115  -1.9  99    -2.0  42    0     994.8    NA       0.0000   9999     0     0     0    
2019/08/26  19:52:00  BASE  3.12228  107  3.44568  115  -2.0  99    -2.1  41    0     994.8    NA       0.0000   9999     0     0     0    
2019/08/26  19:53:00  BASE  3.11052  106  3.44568  104  -2.0  99    -2.2  41    0     994.7    NA       0.0000   9999     0     0     0    
2019/08/26  19:54:00  BASE  2.86944  102  3.44568  104  -2.0  98    -2.2  40    0     994.7    NA       0.0000   9999     0     0     0    
2019/08/26  19:55:00  BASE  2.4696   100  3.44568  104  -1.8  98    -2.1  39    0     994.7    NA       0.0000   9999     0     0     0    
2019/08/26  19:56:00  BASE  2.54016  97   3.44568  104  -1.8  98    -2.1  38    0     994.7    NA       0.0000   9999     0     0     0    
2019/08/26  19:57:00  BASE  3.0576   89   3.59856  86   -1.7  97    -2.1  38    0     994.7    NA       0.0000   9999     0     0     0    
2019/08/26  19:58:00  BASE  3.27516  83   3.59856  86   -1.7  97    -2.1  37    0     994.7    NA       0.0000   9999     0     0     0    
2019/08/26  19:59:00  BASE  3.16932  78   3.59856  86   -1.6  97    -2.1  36    0     994.7    NA       0.0000   9999     0     0     0    
2019/08/26  20:00:00  BASE  3.12816  78   3.59856  86   -1.7  97    -2.1  35    0     994.8    NA       0.0000   9999     0     0     0    
2019/08/26  20:01:00  BASE  3.03996  83   3.59856  86   -1.7  96    -2.2  34    0     994.8    NA       0.0000   9999     0     0     0    
2019/08/26  20:02:00  BASE  2.78712  85   3.59856  86   -1.6  97    -2.1  33    0     994.8    NA       0.0000   9999     0     0     0    
2019/08/26  20:03:00  BASE  2.45196  88   3.59856  86   -1.6  97    -2.1  33    0     994.8    NA       0.0000   9999     0     0     0    
2019/08/26  20:04:00  BASE  2.15796  94   3.59856  86   -1.6  97    -2.1  32    0     994.7    NA       0.0000   9999     0     0     0    
2019/08/26  20:05:00  BASE  2.06976  105  3.59856  86   -1.6  97    -2.0  31    0     994.7    NA       0.0000   9999     0     0     0    
2019/08/26  20:06:00  BASE  2.45196  112  3.59856  86   -1.6  96    -2.1  30    0     994.7    NA       0.0000   9999     0     0     0    
2019/08/26  20:07:00  BASE  2.57544  120  3.48096  69   -1.7  96    -2.3  29    0     994.7    NA       0.0000   9999     0     0     0    
2019/08/26  20:08:00  BASE  2.22852  129  3.48096  69   -1.9  95    -2.6  28    0     994.7    NA       0.0000   9999     0     0     0    
2019/08/26  20:09:00  BASE  2.6754   124  4.1748   120  -2.1  95    -2.8  27    0     994.7    NA       0.0000   9999     0     0     0    
2019/08/26  20:10:00  BASE  3.66324  118  4.263    124  -2.2  95    -2.9  26    0     994.6    NA       0.0000   9999     0     0     0    
2019/08/26  20:11:00  BASE  4.04544  119  4.263    124  -2.2  96    -2.7  26    0     994.6    NA       0.0000   9999     0     0     0    
2019/08/26  20:12:00  BASE  3.91608  118  4.263    124  -2.0  96    -2.5  25    0     994.6    NA       0.0000   9999     0     0     0    
2019/08/26  20:13:00  BASE  3.77496  117  4.263    120  -1.8  97    -2.2  24    0     994.6    NA       0.0000   9999     0     0     0    
2019/08/26  20:14:00  BASE  3.50448  112  4.263    120  -1.6  97    -2.0  23    0     994.6    NA       0.0000   9999     0     0     0    
2019/08/26  20:15:00  BASE  3.21048  104  4.263    120  -1.5  96    -2.0  23    0     994.6    NA       0.0000   9999     0     0     0    
2019/08/26  20:16:00  BASE  3.10464  100  4.263    120  -1.4  96    -1.9  22    0     994.6    NA       0.0000   9999     0     0     0    
2019/08/26  20:17:00  BASE  3.05172  101  4.263    120  -1.4  96    -1.9  21    0     994.6    NA       0.0000   9999     0     0     0    
2019/08/26  20:18:00  BASE  3.06936  107  4.263    120  -1.4  96    -2.0  20    0     994.6    NA       0.0000   9999     0     0     0    
2019/08/26  20:19:00  BASE  3.087    112  4.263    120  -1.5  96    -2.1  20    0     994.6    NA       0.0000   9999     0     0     0    
2019/08/26  20:20:00  BASE  2.98704  116  4.263    120  -1.6  95    -2.2  19    0     994.6    NA       0.0000   9999     0     0     0    
2019/08/26  20:21:00  BASE  2.94     119  4.263    120  -1.7  95    -2.4  18    0     994.7    NA       0.0000   9999     0     0     0    
2019/08/26  20:22:00  BASE  3.18108  120  4.263    120  -1.8  95    -2.5  18    0     994.7    NA       0.0000   9999     0     0     0    
2019/08/26  20:23:00  BASE  3.42216  120  3.69264  119  -1.8  95    -2.4  17    0     994.7    NA       0.0000   9999     0     0     0    
2019/08/26  20:24:00  BASE  3.50448  118  3.81024  121  -1.7  96    -2.3  16    0     994.7    NA       0.0000   9999     0     0     0    
2019/08/26  20:25:00  BASE  3.44568  113  3.81024  115  -1.5  96    -2.2  16    0     994.7    NA       0.0000   9999     0     0     0    
2019/08/26  20:26:00  BASE  3.39276  111  3.81024  115  -1.5  96    -2.1  15    0     994.7    NA       0.0000   9999     0     0     0    
2019/08/26  20:27:00  BASE  3.43392  111  3.83964  108  -1.5  95    -2.2  15    0     994.7    NA       0.0000   9999     0     0     0    
2019/08/26  20:28:01  BASE  3.58092  113  3.86904  115  -1.6  95    -2.3  14    0     994.7    NA       0.0000   9999     0     0     0    
2019/08/26  20:29:00  BASE  3.77496  116  4.263    114  -1.7  95    -2.4  14    0     994.7    NA       0.0000   9999     0     0     0    
2019/08/26  20:30:01  BASE  3.8808   118  4.263    114  -1.8  95    -2.4  13    0     994.7    NA       0.0000   9999     0     0     0    
2019/08/26  20:31:01  BASE  4.116    119  4.89804  121  -1.7  96    -2.3  13    0     994.7    NA       0.0000   9999     0     0     0    
2019/08/26  20:32:00  BASE  4.50996  120  4.99212  117  -1.5  96    -2.1  12    0     994.7    NA       0.0000   9999     0     0     0    
2019/08/26  20:33:00  BASE  4.56876  121  4.99212  117  -1.3  96    -1.9  12    0     994.7    NA       0.0000   9999     0     0     0    
2019/08/26  20:34:00  BASE  4.69224  124  5.2038   124  -1.1  96    -1.7  11    0     994.7    NA       0.0000   9999     0     0     0    
2019/08/26  20:35:00  BASE  4.82748  124  5.2038   124  -1.0  96    -1.5  11    0     994.7    NA       0.0000   9999     0     0     0    
2019/08/26  20:36:00  BASE  4.52172  124  5.2038   124  -0.8  96    -1.4  10    0     994.7    NA       0.0000   9999     0     0     0    
2019/08/26  20:37:00  BASE  4.49232  125  5.2038   127  -0.7  95    -1.4  10    0     994.7    NA       0.0000   9999     0     0     0    
2019/08/26  20:38:00  BASE  4.74516  126  5.2332   129  -0.7  95    -1.5  9     0     994.7    NA       0.0000   9999     0     0     0    
2019/08/26  20:39:00  BASE  4.68636  128  5.2332   129  -0.8  94    -1.6  9     0     994.7    NA       0.0000   9999     0     0     0    
2019/08/26  20:40:00  BASE  4.2042   127  5.2332   129  -0.8  93    -1.8  9     0     994.7    NA       0.0000   9999     0     0     0    
2019/08/26  20:41:00  BASE  4.12776  127  5.2332   129  -1.0  93    -2.0  8     0     994.6    NA       0.0000   9999     0     0     0    
2019/08/26  20:42:00  BASE  4.69224  131  5.292    134  -1.1  92    -2.2  8     0     994.5    NA       0.0000   9999     0     0     0    
2019/08/26  20:43:00  BASE  5.19792  135  5.99172  136  -1.3  92    -2.4  7     0     994.6    NA       0.0000   9999     0     0     0    
2019/08/26  20:44:00  BASE  5.50368  135  5.99172  136  -1.4  92    -2.5  7     0     994.6    NA       0.0000   9999     0     0     0    
2019/08/26  20:45:00  BASE  5.58012  133  5.99172  136  -1.6  93    -2.6  6     0     994.6    NA       0.0000   9999     0     0     0    
2019/08/26  20:46:00  BASE  5.37432  130  6.10932  130  -1.7  93    -2.7  6     0     994.6    NA       0.0000   9999     0     0     0    
2019/08/26  20:47:00  BASE  5.60364  128  6.89724  126  -1.9  94    -2.8  6     0     994.6    NA       0.0000   9999     0     0     0    
2019/08/26  20:48:00  BASE  6.13284  126  7.07952  129  -1.9  94    -2.8  5     0     994.6    NA       0.0000   9999     0     0     0    
2019/08/26  20:49:00  BASE  6.27396  124  7.07952  129  -2.0  95    -2.7  5     0     994.5    NA       0.0000   9999     0     0     0    
2019/08/26  20:50:00  BASE  6.81492  124  7.71456  127  -1.9  95    -2.6  5     0     994.5    NA       0.0000   9999     0     0     0    
2019/08/26  20:51:00  BASE  7.24416  124  7.71456  127  -1.9  95    -2.5  4     0     994.5    NA       0.0000   9999     0     0     0    
2019/08/26  20:52:00  BASE  7.36176  123  7.92624  121  -1.8  95    -2.4  4     0     994.4    NA       0.0000   9999     0     0     0    
2019/08/26  20:53:00  BASE  7.46172  122  7.92624  121  -1.7  95    -2.4  4     0     994.4    NA       0.0000   9999     0     0     0    
2019/08/26  20:54:00  BASE  7.27944  123  7.92624  121  -1.6  95    -2.4  3     0     994.4    NA       0.0000   9999     0     0     0    
2019/08/26  20:55:00  BASE  7.22652  123  7.92624  121  -1.6  94    -2.4  3     0     994.4    NA       0.0000   9999     0     0     0    
2019/08/26  20:56:00  BASE  7.3206   121  7.92624  125  -1.5  94    -2.4  3     0     994.4    NA       0.0000   9999     0     0     0    
2019/08/26  20:57:00  BASE  7.46172  123  8.04384  126  -1.5  93    -2.4  3     0     994.4    NA       0.0000   9999     0     0     0    
2019/08/26  20:58:00  BASE  7.37352  123  8.04384  126  -1.4  93    -2.4  3     0     994.4    NA       0.0000   9999     0     0     0    
2019/08/26  20:59:00  BASE  7.203    121  8.04384  126  -1.3  92    -2.5  2     0     994.4    NA       0.0000   9999     0     0     0    
2019/08/26  21:00:00  BASE  7.02072  118  8.04384  126  -1.3  92    -2.5  2     0     994.4    NA       0.0000   9999     0     0     0    
2019/08/26  21:01:00  BASE  6.95016  116  8.04384  126  -1.2  91    -2.5  2     0     994.4    NA       0.0000   9999     0     0     0    
2019/08/26  21:02:00  BASE  6.73848  115  8.04384  126  -1.2  91    -2.5  2     0     994.4    NA       0.0000   9999     0     0     0    
2019/08/26  21:03:00  BASE  6.3504   114  8.04384  126  -1.1  90    -2.6  2     0     994.4    NA       0.0000   9999     0     0     0    
2019/08/26  21:04:00  BASE  6.20928  112  8.04384  126  -1.1  89    -2.6  1     0     994.4    NA       0.0000   9999     0     0     0    
2019/08/26  21:05:00  BASE  6.12108  112  8.04384  126  -1.1  89    -2.7  1     0     994.4    NA       0.0000   9999     0     0     0    
2019/08/26  21:06:00  BASE  6.26808  110  8.04384  126  -1.2  88    -2.9  1     0     994.4    NA       0.0000   9999     0     0     0    
2019/08/26  21:07:00  BASE  6.4386   110  7.74396  122  -1.3  88    -3.0  1     0     994.4    NA       0.0000   9999     0     0     0    
2019/08/26  21:08:00  BASE  6.16224  112  7.50288  119  -1.4  88    -3.1  1     0     994.3    NA       0.0000   9999     0     0     0    
2019/08/26  21:09:00  BASE  5.91528  113  7.3794   116  -1.4  88    -3.1  1     0     994.2    NA       0.0000   9999     0     0     0    
2019/08/26  21:10:00  BASE  6.13284  114  7.3794   116  -1.4  88    -3.1  1     0     994.2    NA       0.0000   9999     0     0     0    
2019/08/26  21:11:00  BASE  6.24456  114  6.92664  119  -1.4  88    -3.1  0     0     994.2    NA       0.0000   9999     0     0     0    
2019/08/26  21:12:00  BASE  6.27396  115  6.92664  119  -1.3  89    -2.9  0     0     994.1    NA       0.0000   9999     0     0     0    
2019/08/26  21:13:00  BASE  6.33864  115  6.92664  119  -1.2  89    -2.9  0     0     994.1    NA       0.0000   9999     0     0     0    
2019/08/26  21:14:00  BASE  6.42684  114  6.92664  119  -1.2  88    -2.9  0     0     994.1    NA       0.0000   9999     0     0     0    
2019/08/26  21:15:00  BASE  6.53268  115  7.05012  118  -1.2  88    -2.9  0     0     994.1    NA       0.0000   9999     0     0     0    
2019/08/26  21:16:00  BASE  6.4092   115  7.05012  118  -1.2  88    -2.9  0     0     994.0    NA       0.0000   9999     0     0     0    
2019/08/26  21:17:00  BASE  6.46212  115  7.05012  118  -1.2  88    -2.9  0     0     994.0    NA       0.0000   9999     0     0     0    
2019/08/26  21:18:00  BASE  6.42684  114  7.05012  118  -1.1  88    -2.9  0     0     994.0    NA       0.0000   9999     0     0     0    
2019/08/26  21:19:00  BASE  6.18576  113  7.05012  118  -1.1  88    -2.8  0     0     994.0    NA       0.0000   9999     0     0     0    
2019/08/26  21:20:00  BASE  6.174    111  7.05012  118  -1.1  88    -2.9  0     0     994.1    NA       0.0000   9999     0     0     0    
2019/08/26  21:21:00  BASE  6.19752  108  7.05012  118  -1.2  88    -3.0  0     0     994.1    NA       0.0000   9999     0     0     0    
2019/08/26  21:22:00  BASE  5.95056  106  7.05012  118  -1.3  88    -3.1  0     0     994.1    NA       0.0000   9999     0     0     0    
2019/08/26  21:23:00  BASE  5.95644  102  7.05012  118  -1.4  88    -3.2  0     0     994.1    NA       0.0000   9999     0     0     0    
2019/08/26  21:24:00  BASE  6.02112  101  7.05012  118  -1.5  88    -3.3  0     0     994.1    NA       0.0000   9999     0     0     0    
2019/08/26  21:25:00  BASE  5.94468  101  6.86784  115  -1.7  88    -3.4  0     0     994.1    NA       0.0000   9999     0     0     0    
2019/08/26  21:26:00  BASE  5.93292  98   6.86784  115  -1.8  88    -3.5  0     0     994.1    NA       0.0000   9999     0     0     0    
2019/08/26  21:27:00  BASE  6.0564   96   6.74436  112  -1.9  89    -3.5  0     0     994.1    NA       0.0000   9999     0     0     0    
2019/08/26  21:28:00  BASE  6.0564   94   6.74436  112  -2.0  89    -3.6  0     0     994.1    NA       0.0000   9999     0     0     0    
2019/08/26  21:29:00  BASE  5.88     96   6.74436  112  -2.0  90    -3.5  0     0     994.1    NA       0.0000   9999     0     0     0    
2019/08/26  21:30:00  BASE  5.91528  96   6.56208  101  -2.0  90    -3.5  0     0     994.1    NA       0.0000   9999     0     0     0    
2019/08/26  21:31:00  BASE  5.9094   99   6.47388  102  -2.0  90    -3.5  0     0     994.1    NA       0.0000   9999     0     0     0    
2019/08/26  21:32:00  BASE  5.8212   102  6.47388  102  -2.0  90    -3.4  0     0     994.1    NA       0.0000   9999     0     0     0    
2019/08/26  21:33:00  BASE  5.83296  104  6.47388  102  -2.0  90    -3.4  0     0     994.1    NA       0.0000   9999     0     0     0    
2019/08/26  21:34:00  BASE  5.94468  105  6.47388  104  -2.0  91    -3.3  0     0     994.1    NA       0.0000   9999     0     0     0    
2019/08/26  21:35:00  BASE  5.75064  106  6.47388  104  -2.0  91    -3.3  0     0     994.1    NA       0.0000   9999     0     0     0    
2019/08/26  21:36:00  BASE  5.43312  107  6.47388  104  -1.9  91    -3.2  0     0     994.1    NA       0.0000   9999     0     0     0    
2019/08/26  21:37:00  BASE  5.45664  103  6.47388  104  -1.9  91    -3.2  0     0     994.2    NA       0.0000   9999     0     0     0    
2019/08/26  21:38:00  BASE  5.60952  99   6.47388  104  -2.0  91    -3.2  0     0     994.2    NA       0.0000   9999     0     0     0    
2019/08/26  21:39:00  BASE  5.52132  95   6.47388  104  -2.0  91    -3.2  0     0     994.2    NA       0.0000   9999     0     0     0    
2019/08/26  21:40:00  BASE  5.36256  93   6.47388  104  -2.0  92    -3.2  0     0     994.2    NA       0.0000   9999     0     0     0    
2019/08/26  21:41:00  BASE  5.20968  93   6.47388  104  -2.0  92    -3.2  0     0     994.2    NA       0.0000   9999     0     0     0    
2019/08/26  21:42:00  BASE  4.9686   91   6.47388  104  -2.1  92    -3.2  0     0     994.2    NA       0.0000   9999     0     0     0    
2019/08/26  21:43:00  BASE  4.65696  86   6.47388  104  -2.0  92    -3.2  0     0     994.2    NA       0.0000   9999     0     0     0    
2019/08/26  21:44:00  BASE  4.40412  85   5.92704  95   -2.0  92    -3.2  0     0     994.2    NA       0.0000   9999     0     0     0    
2019/08/26  21:45:00  BASE  4.39236  86   5.92704  95   -2.0  92    -3.2  0     0     994.2    NA       0.0000   9999     0     0     0    
2019/08/26  21:46:00  BASE  4.22184  81   5.92704  95   -2.0  92    -3.1  0     0     994.2    NA       0.0000   9999     0     0     0    
2019/08/26  21:47:00  BASE  3.95724  75   5.92704  95   -2.0  92    -3.1  0     0     994.2    NA       0.0000   9999     0     0     0    
2019/08/26  21:48:00  BASE  3.71028  71   5.53308  91   -1.9  92    -3.0  0     0     994.3    NA       0.0000   9999     0     0     0    
2019/08/26  21:49:00  BASE  3.4398   67   5.53308  91   -1.8  92    -2.9  0     0     994.4    NA       0.0000   9999     0     0     0    
2019/08/26  21:50:00  BASE  3.41628  62   5.2626   90   -1.7  92    -2.8  0     0     994.4    NA       0.0000   9999     0     0     0    
2019/08/26  21:51:00  BASE  3.22224  54   5.145    91   -1.6  92    -2.7  0     0     994.4    NA       0.0000   9999     0     0     0    
2019/08/26  21:52:00  BASE  2.27556  33   4.68636  83   -1.5  91    -2.7  0     0     994.4    NA       0.0000   9999     0     0     0    
2019/08/26  21:53:00  BASE  1.43472  10   4.65696  81   -1.5  91    -2.8  0     0     994.4    NA       0.0000   9999     0     0     0    
2019/08/26  21:54:00  BASE  1.07604  24   4.65696  81   -1.5  91    -2.8  0     0     994.3    NA       0.0000   9999     0     0     0    
2019/08/26  21:55:00  BASE  0.71736  45   4.41588  78   -1.5  91    -2.9  0     0     994.2    NA       0.0000   9999     0     0     0    
2019/08/26  21:56:00  BASE  0.6762   52   4.05132  76   -1.5  91    -2.9  0     0     994.2    NA       0.0000   9999     0     0     0    
2019/08/26  21:57:00  BASE  0.98784  52   3.75144  71   -1.5  91    -2.8  0     0     994.2    NA       0.0000   9999     0     0     0    
2019/08/26  21:58:00  BASE  1.29948  47   3.65736  53   -1.4  91    -2.7  0     0     994.2    NA       0.0000   9999     0     0     0    
2019/08/26  21:59:00  BASE  1.42884  43   3.65736  53   -1.4  91    -2.6  0     0     994.2    NA       0.0000   9999     0     0     0    
2019/08/26  22:00:00  BASE  1.40532  35   3.234    51   -1.3  91    -2.6  0     0     994.2    NA       0.0000   9999     0     0     0    
2019/08/26  22:01:00  BASE  1.21128  36   2.38728  43   -1.4  91    -2.7  0     0     994.1    NA       0.0000   9999     0     0     0    
2019/08/26  22:02:00  BASE  1.323    43   2.1462   354  -1.4  90    -2.8  0     0     994.1    NA       0.0000   9999     0     0     0    
2019/08/26  22:03:00  BASE  1.93452  54   2.56956  56   -1.5  90    -2.9  0     0     994.1    NA       0.0000   9999     0     0     0    
2019/08/26  22:04:00  BASE  2.205    60   2.56956  56   -1.5  90    -2.9  0     0     994.1    NA       0.0000   9999     0     0     0    
2019/08/26  22:05:00  BASE  1.80516  50   2.56956  56   -1.5  90    -2.9  0     0     994.1    NA       0.0000   9999     0     0     0    
2019/08/26  22:06:00  BASE  1.55232  38   2.56956  56   -1.4  90    -2.8  0     0     994.1    NA       0.0000   9999     0     0     0    
2019/08/26  22:07:00  BASE  1.59348  31   2.56956  56   -1.2  90    -2.7  0     0     994.1    NA       0.0000   9999     0     0     0    
2019/08/26  22:08:00  BASE  1.37004  9    2.56956  56   -1.2  89    -2.7  0     0     994.1    NA       0.0000   9999     0     0     0    
2019/08/26  22:09:00  BASE  1.05252  337  2.56956  56   -1.1  88    -2.8  0     0     994.1    NA       0.0000   9999     0     0     0    
2019/08/26  22:10:00  BASE  0.88788  322  2.56956  56   -1.1  88    -2.8  0     0     994.1    NA       0.0000   9999     0     0     0    
2019/08/26  22:11:00  BASE  0.81144  320  2.56956  56   -1.0  87    -2.9  0     0     994.1    NA       0.0000   9999     0     0     0    
2019/08/26  22:12:00  BASE  0.80556  341  2.56956  56   -1.0  87    -3.0  0     0     994.1    NA       0.0000   9999     0     0     0    
2019/08/26  22:13:00  BASE  0.83496  12   2.42256  50   -1.1  87    -3.0  0     0     994.1    NA       0.0000   9999     0     0     0    
2019/08/26  22:14:00  BASE  0.69384  0    2.0874   36   -1.1  86    -3.1  0     0     994.1    NA       0.0000   9999     0     0     0    
2019/08/26  22:15:00  BASE  0.77028  320  2.0874   36   -1.1  86    -3.1  0     0     994.1    NA       0.0000   9999     0     0     0    
2019/08/26  22:16:00  BASE  0.95844  304  1.87572  36   -1.1  86    -3.1  0     0     994.1    NA       0.0000   9999     0     0     0    
2019/08/26  22:17:00  BASE  0.8232   300  1.48176  8    -1.1  86    -3.1  0     0     994.1    NA       0.0000   9999     0     0     0    
2019/08/26  22:18:00  BASE  0.40572  302  1.1466   307  -1.0  86    -3.0  0     0     994.1    NA       0.0000   9999     0     0     0    
2019/08/26  22:19:00  BASE  0.05292  304  1.1466   307  -0.9  86    -2.9  0     0     994.1    NA       0.0000   9999     0     0     0    
2019/08/26  22:20:00  BASE  0.02352  321  1.1466   307  -0.8  86    -2.9  0     0     994.1    NA       0.0000   9999     0     0     0    
2019/08/26  22:21:00  BASE  0.39984  360  1.1466   307  -0.9  86    -3.0  0     0     994.1    NA       0.0000   9999     0     0     0    
2019/08/26  22:22:00  BASE  1.01724  34   1.57584  64   -0.9  85    -3.0  0     0     994.1    NA       0.0000   9999     0     0     0    
2019/08/26  22:23:00  BASE  0.89376  46   1.57584  64   -0.9  85    -3.1  0     0     994.1    NA       0.0000   9999     0     0     0    
2019/08/26  22:24:00  BASE  0.54096  62   1.57584  64   -1.0  85    -3.2  0     0     994.0    NA       0.0000   9999     0     0     0    
2019/08/26  22:25:00  BASE  0.31752  69   1.57584  64   -1.0  85    -3.2  0     0     994.0    NA       0.0000   9999     0     0     0    
2019/08/26  22:26:00  BASE  0.02352  72   1.57584  64   -1.0  85    -3.1  0     0     994.0    NA       0.0000   9999     0     0     0    
2019/08/26  22:27:00  BASE  0        111  1.57584  64   -0.9  85    -3.1  0     0     994.0    NA       0.0000   9999     0     0     0    
2019/08/26  22:28:00  BASE  0.07644  154  1.57584  64   -0.9  85    -3.1  0     0     994.0    NA       0.0000   9999     0     0     0    
2019/08/26  22:29:00  BASE  0.4998   171  1.57584  64   -1.0  85    -3.2  0     0     994.0    NA       0.0000   9999     0     0     0    
2019/08/26  22:30:00  BASE  0.87024  180  1.57584  64   -1.2  85    -3.4  0     0     994.0    NA       0.0000   9999     0     0     0    
2019/08/26  22:31:00  BASE  0.8526   188  1.57584  64   -1.4  85    -3.6  0     0     994.0    NA       0.0000   9999     0     0     0    
2019/08/26  22:32:00  BASE  0.68796  194  1.1466   45   -1.6  85    -3.8  0     0     994.0    NA       0.0000   9999     0     0     0    
2019/08/26  22:33:00  BASE  0.28224  196  1.0878   180  -1.7  86    -3.7  0     0     994.0    NA       0.0000   9999     0     0     0    
2019/08/26  22:34:00  BASE  0        196  1.0878   180  -1.7  87    -3.6  0     0     994.0    NA       0.0000   9999     0     0     0    
2019/08/26  22:35:00  BASE  0        196  1.0878   180  -1.6  88    -3.4  0     0     994.0    NA       0.0000   9999     0     0     0    
2019/08/26  22:36:00  BASE  0        161  1.0878   180  -1.5  88    -3.2  0     0     994.0    NA       0.0000   9999     0     0     0    
2019/08/26  22:37:00  BASE  0        108  1.0878   180  -1.4  88    -3.1  0     0     994.0    NA       0.0000   9999     0     0     0    
2019/08/26  22:38:00  BASE  0.12936  66   1.0878   180  -1.3  88    -3.0  0     0     994.0    NA       0.0000   9999     0     0     0    
2019/08/26  22:39:00  BASE  0.6174   37   1.1466   28   -1.3  88    -3.0  0     0     994.0    NA       0.0000   9999     0     0     0    
2019/08/26  22:40:00  BASE  1.029    33   1.24068  38   -1.2  88    -3.0  0     0     994.0    NA       0.0000   9999     0     0     0    
2019/08/26  22:41:00  BASE  0.99372  41   1.24068  38   -1.2  87    -3.1  0     0     993.9    NA       0.0000   9999     0     0     0    
2019/08/26  22:42:00  BASE  0.92316  50   1.24068  38   -1.3  87    -3.1  0     0     993.9    NA       0.0000   9999     0     0     0    
2019/08/26  22:43:00  BASE  0.92316  66   1.24068  38   -1.3  87    -3.2  0     0     993.9    NA       0.0000   9999     0     0     0    
2019/08/26  22:44:00  BASE  0.95256  84   1.24068  38   -1.3  87    -3.2  0     0     993.9    NA       0.0000   9999     0     0     0    
2019/08/26  22:45:00  BASE  1.01724  100  1.24068  38   -1.3  87    -3.2  0     0     993.9    NA       0.0000   9999     0     0     0    
2019/08/26  22:46:00  BASE  0.9702   111  1.24068  38   -1.3  87    -3.2  0     0     993.9    NA       0.0000   9999     0     0     0    
2019/08/26  22:47:00  BASE  0.92316  122  1.24068  38   -1.3  87    -3.2  0     0     993.9    NA       0.0000   9999     0     0     0    
2019/08/26  22:48:00  BASE  0.96432  130  1.24068  38   -1.3  87    -3.2  0     0     993.9    NA       0.0000   9999     0     0     0    
2019/08/26  22:49:00  BASE  0.96432  129  1.24068  38   -1.3  87    -3.2  0     0     993.9    NA       0.0000   9999     0     0     0    
2019/08/26  22:50:00  BASE  0.88788  124  1.1172   105  -1.4  87    -3.3  0     0     993.8    NA       0.0000   9999     0     0     0    
2019/08/26  22:51:00  BASE  0.8232   121  1.1172   105  -1.5  87    -3.3  0     0     993.7    NA       0.0000   9999     0     0     0    
2019/08/26  22:52:00  BASE  0.75264  122  1.1172   105  -1.5  88    -3.3  0     0     993.7    NA       0.0000   9999     0     0     0    
2019/08/26  22:53:00  BASE  0.7056   126  1.1172   105  -1.5  88    -3.3  0     0     993.7    NA       0.0000   9999     0     0     0    
2019/08/26  22:54:01  BASE  0.74088  131  1.1172   105  -1.5  88    -3.3  0     0     993.7    NA       0.0000   9999     0     0     0    
2019/08/26  22:55:01  BASE  0.79968  135  1.029    131  -1.6  88    -3.3  0     0     993.7    NA       0.0000   9999     0     0     0    
2019/08/26  22:56:01  BASE  0.88788  131  1.0584   121  -1.6  88    -3.3  0     0     993.6    NA       0.0000   9999     0     0     0    
2019/08/26  22:57:01  BASE  0.94668  121  1.0584   114  -1.6  88    -3.4  0     0     993.6    NA       0.0000   9999     0     0     0    
2019/08/26  22:58:01  BASE  0.92904  117  1.0584   114  -1.7  88    -3.4  0     0     993.6    NA       0.0000   9999     0     0     0    
2019/08/26  22:59:01  BASE  0.81732  125  1.0584   114  -1.7  88    -3.4  0     0     993.6    NA       0.0000   9999     0     0     0    
2019/08/26  23:00:01  BASE  0.54096  130  1.0584   114  -1.8  88    -3.5  0     0     993.6    NA       0.0000   9999     0     0     0    
2019/08/26  23:01:00  BASE  0.43512  114  1.0584   114  -1.8  88    -3.4  0     0     993.6    NA       0.0000   9999     0     0     0    
2019/08/26  23:02:00  BASE  0.64092  95   1.0584   114  -1.7  89    -3.4  0     0     993.6    NA       0.0000   9999     0     0     0    
2019/08/26  23:03:00  BASE  0.80556  88   1.0584   114  -1.7  89    -3.3  0     0     993.6    NA       0.0000   9999     0     0     0    
2019/08/26  23:04:00  BASE  0.9702   87   1.24068  92   -1.5  89    -3.1  0     0     993.6    NA       0.0000   9999     0     0     0    
2019/08/26  23:05:00  BASE  1.19952  96   1.54056  107  -1.4  89    -3.0  0     0     993.6    NA       0.0000   9999     0     0     0    
2019/08/26  23:06:00  BASE  1.31124  93   1.54056  107  -1.3  89    -2.9  0     0     993.5    NA       0.0000   9999     0     0     0    
2019/08/26  23:07:00  BASE  1.2642   79   1.54056  107  -1.3  88    -3.0  0     0     993.5    NA       0.0000   9999     0     0     0    
2019/08/26  23:08:00  BASE  1.18188  73   1.54056  107  -1.3  88    -3.0  0     0     993.5    NA       0.0000   9999     0     0     0    
2019/08/26  23:09:00  BASE  1.02312  71   1.54056  107  -1.2  88    -3.0  0     0     993.5    NA       0.0000   9999     0     0     0    
2019/08/26  23:10:00  BASE  0.9702   63   1.54056  107  -1.2  88    -2.9  0     0     993.5    NA       0.0000   9999     0     0     0    
2019/08/26  23:11:00  BASE  1.029    56   1.54056  107  -1.0  88    -2.8  0     0     993.5    NA       0.0000   9999     0     0     0    
2019/08/26  23:12:00  BASE  0.97608  52   1.54056  107  -0.9  87    -2.7  0     0     993.5    NA       0.0000   9999     0     0     0    
2019/08/26  23:13:00  BASE  0.85848  52   1.54056  107  -0.7  87    -2.7  0     0     993.5    NA       0.0000   9999     0     0     0    
2019/08/26  23:14:00  BASE  0.84672  56   1.54056  107  -0.7  86    -2.7  0     0     993.5    NA       0.0000   9999     0     0     0    
2019/08/26  23:15:00  BASE  0.68796  84   1.45236  91   -0.7  86    -2.8  0     0     993.5    NA       0.0000   9999     0     0     0    
2019/08/26  23:16:00  BASE  1.029    155  1.87572  188  -0.8  85    -3.0  0     0     993.5    NA       0.0000   9999     0     0     0    
2019/08/26  23:17:00  BASE  1.51704  186  1.87572  188  -1.1  84    -3.4  0     0     993.5    NA       0.0000   9999     18180 0     0    
2019/08/26  23:18:00  BASE  1.029    174  1.87572  188  -1.3  85    -3.6  0     0     993.5    NA       0.0000   9999     17780 0     0    
2019/08/26  23:19:00  BASE  0.41748  167  1.87572  188  -1.6  85    -3.7  0     0     993.5    NA       0.0000   9999     17590 0     0    
2019/08/26  23:20:00  BASE  0.1176   176  1.87572  188  -1.8  86    -3.8  0     0     993.4    NA       0.0000   9999     18080 0     0    
2019/08/26  23:21:00  BASE  0        183  1.87572  188  -1.8  88    -3.6  0     0     993.4    NA       0.0000   9999     18240 0     0    
2019/08/26  23:22:00  BASE  0        184  1.87572  188  -1.7  90    -3.2  0     0     993.4    NA       0.0000   9999     18110 0     0    
2019/08/26  23:23:00  BASE  0.38808  193  1.87572  188  -1.6  90    -3.0  0     0     993.4    NA       0.0000   9999     16900 0     0    
2019/08/26  23:24:00  BASE  1.03488  200  1.87572  188  -1.6  91    -2.9  0     0     993.4    NA       0.0000   9999     16770 0     0    
2019/08/26  23:25:00  BASE  1.35828  190  1.87572  188  -1.8  91    -3.0  0     0     993.4    NA       0.0000   9999     16700 0     0    
2019/08/26  23:26:00  BASE  1.52292  175  1.81692  163  -1.9  92    -3.1  0     0     993.4    NA       0.0000   9999     16670 0     0    
2019/08/26  23:27:00  BASE  1.7934   162  2.1756   156  -2.2  92    -3.3  0     0     993.4    NA       0.0000   9999     17590 0     0    
2019/08/26  23:28:00  BASE  1.92864  157  2.1756   156  -2.4  93    -3.3  0     0     993.4    NA       0.0000   9999     17550 0     0    
2019/08/26  23:29:00  BASE  1.69932  161  2.1756   156  -2.5  95    -3.2  0     0     993.4    NA       0.0000   9999     17390 0     0    
2019/08/26  23:30:00  BASE  1.45236  169  2.1756   156  -2.6  96    -3.1  0     0     993.5    NA       0.0000   9999     17230 0     0    
2019/08/26  23:31:00  BASE  1.65228  175  2.1756   156  -2.7  97    -3.1  0     0     993.4    NA       0.0000   9999     17000 0     0    
2019/08/26  23:32:00  BASE  2.01684  173  2.1756   172  -2.7  98    -3.0  0     0     993.4    NA       0.0000   9999     0     0     0    
2019/08/26  23:33:00  BASE  2.18148  166  2.32848  159  -2.8  99    -2.9  0     0     993.4    NA       0.0000   9999     0     0     0    
2019/08/26  23:34:00  BASE  2.19912  154  2.51076  153  -2.8  99    -2.9  0     0     993.4    NA       0.0000   9999     15520 0     0    
2019/08/26  23:35:00  BASE  1.95804  144  2.51076  153  -2.7  100   -2.8  0     0     993.4    NA       0.0000   9999     15620 0     0    
2019/08/26  23:36:00  BASE  1.51704  136  2.51076  153  -2.7  100   -2.7  0     0     993.4    NA       0.0000   9999     0     0     0    
2019/08/26  23:37:00  BASE  0.81732  124  2.51076  153  -2.6  100   -2.6  0     0     993.4    NA       0.0000   9999     0     0     0    
2019/08/26  23:38:00  BASE  0.43512  118  2.51076  153  -2.5  100   -2.5  0     0     993.4    NA       0.0000   9999     0     0     0    
2019/08/26  23:39:00  BASE  0.27636  96   2.51076  153  -2.3  100   -2.3  0     0     993.4    NA       0.0000   9999     0     0     0    
2019/08/26  23:40:00  BASE  0.05292  16   2.51076  153  -2.0  100   -2.0  0     0     993.4    NA       0.0000   9999     0     0     0    
2019/08/26  23:41:00  BASE  0.02352  349  2.51076  153  -1.7  100   -1.7  0     0     993.3    NA       0.0000   9999     0     0     0    
2019/08/26  23:42:00  BASE  0        15   2.51076  153  -1.5  100   -1.5  0     0     993.3    NA       0.0000   9999     0     0     0    
2019/08/26  23:43:00  BASE  0        73   2.51076  153  -1.2  99    -1.4  0     0     993.3    NA       0.0000   9999     0     0     0    
2019/08/26  23:44:00  BASE  0.09996  101  1.96392  135  -1.1  98    -1.4  0     0     993.3    NA       0.0000   9999     14830 0     0    
2019/08/26  23:45:00  BASE  0.441    89   1.57584  129  -1.1  96    -1.6  0     0     993.3    NA       0.0000   9999     0     0     0    
2019/08/26  23:46:00  BASE  0.56448  67   0.9702   79   -1.1  95    -1.8  0     0     993.3    NA       0.0000   9999     15090 0     0    
2019/08/26  23:47:00  BASE  0.55272  40   0.9702   19   -1.2  94    -2.1  0     0     993.3    NA       0.0000   9999     0     0     0    
2019/08/26  23:48:00  BASE  0.75264  5    0.9702   350  -1.2  93    -2.3  0     0     993.3    NA       0.0000   9999     0     0     0    
2019/08/26  23:49:00  BASE  0.95844  10   1.35828  49   -1.3  92    -2.5  0     0     993.4    NA       0.0000   9999     14600 0     0    
2019/08/26  23:50:00  BASE  1.21128  39   1.75224  37   -1.4  91    -2.7  0     0     993.4    NA       0.0000   9999     14310 0     0    
2019/08/26  23:51:00  BASE  1.45824  35   1.75224  37   -1.6  91    -2.8  0     0     993.4    NA       0.0000   9999     14040 0     0    
2019/08/26  23:52:00  BASE  1.62876  24   1.90512  25   -1.7  91    -3.0  0     0     993.4    NA       0.0000   9999     13780 0     0    
2019/08/26  23:53:00  BASE  1.81104  21   2.24028  16   -1.8  92    -3.0  0     0     993.4    NA       0.0000   9999     0     0     0    
2019/08/26  23:54:00  BASE  1.9404   18   2.29908  17   -1.9  92    -3.0  0     0     993.4    NA       0.0000   9999     0     0     0    
2019/08/26  23:55:00  BASE  1.95804  23   2.29908  17   -1.9  93    -2.9  0     0     993.3    NA       0.0000   9999     0     0     0    
2019/08/26  23:56:00  BASE  1.9992   33   2.29908  17   -1.9  93    -2.9  0     0     993.3    NA       0.0000   9999     15260 0     0    
2019/08/26  23:57:00  BASE  2.16972  42   2.48136  54   -2.1  93    -3.0  0     0     993.3    NA       0.0000   9999     0     0     0    
2019/08/26  23:58:00  BASE  2.33436  48   2.51076  47   -2.2  94    -3.1  0     0     993.3    NA       0.0000   9999     15030 0     0    
2019/08/26  23:59:00  BASE  2.2638   45   2.51076  47   -2.3  94    -3.1  0     0     993.3    NA       0.0000   9999     15090 0     0